<?xml version="1.0" encoding="UTF-8" standalone="no" ?>
<gpx xmlns="http://www.topografix.com/GPX/1/1" xmlns:xsi="http://www.w3.org/2001/XMLSchema-instance" xsi:schemaLocation="http://www.topografix.com/GPX/1/1 http://www.topografix.com/GPX/1/1/gpx.xsd" version="1.1" creator="VisuGPX - https://www.visugpx.com">
  <metadata>
    <name>Trè-le-Saix et le col de la Balme</name>
    <desc><![CDATA[Circuit au départ de l'Ermont à Bellevaux vers les chalets de Tré-le-Saix et retour par le col de la Balme.]]></desc>
  </metadata>
  <trk>
    <name><![CDATA[20190212151116-hFXNQ]]></name>
    <trkseg>
      <trkpt lat="46.25156" lon="6.53984">
        <ele>982.6</ele>
        <time>2019-02-06T08:36:27Z</time>
      </trkpt>
      <trkpt lat="46.25156" lon="6.53983">
        <ele>981.16</ele>
        <time>2019-02-06T08:36:38Z</time>
      </trkpt>
      <trkpt lat="46.25163" lon="6.53989">
        <ele>983.57</ele>
        <time>2019-02-06T08:37:16Z</time>
      </trkpt>
      <trkpt lat="46.25167" lon="6.53992">
        <ele>985.01</ele>
        <time>2019-02-06T08:37:32Z</time>
      </trkpt>
      <trkpt lat="46.25175" lon="6.53998">
        <ele>985.97</ele>
        <time>2019-02-06T08:37:58Z</time>
      </trkpt>
      <trkpt lat="46.25178" lon="6.54008">
        <ele>987.41</ele>
        <time>2019-02-06T08:38:11Z</time>
      </trkpt>
      <trkpt lat="46.25179" lon="6.54009">
        <ele>988.85</ele>
        <time>2019-02-06T08:38:42Z</time>
      </trkpt>
      <trkpt lat="46.25178" lon="6.54019">
        <ele>990.3</ele>
        <time>2019-02-06T08:39:36Z</time>
      </trkpt>
      <trkpt lat="46.25169" lon="6.54034">
        <ele>991.74</ele>
        <time>2019-02-06T08:39:49Z</time>
      </trkpt>
      <trkpt lat="46.25161" lon="6.54043">
        <ele>993.18</ele>
        <time>2019-02-06T08:40:00Z</time>
      </trkpt>
      <trkpt lat="46.25159" lon="6.54045">
        <ele>993.18</ele>
        <time>2019-02-06T08:40:02Z</time>
      </trkpt>
      <trkpt lat="46.25153" lon="6.54056">
        <ele>994.62</ele>
        <time>2019-02-06T08:40:13Z</time>
      </trkpt>
      <trkpt lat="46.25151" lon="6.54058">
        <ele>995.1</ele>
        <time>2019-02-06T08:40:16Z</time>
      </trkpt>
      <trkpt lat="46.25147" lon="6.54066">
        <ele>995.1</ele>
        <time>2019-02-06T08:40:22Z</time>
      </trkpt>
      <trkpt lat="46.25142" lon="6.54079">
        <ele>996.54</ele>
        <time>2019-02-06T08:40:34Z</time>
      </trkpt>
      <trkpt lat="46.25139" lon="6.54094">
        <ele>997.51</ele>
        <time>2019-02-06T08:40:46Z</time>
      </trkpt>
      <trkpt lat="46.25137" lon="6.541">
        <ele>997.99</ele>
        <time>2019-02-06T08:40:59Z</time>
      </trkpt>
      <trkpt lat="46.25136" lon="6.54105">
        <ele>997.51</ele>
        <time>2019-02-06T08:41:02Z</time>
      </trkpt>
      <trkpt lat="46.25135" lon="6.54109">
        <ele>997.99</ele>
        <time>2019-02-06T08:41:04Z</time>
      </trkpt>
      <trkpt lat="46.25134" lon="6.54119">
        <ele>998.47</ele>
        <time>2019-02-06T08:41:10Z</time>
      </trkpt>
      <trkpt lat="46.25131" lon="6.54134">
        <ele>998.95</ele>
        <time>2019-02-06T08:41:20Z</time>
      </trkpt>
      <trkpt lat="46.2513" lon="6.54138">
        <ele>999.91</ele>
        <time>2019-02-06T08:41:23Z</time>
      </trkpt>
      <trkpt lat="46.25121" lon="6.54154">
        <ele>1000.87</ele>
        <time>2019-02-06T08:41:38Z</time>
      </trkpt>
      <trkpt lat="46.25113" lon="6.54168">
        <ele>1002.79</ele>
        <time>2019-02-06T08:41:49Z</time>
      </trkpt>
      <trkpt lat="46.25111" lon="6.54172">
        <ele>1002.31</ele>
        <time>2019-02-06T08:41:52Z</time>
      </trkpt>
      <trkpt lat="46.25099" lon="6.54178">
        <ele>1002.31</ele>
        <time>2019-02-06T08:42:06Z</time>
      </trkpt>
      <trkpt lat="46.25085" lon="6.54187">
        <ele>1002.31</ele>
        <time>2019-02-06T08:42:20Z</time>
      </trkpt>
      <trkpt lat="46.25083" lon="6.5419">
        <ele>1001.83</ele>
        <time>2019-02-06T08:42:24Z</time>
      </trkpt>
      <trkpt lat="46.25078" lon="6.54197">
        <ele>1003.27</ele>
        <time>2019-02-06T08:42:32Z</time>
      </trkpt>
      <trkpt lat="46.2507" lon="6.54208">
        <ele>1003.27</ele>
        <time>2019-02-06T08:42:44Z</time>
      </trkpt>
      <trkpt lat="46.25068" lon="6.54211">
        <ele>1003.75</ele>
        <time>2019-02-06T08:42:48Z</time>
      </trkpt>
      <trkpt lat="46.25063" lon="6.54216">
        <ele>1004.23</ele>
        <time>2019-02-06T08:42:54Z</time>
      </trkpt>
      <trkpt lat="46.25056" lon="6.54229">
        <ele>1005.2</ele>
        <time>2019-02-06T08:43:06Z</time>
      </trkpt>
      <trkpt lat="46.25049" lon="6.54241">
        <ele>1006.16</ele>
        <time>2019-02-06T08:43:19Z</time>
      </trkpt>
      <trkpt lat="46.25044" lon="6.54252">
        <ele>1007.12</ele>
        <time>2019-02-06T08:43:30Z</time>
      </trkpt>
      <trkpt lat="46.25037" lon="6.54263">
        <ele>1008.08</ele>
        <time>2019-02-06T08:43:42Z</time>
      </trkpt>
      <trkpt lat="46.2503" lon="6.54278">
        <ele>1009.52</ele>
        <time>2019-02-06T08:43:56Z</time>
      </trkpt>
      <trkpt lat="46.25028" lon="6.54285">
        <ele>1010.96</ele>
        <time>2019-02-06T08:44:07Z</time>
      </trkpt>
      <trkpt lat="46.25025" lon="6.54292">
        <ele>1011.44</ele>
        <time>2019-02-06T08:44:19Z</time>
      </trkpt>
      <trkpt lat="46.25024" lon="6.54293">
        <ele>1010.48</ele>
        <time>2019-02-06T08:44:20Z</time>
      </trkpt>
      <trkpt lat="46.25019" lon="6.54306">
        <ele>1012.41</ele>
        <time>2019-02-06T08:44:32Z</time>
      </trkpt>
      <trkpt lat="46.2502" lon="6.54309">
        <ele>1012.41</ele>
        <time>2019-02-06T08:44:34Z</time>
      </trkpt>
      <trkpt lat="46.25016" lon="6.54319">
        <ele>1013.37</ele>
        <time>2019-02-06T08:44:45Z</time>
      </trkpt>
      <trkpt lat="46.25012" lon="6.54331">
        <ele>1013.85</ele>
        <time>2019-02-06T08:44:57Z</time>
      </trkpt>
      <trkpt lat="46.25011" lon="6.54334">
        <ele>1013.85</ele>
        <time>2019-02-06T08:44:59Z</time>
      </trkpt>
      <trkpt lat="46.25009" lon="6.54339">
        <ele>1014.33</ele>
        <time>2019-02-06T08:45:04Z</time>
      </trkpt>
      <trkpt lat="46.25008" lon="6.54342">
        <ele>1014.81</ele>
        <time>2019-02-06T08:45:06Z</time>
      </trkpt>
      <trkpt lat="46.25005" lon="6.54356">
        <ele>1015.29</ele>
        <time>2019-02-06T08:45:18Z</time>
      </trkpt>
      <trkpt lat="46.25004" lon="6.54362">
        <ele>1015.29</ele>
        <time>2019-02-06T08:45:22Z</time>
      </trkpt>
      <trkpt lat="46.25002" lon="6.54377">
        <ele>1016.73</ele>
        <time>2019-02-06T08:45:35Z</time>
      </trkpt>
      <trkpt lat="46.25" lon="6.54387">
        <ele>1016.73</ele>
        <time>2019-02-06T08:45:43Z</time>
      </trkpt>
      <trkpt lat="46.24999" lon="6.54394">
        <ele>1016.73</ele>
        <time>2019-02-06T08:45:48Z</time>
      </trkpt>
      <trkpt lat="46.24997" lon="6.5441">
        <ele>1016.25</ele>
        <time>2019-02-06T08:46:00Z</time>
      </trkpt>
      <trkpt lat="46.24995" lon="6.5442">
        <ele>1015.77</ele>
        <time>2019-02-06T08:46:08Z</time>
      </trkpt>
      <trkpt lat="46.24991" lon="6.54433">
        <ele>1015.77</ele>
        <time>2019-02-06T08:46:18Z</time>
      </trkpt>
      <trkpt lat="46.24988" lon="6.54441">
        <ele>1015.77</ele>
        <time>2019-02-06T08:46:24Z</time>
      </trkpt>
      <trkpt lat="46.24984" lon="6.54448">
        <ele>1016.25</ele>
        <time>2019-02-06T08:46:32Z</time>
      </trkpt>
      <trkpt lat="46.2498" lon="6.54457">
        <ele>1017.21</ele>
        <time>2019-02-06T08:46:44Z</time>
      </trkpt>
      <trkpt lat="46.24977" lon="6.54469">
        <ele>1018.17</ele>
        <time>2019-02-06T08:46:55Z</time>
      </trkpt>
      <trkpt lat="46.24973" lon="6.54482">
        <ele>1019.62</ele>
        <time>2019-02-06T08:47:06Z</time>
      </trkpt>
      <trkpt lat="46.24972" lon="6.54487">
        <ele>1020.1</ele>
        <time>2019-02-06T08:47:10Z</time>
      </trkpt>
      <trkpt lat="46.24973" lon="6.54499">
        <ele>1021.54</ele>
        <time>2019-02-06T08:47:21Z</time>
      </trkpt>
      <trkpt lat="46.24972" lon="6.54504">
        <ele>1022.02</ele>
        <time>2019-02-06T08:47:25Z</time>
      </trkpt>
      <trkpt lat="46.24974" lon="6.54516">
        <ele>1022.98</ele>
        <time>2019-02-06T08:47:37Z</time>
      </trkpt>
      <trkpt lat="46.24975" lon="6.54531">
        <ele>1023.94</ele>
        <time>2019-02-06T08:47:50Z</time>
      </trkpt>
      <trkpt lat="46.24974" lon="6.54549">
        <ele>1025.86</ele>
        <time>2019-02-06T08:48:06Z</time>
      </trkpt>
      <trkpt lat="46.24972" lon="6.54561">
        <ele>1027.31</ele>
        <time>2019-02-06T08:48:16Z</time>
      </trkpt>
      <trkpt lat="46.24974" lon="6.5457">
        <ele>1028.75</ele>
        <time>2019-02-06T08:48:24Z</time>
      </trkpt>
      <trkpt lat="46.24975" lon="6.54578">
        <ele>1028.75</ele>
        <time>2019-02-06T08:48:31Z</time>
      </trkpt>
      <trkpt lat="46.24974" lon="6.54591">
        <ele>1029.71</ele>
        <time>2019-02-06T08:48:44Z</time>
      </trkpt>
      <trkpt lat="46.24975" lon="6.54603">
        <ele>1031.15</ele>
        <time>2019-02-06T08:48:57Z</time>
      </trkpt>
      <trkpt lat="46.24976" lon="6.54612">
        <ele>1032.11</ele>
        <time>2019-02-06T08:49:06Z</time>
      </trkpt>
      <trkpt lat="46.24979" lon="6.54624">
        <ele>1034.52</ele>
        <time>2019-02-06T08:49:20Z</time>
      </trkpt>
      <trkpt lat="46.2498" lon="6.54634">
        <ele>1035</ele>
        <time>2019-02-06T08:49:31Z</time>
      </trkpt>
      <trkpt lat="46.24982" lon="6.54645">
        <ele>1037.4</ele>
        <time>2019-02-06T08:49:42Z</time>
      </trkpt>
      <trkpt lat="46.24984" lon="6.54652">
        <ele>1037.88</ele>
        <time>2019-02-06T08:49:48Z</time>
      </trkpt>
      <trkpt lat="46.24986" lon="6.54667">
        <ele>1039.8</ele>
        <time>2019-02-06T08:50:01Z</time>
      </trkpt>
      <trkpt lat="46.24987" lon="6.54669">
        <ele>1039.8</ele>
        <time>2019-02-06T08:50:04Z</time>
      </trkpt>
      <trkpt lat="46.24989" lon="6.54676">
        <ele>1042.21</ele>
        <time>2019-02-06T08:50:12Z</time>
      </trkpt>
      <trkpt lat="46.2499" lon="6.54681">
        <ele>1042.21</ele>
        <time>2019-02-06T08:50:17Z</time>
      </trkpt>
      <trkpt lat="46.24993" lon="6.54688">
        <ele>1042.69</ele>
        <time>2019-02-06T08:50:24Z</time>
      </trkpt>
      <trkpt lat="46.24996" lon="6.54699">
        <ele>1044.61</ele>
        <time>2019-02-06T08:50:35Z</time>
      </trkpt>
      <trkpt lat="46.24996" lon="6.547">
        <ele>1045.57</ele>
        <time>2019-02-06T08:50:36Z</time>
      </trkpt>
      <trkpt lat="46.25" lon="6.54712">
        <ele>1045.09</ele>
        <time>2019-02-06T08:50:47Z</time>
      </trkpt>
      <trkpt lat="46.25003" lon="6.54725">
        <ele>1047.01</ele>
        <time>2019-02-06T08:50:59Z</time>
      </trkpt>
      <trkpt lat="46.25004" lon="6.54734">
        <ele>1047.49</ele>
        <time>2019-02-06T08:51:12Z</time>
      </trkpt>
      <trkpt lat="46.25005" lon="6.54736">
        <ele>1047.01</ele>
        <time>2019-02-06T08:51:41Z</time>
      </trkpt>
      <trkpt lat="46.25006" lon="6.54736">
        <ele>1047.01</ele>
        <time>2019-02-06T08:52:29Z</time>
      </trkpt>
      <trkpt lat="46.25006" lon="6.54736">
        <ele>1047.49</ele>
        <time>2019-02-06T08:52:44Z</time>
      </trkpt>
      <trkpt lat="46.25005" lon="6.54735">
        <ele>1047.97</ele>
        <time>2019-02-06T08:53:00Z</time>
      </trkpt>
      <trkpt lat="46.25006" lon="6.54736">
        <ele>1047.97</ele>
        <time>2019-02-06T08:53:46Z</time>
      </trkpt>
      <trkpt lat="46.25005" lon="6.54736">
        <ele>1047.49</ele>
        <time>2019-02-06T08:54:33Z</time>
      </trkpt>
      <trkpt lat="46.25005" lon="6.54736">
        <ele>1048.45</ele>
        <time>2019-02-06T08:55:47Z</time>
      </trkpt>
      <trkpt lat="46.25003" lon="6.54739">
        <ele>1048.94</ele>
        <time>2019-02-06T08:56:20Z</time>
      </trkpt>
      <trkpt lat="46.25003" lon="6.54739">
        <ele>1048.45</ele>
        <time>2019-02-06T08:56:46Z</time>
      </trkpt>
      <trkpt lat="46.25003" lon="6.54739">
        <ele>1048.94</ele>
        <time>2019-02-06T08:57:42Z</time>
      </trkpt>
      <trkpt lat="46.25003" lon="6.54739">
        <ele>1048.94</ele>
        <time>2019-02-06T08:58:02Z</time>
      </trkpt>
      <trkpt lat="46.25003" lon="6.5474">
        <ele>1049.42</ele>
        <time>2019-02-06T08:58:32Z</time>
      </trkpt>
      <trkpt lat="46.25005" lon="6.54742">
        <ele>1049.42</ele>
        <time>2019-02-06T08:58:51Z</time>
      </trkpt>
      <trkpt lat="46.25007" lon="6.54744">
        <ele>1049.42</ele>
        <time>2019-02-06T08:58:54Z</time>
      </trkpt>
      <trkpt lat="46.25014" lon="6.54752">
        <ele>1051.34</ele>
        <time>2019-02-06T08:59:06Z</time>
      </trkpt>
      <trkpt lat="46.2502" lon="6.54763">
        <ele>1051.82</ele>
        <time>2019-02-06T08:59:19Z</time>
      </trkpt>
      <trkpt lat="46.25025" lon="6.54774">
        <ele>1053.26</ele>
        <time>2019-02-06T08:59:29Z</time>
      </trkpt>
      <trkpt lat="46.2503" lon="6.54783">
        <ele>1054.22</ele>
        <time>2019-02-06T08:59:41Z</time>
      </trkpt>
      <trkpt lat="46.25034" lon="6.54791">
        <ele>1055.18</ele>
        <time>2019-02-06T08:59:52Z</time>
      </trkpt>
      <trkpt lat="46.25039" lon="6.548">
        <ele>1057.11</ele>
        <time>2019-02-06T09:00:04Z</time>
      </trkpt>
      <trkpt lat="46.2504" lon="6.54812">
        <ele>1057.59</ele>
        <time>2019-02-06T09:00:15Z</time>
      </trkpt>
      <trkpt lat="46.25042" lon="6.54821">
        <ele>1058.07</ele>
        <time>2019-02-06T09:00:23Z</time>
      </trkpt>
      <trkpt lat="46.25043" lon="6.54835">
        <ele>1059.03</ele>
        <time>2019-02-06T09:00:36Z</time>
      </trkpt>
      <trkpt lat="46.25045" lon="6.54846">
        <ele>1059.99</ele>
        <time>2019-02-06T09:00:47Z</time>
      </trkpt>
      <trkpt lat="46.25045" lon="6.54859">
        <ele>1060.95</ele>
        <time>2019-02-06T09:01:00Z</time>
      </trkpt>
      <trkpt lat="46.25046" lon="6.54873">
        <ele>1063.36</ele>
        <time>2019-02-06T09:01:13Z</time>
      </trkpt>
      <trkpt lat="46.25047" lon="6.54877">
        <ele>1062.87</ele>
        <time>2019-02-06T09:01:17Z</time>
      </trkpt>
      <trkpt lat="46.25044" lon="6.54888">
        <ele>1063.84</ele>
        <time>2019-02-06T09:01:28Z</time>
      </trkpt>
      <trkpt lat="46.25042" lon="6.549">
        <ele>1065.28</ele>
        <time>2019-02-06T09:01:40Z</time>
      </trkpt>
      <trkpt lat="46.25044" lon="6.54909">
        <ele>1067.2</ele>
        <time>2019-02-06T09:01:52Z</time>
      </trkpt>
      <trkpt lat="46.25045" lon="6.54921">
        <ele>1067.68</ele>
        <time>2019-02-06T09:02:05Z</time>
      </trkpt>
      <trkpt lat="46.25048" lon="6.54934">
        <ele>1070.08</ele>
        <time>2019-02-06T09:02:19Z</time>
      </trkpt>
      <trkpt lat="46.25049" lon="6.54945">
        <ele>1070.57</ele>
        <time>2019-02-06T09:02:31Z</time>
      </trkpt>
      <trkpt lat="46.25049" lon="6.54956">
        <ele>1072.49</ele>
        <time>2019-02-06T09:02:42Z</time>
      </trkpt>
      <trkpt lat="46.25052" lon="6.54965">
        <ele>1073.93</ele>
        <time>2019-02-06T09:02:53Z</time>
      </trkpt>
      <trkpt lat="46.25054" lon="6.54973">
        <ele>1075.37</ele>
        <time>2019-02-06T09:03:05Z</time>
      </trkpt>
      <trkpt lat="46.25057" lon="6.54982">
        <ele>1076.81</ele>
        <time>2019-02-06T09:03:16Z</time>
      </trkpt>
      <trkpt lat="46.25059" lon="6.54989">
        <ele>1077.78</ele>
        <time>2019-02-06T09:03:27Z</time>
      </trkpt>
      <trkpt lat="46.25059" lon="6.55">
        <ele>1079.22</ele>
        <time>2019-02-06T09:03:39Z</time>
      </trkpt>
      <trkpt lat="46.2506" lon="6.55016">
        <ele>1081.14</ele>
        <time>2019-02-06T09:03:55Z</time>
      </trkpt>
      <trkpt lat="46.25063" lon="6.55026">
        <ele>1083.54</ele>
        <time>2019-02-06T09:04:07Z</time>
      </trkpt>
      <trkpt lat="46.25063" lon="6.55039">
        <ele>1084.5</ele>
        <time>2019-02-06T09:04:20Z</time>
      </trkpt>
      <trkpt lat="46.25063" lon="6.55045">
        <ele>1085.95</ele>
        <time>2019-02-06T09:04:29Z</time>
      </trkpt>
      <trkpt lat="46.25063" lon="6.55056">
        <ele>1086.91</ele>
        <time>2019-02-06T09:04:41Z</time>
      </trkpt>
      <trkpt lat="46.25066" lon="6.55068">
        <ele>1089.31</ele>
        <time>2019-02-06T09:04:55Z</time>
      </trkpt>
      <trkpt lat="46.25066" lon="6.55078">
        <ele>1089.79</ele>
        <time>2019-02-06T09:05:07Z</time>
      </trkpt>
      <trkpt lat="46.25067" lon="6.5509">
        <ele>1091.23</ele>
        <time>2019-02-06T09:05:20Z</time>
      </trkpt>
      <trkpt lat="46.25068" lon="6.55101">
        <ele>1093.16</ele>
        <time>2019-02-06T09:05:33Z</time>
      </trkpt>
      <trkpt lat="46.25071" lon="6.55111">
        <ele>1094.6</ele>
        <time>2019-02-06T09:05:45Z</time>
      </trkpt>
      <trkpt lat="46.25073" lon="6.55118">
        <ele>1095.08</ele>
        <time>2019-02-06T09:05:55Z</time>
      </trkpt>
      <trkpt lat="46.25077" lon="6.55128">
        <ele>1096.52</ele>
        <time>2019-02-06T09:06:08Z</time>
      </trkpt>
      <trkpt lat="46.25081" lon="6.55141">
        <ele>1097.96</ele>
        <time>2019-02-06T09:06:20Z</time>
      </trkpt>
      <trkpt lat="46.25082" lon="6.55153">
        <ele>1099.4</ele>
        <time>2019-02-06T09:06:34Z</time>
      </trkpt>
      <trkpt lat="46.25078" lon="6.55163">
        <ele>1100.85</ele>
        <time>2019-02-06T09:06:46Z</time>
      </trkpt>
      <trkpt lat="46.25079" lon="6.55172">
        <ele>1102.77</ele>
        <time>2019-02-06T09:06:57Z</time>
      </trkpt>
      <trkpt lat="46.25079" lon="6.55181">
        <ele>1103.73</ele>
        <time>2019-02-06T09:07:07Z</time>
      </trkpt>
      <trkpt lat="46.25082" lon="6.55191">
        <ele>1105.17</ele>
        <time>2019-02-06T09:07:19Z</time>
      </trkpt>
      <trkpt lat="46.25085" lon="6.55196">
        <ele>1106.13</ele>
        <time>2019-02-06T09:07:30Z</time>
      </trkpt>
      <trkpt lat="46.25086" lon="6.55197">
        <ele>1107.1</ele>
        <time>2019-02-06T09:08:03Z</time>
      </trkpt>
      <trkpt lat="46.25086" lon="6.55202">
        <ele>1108.06</ele>
        <time>2019-02-06T09:08:45Z</time>
      </trkpt>
      <trkpt lat="46.25085" lon="6.552">
        <ele>1106.61</ele>
        <time>2019-02-06T09:09:22Z</time>
      </trkpt>
      <trkpt lat="46.25085" lon="6.552">
        <ele>1108.54</ele>
        <time>2019-02-06T09:10:13Z</time>
      </trkpt>
      <trkpt lat="46.25085" lon="6.55199">
        <ele>1108.54</ele>
        <time>2019-02-06T09:10:37Z</time>
      </trkpt>
      <trkpt lat="46.25085" lon="6.55199">
        <ele>1109.5</ele>
        <time>2019-02-06T09:12:16Z</time>
      </trkpt>
      <trkpt lat="46.25088" lon="6.55194">
        <ele>1111.42</ele>
        <time>2019-02-06T09:14:21Z</time>
      </trkpt>
      <trkpt lat="46.25093" lon="6.55189">
        <ele>1112.86</ele>
        <time>2019-02-06T09:14:32Z</time>
      </trkpt>
      <trkpt lat="46.25096" lon="6.55176">
        <ele>1114.31</ele>
        <time>2019-02-06T09:14:45Z</time>
      </trkpt>
      <trkpt lat="46.25098" lon="6.55168">
        <ele>1115.75</ele>
        <time>2019-02-06T09:14:56Z</time>
      </trkpt>
      <trkpt lat="46.25103" lon="6.55157">
        <ele>1116.71</ele>
        <time>2019-02-06T09:15:07Z</time>
      </trkpt>
      <trkpt lat="46.25106" lon="6.55148">
        <ele>1117.67</ele>
        <time>2019-02-06T09:15:20Z</time>
      </trkpt>
      <trkpt lat="46.25112" lon="6.55146">
        <ele>1118.63</ele>
        <time>2019-02-06T09:15:30Z</time>
      </trkpt>
      <trkpt lat="46.25119" lon="6.55145">
        <ele>1120.07</ele>
        <time>2019-02-06T09:15:43Z</time>
      </trkpt>
      <trkpt lat="46.25124" lon="6.55151">
        <ele>1121.52</ele>
        <time>2019-02-06T09:15:55Z</time>
      </trkpt>
      <trkpt lat="46.25125" lon="6.55158">
        <ele>1122.96</ele>
        <time>2019-02-06T09:16:05Z</time>
      </trkpt>
      <trkpt lat="46.25124" lon="6.55164">
        <ele>1123.92</ele>
        <time>2019-02-06T09:16:16Z</time>
      </trkpt>
      <trkpt lat="46.25122" lon="6.55179">
        <ele>1125.36</ele>
        <time>2019-02-06T09:16:28Z</time>
      </trkpt>
      <trkpt lat="46.25122" lon="6.55187">
        <ele>1126.8</ele>
        <time>2019-02-06T09:16:39Z</time>
      </trkpt>
      <trkpt lat="46.25121" lon="6.5519">
        <ele>1126.8</ele>
        <time>2019-02-06T09:16:42Z</time>
      </trkpt>
      <trkpt lat="46.25122" lon="6.552">
        <ele>1128.73</ele>
        <time>2019-02-06T09:16:52Z</time>
      </trkpt>
      <trkpt lat="46.25121" lon="6.55209">
        <ele>1130.65</ele>
        <time>2019-02-06T09:17:03Z</time>
      </trkpt>
      <trkpt lat="46.2512" lon="6.55218">
        <ele>1132.09</ele>
        <time>2019-02-06T09:17:14Z</time>
      </trkpt>
      <trkpt lat="46.25118" lon="6.55227">
        <ele>1134.01</ele>
        <time>2019-02-06T09:17:26Z</time>
      </trkpt>
      <trkpt lat="46.25117" lon="6.55238">
        <ele>1135.45</ele>
        <time>2019-02-06T09:17:37Z</time>
      </trkpt>
      <trkpt lat="46.25113" lon="6.55247">
        <ele>1136.9</ele>
        <time>2019-02-06T09:17:48Z</time>
      </trkpt>
      <trkpt lat="46.25113" lon="6.55258">
        <ele>1138.82</ele>
        <time>2019-02-06T09:18:00Z</time>
      </trkpt>
      <trkpt lat="46.25113" lon="6.55264">
        <ele>1140.26</ele>
        <time>2019-02-06T09:18:10Z</time>
      </trkpt>
      <trkpt lat="46.25113" lon="6.55274">
        <ele>1141.22</ele>
        <time>2019-02-06T09:18:21Z</time>
      </trkpt>
      <trkpt lat="46.25112" lon="6.55284">
        <ele>1142.18</ele>
        <time>2019-02-06T09:18:32Z</time>
      </trkpt>
      <trkpt lat="46.25112" lon="6.55288">
        <ele>1143.63</ele>
        <time>2019-02-06T09:18:39Z</time>
      </trkpt>
      <trkpt lat="46.25114" lon="6.55296">
        <ele>1145.07</ele>
        <time>2019-02-06T09:18:49Z</time>
      </trkpt>
      <trkpt lat="46.25114" lon="6.55307">
        <ele>1146.03</ele>
        <time>2019-02-06T09:19:00Z</time>
      </trkpt>
      <trkpt lat="46.25112" lon="6.55317">
        <ele>1147.95</ele>
        <time>2019-02-06T09:19:11Z</time>
      </trkpt>
      <trkpt lat="46.25113" lon="6.55324">
        <ele>1148.91</ele>
        <time>2019-02-06T09:19:19Z</time>
      </trkpt>
      <trkpt lat="46.25113" lon="6.55334">
        <ele>1149.87</ele>
        <time>2019-02-06T09:19:29Z</time>
      </trkpt>
      <trkpt lat="46.2511" lon="6.55341">
        <ele>1151.32</ele>
        <time>2019-02-06T09:19:38Z</time>
      </trkpt>
      <trkpt lat="46.25106" lon="6.55345">
        <ele>1152.76</ele>
        <time>2019-02-06T09:19:47Z</time>
      </trkpt>
      <trkpt lat="46.25103" lon="6.55353">
        <ele>1154.2</ele>
        <time>2019-02-06T09:20:00Z</time>
      </trkpt>
      <trkpt lat="46.25099" lon="6.55362">
        <ele>1155.16</ele>
        <time>2019-02-06T09:20:12Z</time>
      </trkpt>
      <trkpt lat="46.25092" lon="6.5537">
        <ele>1157.56</ele>
        <time>2019-02-06T09:20:24Z</time>
      </trkpt>
      <trkpt lat="46.25091" lon="6.55376">
        <ele>1158.05</ele>
        <time>2019-02-06T09:20:30Z</time>
      </trkpt>
      <trkpt lat="46.25089" lon="6.55384">
        <ele>1159.01</ele>
        <time>2019-02-06T09:20:42Z</time>
      </trkpt>
      <trkpt lat="46.25084" lon="6.55391">
        <ele>1160.45</ele>
        <time>2019-02-06T09:20:53Z</time>
      </trkpt>
      <trkpt lat="46.25084" lon="6.55396">
        <ele>1161.41</ele>
        <time>2019-02-06T09:20:59Z</time>
      </trkpt>
      <trkpt lat="46.25085" lon="6.55405">
        <ele>1162.85</ele>
        <time>2019-02-06T09:21:09Z</time>
      </trkpt>
      <trkpt lat="46.2508" lon="6.55414">
        <ele>1164.77</ele>
        <time>2019-02-06T09:21:21Z</time>
      </trkpt>
      <trkpt lat="46.25076" lon="6.55423">
        <ele>1166.22</ele>
        <time>2019-02-06T09:21:32Z</time>
      </trkpt>
      <trkpt lat="46.25076" lon="6.55425">
        <ele>1166.7</ele>
        <time>2019-02-06T09:21:35Z</time>
      </trkpt>
      <trkpt lat="46.25072" lon="6.55438">
        <ele>1168.14</ele>
        <time>2019-02-06T09:21:48Z</time>
      </trkpt>
      <trkpt lat="46.25072" lon="6.55448">
        <ele>1169.58</ele>
        <time>2019-02-06T09:21:58Z</time>
      </trkpt>
      <trkpt lat="46.25072" lon="6.5545">
        <ele>1169.58</ele>
        <time>2019-02-06T09:22:12Z</time>
      </trkpt>
      <trkpt lat="46.25069" lon="6.55461">
        <ele>1171.5</ele>
        <time>2019-02-06T09:22:25Z</time>
      </trkpt>
      <trkpt lat="46.25067" lon="6.55463">
        <ele>1172.47</ele>
        <time>2019-02-06T09:22:27Z</time>
      </trkpt>
      <trkpt lat="46.25067" lon="6.55466">
        <ele>1172.95</ele>
        <time>2019-02-06T09:22:30Z</time>
      </trkpt>
      <trkpt lat="46.25065" lon="6.55479">
        <ele>1174.87</ele>
        <time>2019-02-06T09:22:43Z</time>
      </trkpt>
      <trkpt lat="46.2506" lon="6.55489">
        <ele>1175.83</ele>
        <time>2019-02-06T09:22:54Z</time>
      </trkpt>
      <trkpt lat="46.25058" lon="6.55494">
        <ele>1176.79</ele>
        <time>2019-02-06T09:23:00Z</time>
      </trkpt>
      <trkpt lat="46.25056" lon="6.55498">
        <ele>1177.75</ele>
        <time>2019-02-06T09:23:17Z</time>
      </trkpt>
      <trkpt lat="46.25056" lon="6.55498">
        <ele>1177.75</ele>
        <time>2019-02-06T09:23:56Z</time>
      </trkpt>
      <trkpt lat="46.25055" lon="6.55497">
        <ele>1177.27</ele>
        <time>2019-02-06T09:24:40Z</time>
      </trkpt>
      <trkpt lat="46.25052" lon="6.55497">
        <ele>1177.75</ele>
        <time>2019-02-06T09:26:44Z</time>
      </trkpt>
      <trkpt lat="46.25049" lon="6.55505">
        <ele>1178.71</ele>
        <time>2019-02-06T09:26:56Z</time>
      </trkpt>
      <trkpt lat="46.25048" lon="6.55513">
        <ele>1181.12</ele>
        <time>2019-02-06T09:27:08Z</time>
      </trkpt>
      <trkpt lat="46.25044" lon="6.55519">
        <ele>1182.08</ele>
        <time>2019-02-06T09:27:18Z</time>
      </trkpt>
      <trkpt lat="46.25036" lon="6.55526">
        <ele>1184</ele>
        <time>2019-02-06T09:27:30Z</time>
      </trkpt>
      <trkpt lat="46.25033" lon="6.55531">
        <ele>1185.44</ele>
        <time>2019-02-06T09:27:40Z</time>
      </trkpt>
      <trkpt lat="46.25026" lon="6.55537">
        <ele>1186.4</ele>
        <time>2019-02-06T09:27:52Z</time>
      </trkpt>
      <trkpt lat="46.2502" lon="6.55542">
        <ele>1187.85</ele>
        <time>2019-02-06T09:28:04Z</time>
      </trkpt>
      <trkpt lat="46.25014" lon="6.55545">
        <ele>1189.29</ele>
        <time>2019-02-06T09:28:13Z</time>
      </trkpt>
      <trkpt lat="46.25009" lon="6.5555">
        <ele>1190.73</ele>
        <time>2019-02-06T09:28:23Z</time>
      </trkpt>
      <trkpt lat="46.25004" lon="6.55557">
        <ele>1191.69</ele>
        <time>2019-02-06T09:28:34Z</time>
      </trkpt>
      <trkpt lat="46.25" lon="6.55564">
        <ele>1193.13</ele>
        <time>2019-02-06T09:28:45Z</time>
      </trkpt>
      <trkpt lat="46.24999" lon="6.55565">
        <ele>1193.61</ele>
        <time>2019-02-06T09:28:58Z</time>
      </trkpt>
      <trkpt lat="46.24999" lon="6.55565">
        <ele>1194.58</ele>
        <time>2019-02-06T09:29:11Z</time>
      </trkpt>
      <trkpt lat="46.24999" lon="6.55566">
        <ele>1194.09</ele>
        <time>2019-02-06T09:29:27Z</time>
      </trkpt>
      <trkpt lat="46.24999" lon="6.55567">
        <ele>1194.58</ele>
        <time>2019-02-06T09:30:07Z</time>
      </trkpt>
      <trkpt lat="46.24998" lon="6.55567">
        <ele>1195.06</ele>
        <time>2019-02-06T09:30:42Z</time>
      </trkpt>
      <trkpt lat="46.24997" lon="6.55568">
        <ele>1195.06</ele>
        <time>2019-02-06T09:31:09Z</time>
      </trkpt>
      <trkpt lat="46.24997" lon="6.55568">
        <ele>1195.54</ele>
        <time>2019-02-06T09:31:17Z</time>
      </trkpt>
      <trkpt lat="46.24993" lon="6.55581">
        <ele>1196.98</ele>
        <time>2019-02-06T09:31:29Z</time>
      </trkpt>
      <trkpt lat="46.24992" lon="6.55585">
        <ele>1197.46</ele>
        <time>2019-02-06T09:31:33Z</time>
      </trkpt>
      <trkpt lat="46.24992" lon="6.55587">
        <ele>1196.98</ele>
        <time>2019-02-06T09:31:35Z</time>
      </trkpt>
      <trkpt lat="46.24987" lon="6.55599">
        <ele>1198.42</ele>
        <time>2019-02-06T09:31:46Z</time>
      </trkpt>
      <trkpt lat="46.24983" lon="6.5561">
        <ele>1199.38</ele>
        <time>2019-02-06T09:31:56Z</time>
      </trkpt>
      <trkpt lat="46.24982" lon="6.55614">
        <ele>1199.86</ele>
        <time>2019-02-06T09:32:01Z</time>
      </trkpt>
      <trkpt lat="46.24976" lon="6.55625">
        <ele>1200.82</ele>
        <time>2019-02-06T09:32:13Z</time>
      </trkpt>
      <trkpt lat="46.24969" lon="6.55634">
        <ele>1201.79</ele>
        <time>2019-02-06T09:32:23Z</time>
      </trkpt>
      <trkpt lat="46.24963" lon="6.55646">
        <ele>1202.75</ele>
        <time>2019-02-06T09:32:33Z</time>
      </trkpt>
      <trkpt lat="46.24958" lon="6.55657">
        <ele>1203.23</ele>
        <time>2019-02-06T09:32:45Z</time>
      </trkpt>
      <trkpt lat="46.24955" lon="6.5566">
        <ele>1203.23</ele>
        <time>2019-02-06T09:32:49Z</time>
      </trkpt>
      <trkpt lat="46.24951" lon="6.55663">
        <ele>1204.67</ele>
        <time>2019-02-06T09:32:57Z</time>
      </trkpt>
      <trkpt lat="46.24949" lon="6.55665">
        <ele>1204.67</ele>
        <time>2019-02-06T09:33:00Z</time>
      </trkpt>
      <trkpt lat="46.2494" lon="6.55674">
        <ele>1205.15</ele>
        <time>2019-02-06T09:33:11Z</time>
      </trkpt>
      <trkpt lat="46.24934" lon="6.55679">
        <ele>1206.11</ele>
        <time>2019-02-06T09:33:17Z</time>
      </trkpt>
      <trkpt lat="46.24933" lon="6.55683">
        <ele>1205.63</ele>
        <time>2019-02-06T09:33:20Z</time>
      </trkpt>
      <trkpt lat="46.24931" lon="6.55696">
        <ele>1206.59</ele>
        <time>2019-02-06T09:33:32Z</time>
      </trkpt>
      <trkpt lat="46.24928" lon="6.55703">
        <ele>1207.55</ele>
        <time>2019-02-06T09:33:38Z</time>
      </trkpt>
      <trkpt lat="46.24925" lon="6.55709">
        <ele>1208.03</ele>
        <time>2019-02-06T09:33:46Z</time>
      </trkpt>
      <trkpt lat="46.24924" lon="6.55712">
        <ele>1208.03</ele>
        <time>2019-02-06T09:33:48Z</time>
      </trkpt>
      <trkpt lat="46.24921" lon="6.55725">
        <ele>1209</ele>
        <time>2019-02-06T09:34:00Z</time>
      </trkpt>
      <trkpt lat="46.24919" lon="6.55727">
        <ele>1209</ele>
        <time>2019-02-06T09:34:03Z</time>
      </trkpt>
      <trkpt lat="46.24912" lon="6.55741">
        <ele>1209.48</ele>
        <time>2019-02-06T09:34:15Z</time>
      </trkpt>
      <trkpt lat="46.24909" lon="6.5575">
        <ele>1210.92</ele>
        <time>2019-02-06T09:34:23Z</time>
      </trkpt>
      <trkpt lat="46.24906" lon="6.55758">
        <ele>1210.44</ele>
        <time>2019-02-06T09:34:30Z</time>
      </trkpt>
      <trkpt lat="46.24904" lon="6.55761">
        <ele>1211.88</ele>
        <time>2019-02-06T09:34:34Z</time>
      </trkpt>
      <trkpt lat="46.24901" lon="6.5577">
        <ele>1212.84</ele>
        <time>2019-02-06T09:34:44Z</time>
      </trkpt>
      <trkpt lat="46.24897" lon="6.55777">
        <ele>1213.32</ele>
        <time>2019-02-06T09:34:52Z</time>
      </trkpt>
      <trkpt lat="46.2489" lon="6.55787">
        <ele>1214.76</ele>
        <time>2019-02-06T09:35:05Z</time>
      </trkpt>
      <trkpt lat="46.24888" lon="6.55788">
        <ele>1215.72</ele>
        <time>2019-02-06T09:35:18Z</time>
      </trkpt>
      <trkpt lat="46.24888" lon="6.55788">
        <ele>1215.72</ele>
        <time>2019-02-06T09:36:16Z</time>
      </trkpt>
      <trkpt lat="46.24881" lon="6.55786">
        <ele>1216.69</ele>
        <time>2019-02-06T09:37:27Z</time>
      </trkpt>
      <trkpt lat="46.24878" lon="6.55776">
        <ele>1217.65</ele>
        <time>2019-02-06T09:38:23Z</time>
      </trkpt>
      <trkpt lat="46.24876" lon="6.55764">
        <ele>1217.17</ele>
        <time>2019-02-06T09:38:35Z</time>
      </trkpt>
      <trkpt lat="46.24875" lon="6.55763">
        <ele>1217.65</ele>
        <time>2019-02-06T09:38:36Z</time>
      </trkpt>
      <trkpt lat="46.24871" lon="6.55752">
        <ele>1217.17</ele>
        <time>2019-02-06T09:38:47Z</time>
      </trkpt>
      <trkpt lat="46.24869" lon="6.5574">
        <ele>1217.65</ele>
        <time>2019-02-06T09:38:58Z</time>
      </trkpt>
      <trkpt lat="46.24866" lon="6.55726">
        <ele>1217.65</ele>
        <time>2019-02-06T09:39:10Z</time>
      </trkpt>
      <trkpt lat="46.24866" lon="6.5572">
        <ele>1217.65</ele>
        <time>2019-02-06T09:39:15Z</time>
      </trkpt>
      <trkpt lat="46.24862" lon="6.55704">
        <ele>1217.65</ele>
        <time>2019-02-06T09:39:29Z</time>
      </trkpt>
      <trkpt lat="46.24861" lon="6.55692">
        <ele>1217.65</ele>
        <time>2019-02-06T09:39:39Z</time>
      </trkpt>
      <trkpt lat="46.2486" lon="6.55678">
        <ele>1216.69</ele>
        <time>2019-02-06T09:39:50Z</time>
      </trkpt>
      <trkpt lat="46.24859" lon="6.55665">
        <ele>1217.17</ele>
        <time>2019-02-06T09:40:00Z</time>
      </trkpt>
      <trkpt lat="46.24858" lon="6.55663">
        <ele>1216.69</ele>
        <time>2019-02-06T09:40:02Z</time>
      </trkpt>
      <trkpt lat="46.2486" lon="6.55651">
        <ele>1216.69</ele>
        <time>2019-02-06T09:40:13Z</time>
      </trkpt>
      <trkpt lat="46.24859" lon="6.5564">
        <ele>1217.65</ele>
        <time>2019-02-06T09:40:24Z</time>
      </trkpt>
      <trkpt lat="46.24861" lon="6.55628">
        <ele>1218.61</ele>
        <time>2019-02-06T09:40:36Z</time>
      </trkpt>
      <trkpt lat="46.24861" lon="6.55614">
        <ele>1219.57</ele>
        <time>2019-02-06T09:40:49Z</time>
      </trkpt>
      <trkpt lat="46.24862" lon="6.55603">
        <ele>1221.01</ele>
        <time>2019-02-06T09:41:02Z</time>
      </trkpt>
      <trkpt lat="46.24866" lon="6.55595">
        <ele>1222.45</ele>
        <time>2019-02-06T09:41:13Z</time>
      </trkpt>
      <trkpt lat="46.24866" lon="6.55586">
        <ele>1224.38</ele>
        <time>2019-02-06T09:41:23Z</time>
      </trkpt>
      <trkpt lat="46.24866" lon="6.55585">
        <ele>1224.86</ele>
        <time>2019-02-06T09:41:38Z</time>
      </trkpt>
      <trkpt lat="46.24866" lon="6.55586">
        <ele>1224.38</ele>
        <time>2019-02-06T09:41:57Z</time>
      </trkpt>
      <trkpt lat="46.24866" lon="6.55585">
        <ele>1224.86</ele>
        <time>2019-02-06T09:42:41Z</time>
      </trkpt>
      <trkpt lat="46.24863" lon="6.55581">
        <ele>1225.34</ele>
        <time>2019-02-06T09:43:24Z</time>
      </trkpt>
      <trkpt lat="46.24862" lon="6.5558">
        <ele>1225.82</ele>
        <time>2019-02-06T09:43:26Z</time>
      </trkpt>
      <trkpt lat="46.24863" lon="6.5557">
        <ele>1227.26</ele>
        <time>2019-02-06T09:43:36Z</time>
      </trkpt>
      <trkpt lat="46.24864" lon="6.55569">
        <ele>1227.26</ele>
        <time>2019-02-06T09:43:37Z</time>
      </trkpt>
      <trkpt lat="46.24859" lon="6.5556">
        <ele>1228.7</ele>
        <time>2019-02-06T09:43:48Z</time>
      </trkpt>
      <trkpt lat="46.24857" lon="6.55556">
        <ele>1230.62</ele>
        <time>2019-02-06T09:43:55Z</time>
      </trkpt>
      <trkpt lat="46.24855" lon="6.5555">
        <ele>1231.11</ele>
        <time>2019-02-06T09:44:04Z</time>
      </trkpt>
      <trkpt lat="46.24852" lon="6.5554">
        <ele>1232.07</ele>
        <time>2019-02-06T09:44:15Z</time>
      </trkpt>
      <trkpt lat="46.24847" lon="6.55533">
        <ele>1233.99</ele>
        <time>2019-02-06T09:44:28Z</time>
      </trkpt>
      <trkpt lat="46.24844" lon="6.55527">
        <ele>1235.91</ele>
        <time>2019-02-06T09:44:39Z</time>
      </trkpt>
      <trkpt lat="46.24842" lon="6.55522">
        <ele>1237.35</ele>
        <time>2019-02-06T09:44:50Z</time>
      </trkpt>
      <trkpt lat="46.24839" lon="6.55512">
        <ele>1237.83</ele>
        <time>2019-02-06T09:45:00Z</time>
      </trkpt>
      <trkpt lat="46.24836" lon="6.55505">
        <ele>1238.8</ele>
        <time>2019-02-06T09:45:10Z</time>
      </trkpt>
      <trkpt lat="46.2483" lon="6.55493">
        <ele>1240.24</ele>
        <time>2019-02-06T09:45:22Z</time>
      </trkpt>
      <trkpt lat="46.24827" lon="6.55485">
        <ele>1240.24</ele>
        <time>2019-02-06T09:45:29Z</time>
      </trkpt>
      <trkpt lat="46.24825" lon="6.55474">
        <ele>1241.2</ele>
        <time>2019-02-06T09:45:40Z</time>
      </trkpt>
      <trkpt lat="46.24824" lon="6.55464">
        <ele>1241.68</ele>
        <time>2019-02-06T09:45:52Z</time>
      </trkpt>
      <trkpt lat="46.2482" lon="6.55457">
        <ele>1242.64</ele>
        <time>2019-02-06T09:46:04Z</time>
      </trkpt>
      <trkpt lat="46.24818" lon="6.55449">
        <ele>1243.6</ele>
        <time>2019-02-06T09:46:15Z</time>
      </trkpt>
      <trkpt lat="46.24813" lon="6.55439">
        <ele>1243.6</ele>
        <time>2019-02-06T09:46:25Z</time>
      </trkpt>
      <trkpt lat="46.2481" lon="6.55425">
        <ele>1245.53</ele>
        <time>2019-02-06T09:46:36Z</time>
      </trkpt>
      <trkpt lat="46.24804" lon="6.55413">
        <ele>1245.53</ele>
        <time>2019-02-06T09:46:48Z</time>
      </trkpt>
      <trkpt lat="46.24804" lon="6.55412">
        <ele>1245.53</ele>
        <time>2019-02-06T09:46:49Z</time>
      </trkpt>
      <trkpt lat="46.24802" lon="6.55411">
        <ele>1245.04</ele>
        <time>2019-02-06T09:46:51Z</time>
      </trkpt>
      <trkpt lat="46.24799" lon="6.55401">
        <ele>1246.49</ele>
        <time>2019-02-06T09:47:02Z</time>
      </trkpt>
      <trkpt lat="46.24796" lon="6.55395">
        <ele>1246.49</ele>
        <time>2019-02-06T09:47:14Z</time>
      </trkpt>
      <trkpt lat="46.24795" lon="6.55396">
        <ele>1246.97</ele>
        <time>2019-02-06T09:47:36Z</time>
      </trkpt>
      <trkpt lat="46.24796" lon="6.55396">
        <ele>1247.45</ele>
        <time>2019-02-06T09:49:34Z</time>
      </trkpt>
      <trkpt lat="46.24792" lon="6.55392">
        <ele>1247.93</ele>
        <time>2019-02-06T09:49:45Z</time>
      </trkpt>
      <trkpt lat="46.24787" lon="6.55388">
        <ele>1249.85</ele>
        <time>2019-02-06T09:49:55Z</time>
      </trkpt>
      <trkpt lat="46.24785" lon="6.55387">
        <ele>1250.81</ele>
        <time>2019-02-06T09:50:00Z</time>
      </trkpt>
      <trkpt lat="46.24782" lon="6.55385">
        <ele>1251.29</ele>
        <time>2019-02-06T09:50:05Z</time>
      </trkpt>
      <trkpt lat="46.24779" lon="6.55383">
        <ele>1251.77</ele>
        <time>2019-02-06T09:50:09Z</time>
      </trkpt>
      <trkpt lat="46.2477" lon="6.55383">
        <ele>1253.22</ele>
        <time>2019-02-06T09:50:22Z</time>
      </trkpt>
      <trkpt lat="46.24766" lon="6.55385">
        <ele>1255.14</ele>
        <time>2019-02-06T09:50:32Z</time>
      </trkpt>
      <trkpt lat="46.24764" lon="6.55384">
        <ele>1255.62</ele>
        <time>2019-02-06T09:50:35Z</time>
      </trkpt>
      <trkpt lat="46.24758" lon="6.55385">
        <ele>1256.58</ele>
        <time>2019-02-06T09:50:44Z</time>
      </trkpt>
      <trkpt lat="46.24753" lon="6.55382">
        <ele>1258.02</ele>
        <time>2019-02-06T09:50:57Z</time>
      </trkpt>
      <trkpt lat="46.24748" lon="6.5538">
        <ele>1260.43</ele>
        <time>2019-02-06T09:51:10Z</time>
      </trkpt>
      <trkpt lat="46.24744" lon="6.55373">
        <ele>1261.87</ele>
        <time>2019-02-06T09:51:22Z</time>
      </trkpt>
      <trkpt lat="46.24741" lon="6.55369">
        <ele>1262.83</ele>
        <time>2019-02-06T09:51:32Z</time>
      </trkpt>
      <trkpt lat="46.24738" lon="6.55364">
        <ele>1264.75</ele>
        <time>2019-02-06T09:51:43Z</time>
      </trkpt>
      <trkpt lat="46.24731" lon="6.55361">
        <ele>1267.16</ele>
        <time>2019-02-06T09:51:57Z</time>
      </trkpt>
      <trkpt lat="46.24727" lon="6.55353">
        <ele>1268.12</ele>
        <time>2019-02-06T09:52:10Z</time>
      </trkpt>
      <trkpt lat="46.24719" lon="6.55352">
        <ele>1270.04</ele>
        <time>2019-02-06T09:52:22Z</time>
      </trkpt>
      <trkpt lat="46.24712" lon="6.55351">
        <ele>1271.96</ele>
        <time>2019-02-06T09:52:35Z</time>
      </trkpt>
      <trkpt lat="46.2471" lon="6.55351">
        <ele>1272.92</ele>
        <time>2019-02-06T09:52:49Z</time>
      </trkpt>
      <trkpt lat="46.24708" lon="6.5535">
        <ele>1273.88</ele>
        <time>2019-02-06T09:52:59Z</time>
      </trkpt>
      <trkpt lat="46.24705" lon="6.55347">
        <ele>1275.33</ele>
        <time>2019-02-06T09:53:10Z</time>
      </trkpt>
      <trkpt lat="46.24699" lon="6.55347">
        <ele>1277.73</ele>
        <time>2019-02-06T09:53:29Z</time>
      </trkpt>
      <trkpt lat="46.24692" lon="6.55347">
        <ele>1279.65</ele>
        <time>2019-02-06T09:53:42Z</time>
      </trkpt>
      <trkpt lat="46.24688" lon="6.55351">
        <ele>1281.57</ele>
        <time>2019-02-06T09:53:55Z</time>
      </trkpt>
      <trkpt lat="46.24684" lon="6.55352">
        <ele>1282.54</ele>
        <time>2019-02-06T09:54:07Z</time>
      </trkpt>
      <trkpt lat="46.24678" lon="6.55353">
        <ele>1284.94</ele>
        <time>2019-02-06T09:54:20Z</time>
      </trkpt>
      <trkpt lat="46.24672" lon="6.55355">
        <ele>1285.9</ele>
        <time>2019-02-06T09:54:25Z</time>
      </trkpt>
      <trkpt lat="46.24665" lon="6.55359">
        <ele>1286.86</ele>
        <time>2019-02-06T09:54:40Z</time>
      </trkpt>
      <trkpt lat="46.24666" lon="6.55358">
        <ele>1286.86</ele>
        <time>2019-02-06T09:55:08Z</time>
      </trkpt>
      <trkpt lat="46.24668" lon="6.55359">
        <ele>1286.86</ele>
        <time>2019-02-06T09:56:17Z</time>
      </trkpt>
      <trkpt lat="46.24668" lon="6.55358">
        <ele>1288.78</ele>
        <time>2019-02-06T09:57:42Z</time>
      </trkpt>
      <trkpt lat="46.24669" lon="6.55358">
        <ele>1289.27</ele>
        <time>2019-02-06T09:58:16Z</time>
      </trkpt>
      <trkpt lat="46.24665" lon="6.55356">
        <ele>1290.71</ele>
        <time>2019-02-06T09:59:00Z</time>
      </trkpt>
      <trkpt lat="46.24662" lon="6.55354">
        <ele>1293.11</ele>
        <time>2019-02-06T09:59:14Z</time>
      </trkpt>
      <trkpt lat="46.24657" lon="6.55351">
        <ele>1294.55</ele>
        <time>2019-02-06T09:59:23Z</time>
      </trkpt>
      <trkpt lat="46.24655" lon="6.55348">
        <ele>1295.51</ele>
        <time>2019-02-06T09:59:33Z</time>
      </trkpt>
      <trkpt lat="46.24653" lon="6.55345">
        <ele>1298.4</ele>
        <time>2019-02-06T09:59:47Z</time>
      </trkpt>
      <trkpt lat="46.24647" lon="6.55341">
        <ele>1300.32</ele>
        <time>2019-02-06T09:59:57Z</time>
      </trkpt>
      <trkpt lat="46.24641" lon="6.55339">
        <ele>1301.76</ele>
        <time>2019-02-06T10:00:07Z</time>
      </trkpt>
      <trkpt lat="46.24633" lon="6.55336">
        <ele>1303.69</ele>
        <time>2019-02-06T10:00:19Z</time>
      </trkpt>
      <trkpt lat="46.2463" lon="6.55333">
        <ele>1305.13</ele>
        <time>2019-02-06T10:00:33Z</time>
      </trkpt>
      <trkpt lat="46.2463" lon="6.5533">
        <ele>1307.53</ele>
        <time>2019-02-06T10:00:43Z</time>
      </trkpt>
      <trkpt lat="46.24621" lon="6.55326">
        <ele>1309.45</ele>
        <time>2019-02-06T10:00:54Z</time>
      </trkpt>
      <trkpt lat="46.24619" lon="6.55323">
        <ele>1310.41</ele>
        <time>2019-02-06T10:01:04Z</time>
      </trkpt>
      <trkpt lat="46.24613" lon="6.5532">
        <ele>1311.38</ele>
        <time>2019-02-06T10:01:13Z</time>
      </trkpt>
      <trkpt lat="46.2461" lon="6.55314">
        <ele>1313.3</ele>
        <time>2019-02-06T10:01:24Z</time>
      </trkpt>
      <trkpt lat="46.2461" lon="6.55311">
        <ele>1313.78</ele>
        <time>2019-02-06T10:01:28Z</time>
      </trkpt>
      <trkpt lat="46.24608" lon="6.55308">
        <ele>1315.22</ele>
        <time>2019-02-06T10:01:38Z</time>
      </trkpt>
      <trkpt lat="46.24606" lon="6.55303">
        <ele>1315.7</ele>
        <time>2019-02-06T10:01:44Z</time>
      </trkpt>
      <trkpt lat="46.24603" lon="6.55297">
        <ele>1317.14</ele>
        <time>2019-02-06T10:01:57Z</time>
      </trkpt>
      <trkpt lat="46.24603" lon="6.55291">
        <ele>1318.59</ele>
        <time>2019-02-06T10:02:06Z</time>
      </trkpt>
      <trkpt lat="46.24601" lon="6.55284">
        <ele>1319.55</ele>
        <time>2019-02-06T10:02:14Z</time>
      </trkpt>
      <trkpt lat="46.24608" lon="6.55274">
        <ele>1321.47</ele>
        <time>2019-02-06T10:02:25Z</time>
      </trkpt>
      <trkpt lat="46.24608" lon="6.55271">
        <ele>1321.95</ele>
        <time>2019-02-06T10:02:33Z</time>
      </trkpt>
      <trkpt lat="46.2461" lon="6.55268">
        <ele>1322.91</ele>
        <time>2019-02-06T10:02:43Z</time>
      </trkpt>
      <trkpt lat="46.24617" lon="6.5526">
        <ele>1323.39</ele>
        <time>2019-02-06T10:02:53Z</time>
      </trkpt>
      <trkpt lat="46.2462" lon="6.5525">
        <ele>1322.91</ele>
        <time>2019-02-06T10:03:02Z</time>
      </trkpt>
      <trkpt lat="46.2462" lon="6.55249">
        <ele>1322.43</ele>
        <time>2019-02-06T10:03:03Z</time>
      </trkpt>
      <trkpt lat="46.24621" lon="6.55236">
        <ele>1322.43</ele>
        <time>2019-02-06T10:03:14Z</time>
      </trkpt>
      <trkpt lat="46.2462" lon="6.55231">
        <ele>1323.39</ele>
        <time>2019-02-06T10:03:21Z</time>
      </trkpt>
      <trkpt lat="46.24621" lon="6.55227">
        <ele>1323.87</ele>
        <time>2019-02-06T10:03:24Z</time>
      </trkpt>
      <trkpt lat="46.24623" lon="6.5522">
        <ele>1323.39</ele>
        <time>2019-02-06T10:03:30Z</time>
      </trkpt>
      <trkpt lat="46.24626" lon="6.55215">
        <ele>1324.35</ele>
        <time>2019-02-06T10:03:36Z</time>
      </trkpt>
      <trkpt lat="46.24627" lon="6.55209">
        <ele>1325.8</ele>
        <time>2019-02-06T10:03:47Z</time>
      </trkpt>
      <trkpt lat="46.24627" lon="6.55206">
        <ele>1326.28</ele>
        <time>2019-02-06T10:03:53Z</time>
      </trkpt>
      <trkpt lat="46.24625" lon="6.55203">
        <ele>1327.24</ele>
        <time>2019-02-06T10:04:00Z</time>
      </trkpt>
      <trkpt lat="46.24624" lon="6.55199">
        <ele>1327.72</ele>
        <time>2019-02-06T10:04:09Z</time>
      </trkpt>
      <trkpt lat="46.24622" lon="6.55199">
        <ele>1330.12</ele>
        <time>2019-02-06T10:04:20Z</time>
      </trkpt>
      <trkpt lat="46.24618" lon="6.55198">
        <ele>1331.56</ele>
        <time>2019-02-06T10:04:29Z</time>
      </trkpt>
      <trkpt lat="46.24617" lon="6.55198">
        <ele>1333.01</ele>
        <time>2019-02-06T10:04:38Z</time>
      </trkpt>
      <trkpt lat="46.24615" lon="6.55197">
        <ele>1334.93</ele>
        <time>2019-02-06T10:04:51Z</time>
      </trkpt>
      <trkpt lat="46.24615" lon="6.55197">
        <ele>1335.89</ele>
        <time>2019-02-06T10:05:04Z</time>
      </trkpt>
      <trkpt lat="46.24609" lon="6.55195">
        <ele>1337.33</ele>
        <time>2019-02-06T10:05:15Z</time>
      </trkpt>
      <trkpt lat="46.24605" lon="6.55197">
        <ele>1337.81</ele>
        <time>2019-02-06T10:05:27Z</time>
      </trkpt>
      <trkpt lat="46.24605" lon="6.55197">
        <ele>1337.81</ele>
        <time>2019-02-06T10:06:10Z</time>
      </trkpt>
      <trkpt lat="46.24604" lon="6.55197">
        <ele>1337.81</ele>
        <time>2019-02-06T10:06:47Z</time>
      </trkpt>
      <trkpt lat="46.24603" lon="6.55194">
        <ele>1337.81</ele>
        <time>2019-02-06T10:08:35Z</time>
      </trkpt>
      <trkpt lat="46.24603" lon="6.55194">
        <ele>1337.81</ele>
        <time>2019-02-06T10:09:26Z</time>
      </trkpt>
      <trkpt lat="46.24602" lon="6.55194">
        <ele>1337.81</ele>
        <time>2019-02-06T10:10:09Z</time>
      </trkpt>
      <trkpt lat="46.24594" lon="6.55192">
        <ele>1338.77</ele>
        <time>2019-02-06T10:10:48Z</time>
      </trkpt>
      <trkpt lat="46.24591" lon="6.55192">
        <ele>1339.25</ele>
        <time>2019-02-06T10:10:54Z</time>
      </trkpt>
      <trkpt lat="46.24587" lon="6.55193">
        <ele>1340.22</ele>
        <time>2019-02-06T10:11:05Z</time>
      </trkpt>
      <trkpt lat="46.24585" lon="6.55193">
        <ele>1341.66</ele>
        <time>2019-02-06T10:11:09Z</time>
      </trkpt>
      <trkpt lat="46.24579" lon="6.55192">
        <ele>1343.1</ele>
        <time>2019-02-06T10:11:21Z</time>
      </trkpt>
      <trkpt lat="46.24574" lon="6.55193">
        <ele>1345.02</ele>
        <time>2019-02-06T10:11:36Z</time>
      </trkpt>
      <trkpt lat="46.24571" lon="6.55193">
        <ele>1346.46</ele>
        <time>2019-02-06T10:11:44Z</time>
      </trkpt>
      <trkpt lat="46.24565" lon="6.55194">
        <ele>1346.94</ele>
        <time>2019-02-06T10:11:53Z</time>
      </trkpt>
      <trkpt lat="46.2456" lon="6.55197">
        <ele>1348.87</ele>
        <time>2019-02-06T10:12:03Z</time>
      </trkpt>
      <trkpt lat="46.24558" lon="6.55197">
        <ele>1348.87</ele>
        <time>2019-02-06T10:12:06Z</time>
      </trkpt>
      <trkpt lat="46.24555" lon="6.55198">
        <ele>1350.31</ele>
        <time>2019-02-06T10:12:14Z</time>
      </trkpt>
      <trkpt lat="46.24553" lon="6.55201">
        <ele>1351.27</ele>
        <time>2019-02-06T10:12:22Z</time>
      </trkpt>
      <trkpt lat="46.24547" lon="6.55207">
        <ele>1352.71</ele>
        <time>2019-02-06T10:12:31Z</time>
      </trkpt>
      <trkpt lat="46.24544" lon="6.55211">
        <ele>1354.15</ele>
        <time>2019-02-06T10:12:39Z</time>
      </trkpt>
      <trkpt lat="46.24544" lon="6.55213">
        <ele>1355.12</ele>
        <time>2019-02-06T10:12:49Z</time>
      </trkpt>
      <trkpt lat="46.24539" lon="6.55217">
        <ele>1356.56</ele>
        <time>2019-02-06T10:12:58Z</time>
      </trkpt>
      <trkpt lat="46.24535" lon="6.55212">
        <ele>1358</ele>
        <time>2019-02-06T10:13:08Z</time>
      </trkpt>
      <trkpt lat="46.24531" lon="6.55204">
        <ele>1359.92</ele>
        <time>2019-02-06T10:13:19Z</time>
      </trkpt>
      <trkpt lat="46.24531" lon="6.55197">
        <ele>1361.36</ele>
        <time>2019-02-06T10:13:30Z</time>
      </trkpt>
      <trkpt lat="46.24529" lon="6.5519">
        <ele>1362.33</ele>
        <time>2019-02-06T10:13:41Z</time>
      </trkpt>
      <trkpt lat="46.24526" lon="6.55184">
        <ele>1364.25</ele>
        <time>2019-02-06T10:13:54Z</time>
      </trkpt>
      <trkpt lat="46.24526" lon="6.55183">
        <ele>1364.73</ele>
        <time>2019-02-06T10:13:57Z</time>
      </trkpt>
      <trkpt lat="46.24524" lon="6.55172">
        <ele>1365.69</ele>
        <time>2019-02-06T10:14:09Z</time>
      </trkpt>
      <trkpt lat="46.24526" lon="6.55163">
        <ele>1366.65</ele>
        <time>2019-02-06T10:14:20Z</time>
      </trkpt>
      <trkpt lat="46.24522" lon="6.55151">
        <ele>1367.61</ele>
        <time>2019-02-06T10:14:31Z</time>
      </trkpt>
      <trkpt lat="46.24519" lon="6.55144">
        <ele>1369.05</ele>
        <time>2019-02-06T10:14:43Z</time>
      </trkpt>
      <trkpt lat="46.24516" lon="6.55141">
        <ele>1370.98</ele>
        <time>2019-02-06T10:14:53Z</time>
      </trkpt>
      <trkpt lat="46.24514" lon="6.55141">
        <ele>1371.94</ele>
        <time>2019-02-06T10:15:08Z</time>
      </trkpt>
      <trkpt lat="46.24513" lon="6.55141">
        <ele>1371.46</ele>
        <time>2019-02-06T10:16:03Z</time>
      </trkpt>
      <trkpt lat="46.24511" lon="6.55139">
        <ele>1370.5</ele>
        <time>2019-02-06T10:16:20Z</time>
      </trkpt>
      <trkpt lat="46.24511" lon="6.55139">
        <ele>1370.98</ele>
        <time>2019-02-06T10:17:13Z</time>
      </trkpt>
      <trkpt lat="46.24511" lon="6.55139">
        <ele>1370.98</ele>
        <time>2019-02-06T10:18:08Z</time>
      </trkpt>
      <trkpt lat="46.24511" lon="6.5514">
        <ele>1371.46</ele>
        <time>2019-02-06T10:18:38Z</time>
      </trkpt>
      <trkpt lat="46.24511" lon="6.5514">
        <ele>1371.94</ele>
        <time>2019-02-06T10:19:03Z</time>
      </trkpt>
      <trkpt lat="46.2451" lon="6.5514">
        <ele>1371.94</ele>
        <time>2019-02-06T10:20:04Z</time>
      </trkpt>
      <trkpt lat="46.24509" lon="6.5514">
        <ele>1371.94</ele>
        <time>2019-02-06T10:22:34Z</time>
      </trkpt>
      <trkpt lat="46.24509" lon="6.55139">
        <ele>1371.94</ele>
        <time>2019-02-06T10:24:05Z</time>
      </trkpt>
      <trkpt lat="46.24507" lon="6.55139">
        <ele>1372.42</ele>
        <time>2019-02-06T10:28:01Z</time>
      </trkpt>
      <trkpt lat="46.24504" lon="6.55148">
        <ele>1372.9</ele>
        <time>2019-02-06T10:28:16Z</time>
      </trkpt>
      <trkpt lat="46.24502" lon="6.55156">
        <ele>1373.86</ele>
        <time>2019-02-06T10:28:25Z</time>
      </trkpt>
      <trkpt lat="46.245" lon="6.55161">
        <ele>1375.3</ele>
        <time>2019-02-06T10:28:36Z</time>
      </trkpt>
      <trkpt lat="46.24498" lon="6.55163">
        <ele>1375.3</ele>
        <time>2019-02-06T10:28:40Z</time>
      </trkpt>
      <trkpt lat="46.24497" lon="6.55172">
        <ele>1377.23</ele>
        <time>2019-02-06T10:28:51Z</time>
      </trkpt>
      <trkpt lat="46.24495" lon="6.55181">
        <ele>1378.19</ele>
        <time>2019-02-06T10:29:02Z</time>
      </trkpt>
      <trkpt lat="46.24492" lon="6.55194">
        <ele>1377.23</ele>
        <time>2019-02-06T10:29:14Z</time>
      </trkpt>
      <trkpt lat="46.24491" lon="6.55206">
        <ele>1377.71</ele>
        <time>2019-02-06T10:29:25Z</time>
      </trkpt>
      <trkpt lat="46.24488" lon="6.55225">
        <ele>1377.71</ele>
        <time>2019-02-06T10:29:39Z</time>
      </trkpt>
      <trkpt lat="46.24487" lon="6.55233">
        <ele>1378.67</ele>
        <time>2019-02-06T10:29:47Z</time>
      </trkpt>
      <trkpt lat="46.24485" lon="6.55244">
        <ele>1379.15</ele>
        <time>2019-02-06T10:29:59Z</time>
      </trkpt>
      <trkpt lat="46.24485" lon="6.55247">
        <ele>1380.59</ele>
        <time>2019-02-06T10:30:01Z</time>
      </trkpt>
      <trkpt lat="46.24483" lon="6.55256">
        <ele>1381.07</ele>
        <time>2019-02-06T10:30:12Z</time>
      </trkpt>
      <trkpt lat="46.24479" lon="6.55263">
        <ele>1382.51</ele>
        <time>2019-02-06T10:30:24Z</time>
      </trkpt>
      <trkpt lat="46.24474" lon="6.55271">
        <ele>1384.92</ele>
        <time>2019-02-06T10:30:38Z</time>
      </trkpt>
      <trkpt lat="46.2447" lon="6.55278">
        <ele>1385.88</ele>
        <time>2019-02-06T10:30:49Z</time>
      </trkpt>
      <trkpt lat="46.24464" lon="6.55287">
        <ele>1386.36</ele>
        <time>2019-02-06T10:31:01Z</time>
      </trkpt>
      <trkpt lat="46.24461" lon="6.55294">
        <ele>1387.8</ele>
        <time>2019-02-06T10:31:11Z</time>
      </trkpt>
      <trkpt lat="46.24458" lon="6.55301">
        <ele>1389.72</ele>
        <time>2019-02-06T10:31:24Z</time>
      </trkpt>
      <trkpt lat="46.24456" lon="6.55307">
        <ele>1390.2</ele>
        <time>2019-02-06T10:31:31Z</time>
      </trkpt>
      <trkpt lat="46.24451" lon="6.55314">
        <ele>1391.17</ele>
        <time>2019-02-06T10:31:42Z</time>
      </trkpt>
      <trkpt lat="46.2445" lon="6.55323">
        <ele>1392.61</ele>
        <time>2019-02-06T10:31:54Z</time>
      </trkpt>
      <trkpt lat="46.24447" lon="6.55334">
        <ele>1394.05</ele>
        <time>2019-02-06T10:32:06Z</time>
      </trkpt>
      <trkpt lat="46.24444" lon="6.55338">
        <ele>1395.01</ele>
        <time>2019-02-06T10:32:13Z</time>
      </trkpt>
      <trkpt lat="46.24445" lon="6.55347">
        <ele>1396.93</ele>
        <time>2019-02-06T10:32:26Z</time>
      </trkpt>
      <trkpt lat="46.24441" lon="6.55352">
        <ele>1397.89</ele>
        <time>2019-02-06T10:32:37Z</time>
      </trkpt>
      <trkpt lat="46.2444" lon="6.55356">
        <ele>1399.34</ele>
        <time>2019-02-06T10:32:43Z</time>
      </trkpt>
      <trkpt lat="46.24436" lon="6.55363">
        <ele>1400.3</ele>
        <time>2019-02-06T10:32:54Z</time>
      </trkpt>
      <trkpt lat="46.24434" lon="6.55368">
        <ele>1402.7</ele>
        <time>2019-02-06T10:33:05Z</time>
      </trkpt>
      <trkpt lat="46.24433" lon="6.5537">
        <ele>1402.7</ele>
        <time>2019-02-06T10:33:11Z</time>
      </trkpt>
      <trkpt lat="46.24433" lon="6.55371">
        <ele>1404.14</ele>
        <time>2019-02-06T10:33:21Z</time>
      </trkpt>
      <trkpt lat="46.24425" lon="6.5537">
        <ele>1406.07</ele>
        <time>2019-02-06T10:33:32Z</time>
      </trkpt>
      <trkpt lat="46.24418" lon="6.55368">
        <ele>1407.51</ele>
        <time>2019-02-06T10:33:47Z</time>
      </trkpt>
      <trkpt lat="46.24409" lon="6.55368">
        <ele>1408.95</ele>
        <time>2019-02-06T10:33:58Z</time>
      </trkpt>
      <trkpt lat="46.24402" lon="6.55372">
        <ele>1409.91</ele>
        <time>2019-02-06T10:34:11Z</time>
      </trkpt>
      <trkpt lat="46.24393" lon="6.55378">
        <ele>1410.87</ele>
        <time>2019-02-06T10:34:24Z</time>
      </trkpt>
      <trkpt lat="46.24385" lon="6.55384">
        <ele>1412.79</ele>
        <time>2019-02-06T10:34:38Z</time>
      </trkpt>
      <trkpt lat="46.24377" lon="6.55388">
        <ele>1413.76</ele>
        <time>2019-02-06T10:34:49Z</time>
      </trkpt>
      <trkpt lat="46.2437" lon="6.55396">
        <ele>1414.72</ele>
        <time>2019-02-06T10:35:02Z</time>
      </trkpt>
      <trkpt lat="46.24366" lon="6.55398">
        <ele>1414.72</ele>
        <time>2019-02-06T10:35:07Z</time>
      </trkpt>
      <trkpt lat="46.24356" lon="6.554">
        <ele>1414.24</ele>
        <time>2019-02-06T10:35:20Z</time>
      </trkpt>
      <trkpt lat="46.24351" lon="6.55399">
        <ele>1413.76</ele>
        <time>2019-02-06T10:35:32Z</time>
      </trkpt>
      <trkpt lat="46.2435" lon="6.55398">
        <ele>1414.24</ele>
        <time>2019-02-06T10:35:51Z</time>
      </trkpt>
      <trkpt lat="46.24351" lon="6.55398">
        <ele>1413.76</ele>
        <time>2019-02-06T10:36:25Z</time>
      </trkpt>
      <trkpt lat="46.24351" lon="6.55398">
        <ele>1413.76</ele>
        <time>2019-02-06T10:37:20Z</time>
      </trkpt>
      <trkpt lat="46.24349" lon="6.55396">
        <ele>1414.24</ele>
        <time>2019-02-06T10:38:36Z</time>
      </trkpt>
      <trkpt lat="46.24344" lon="6.55399">
        <ele>1414.24</ele>
        <time>2019-02-06T10:39:49Z</time>
      </trkpt>
      <trkpt lat="46.24339" lon="6.55403">
        <ele>1414.24</ele>
        <time>2019-02-06T10:39:59Z</time>
      </trkpt>
      <trkpt lat="46.24339" lon="6.55404">
        <ele>1414.24</ele>
        <time>2019-02-06T10:40:18Z</time>
      </trkpt>
      <trkpt lat="46.2433" lon="6.5541">
        <ele>1414.24</ele>
        <time>2019-02-06T10:40:30Z</time>
      </trkpt>
      <trkpt lat="46.24324" lon="6.55418">
        <ele>1413.28</ele>
        <time>2019-02-06T10:40:41Z</time>
      </trkpt>
      <trkpt lat="46.24314" lon="6.55422">
        <ele>1413.76</ele>
        <time>2019-02-06T10:40:53Z</time>
      </trkpt>
      <trkpt lat="46.24314" lon="6.55423">
        <ele>1413.76</ele>
        <time>2019-02-06T10:40:55Z</time>
      </trkpt>
      <trkpt lat="46.2431" lon="6.55432">
        <ele>1414.24</ele>
        <time>2019-02-06T10:41:06Z</time>
      </trkpt>
      <trkpt lat="46.24307" lon="6.55436">
        <ele>1414.72</ele>
        <time>2019-02-06T10:41:24Z</time>
      </trkpt>
      <trkpt lat="46.24306" lon="6.55441">
        <ele>1415.68</ele>
        <time>2019-02-06T10:41:36Z</time>
      </trkpt>
      <trkpt lat="46.24302" lon="6.55451">
        <ele>1415.68</ele>
        <time>2019-02-06T10:41:51Z</time>
      </trkpt>
      <trkpt lat="46.24296" lon="6.5546">
        <ele>1416.64</ele>
        <time>2019-02-06T10:42:03Z</time>
      </trkpt>
      <trkpt lat="46.24294" lon="6.55464">
        <ele>1416.64</ele>
        <time>2019-02-06T10:42:09Z</time>
      </trkpt>
      <trkpt lat="46.24287" lon="6.55477">
        <ele>1418.08</ele>
        <time>2019-02-06T10:42:23Z</time>
      </trkpt>
      <trkpt lat="46.24282" lon="6.5548">
        <ele>1419.52</ele>
        <time>2019-02-06T10:42:36Z</time>
      </trkpt>
      <trkpt lat="46.24271" lon="6.55479">
        <ele>1420</ele>
        <time>2019-02-06T10:42:49Z</time>
      </trkpt>
      <trkpt lat="46.24266" lon="6.55483">
        <ele>1420</ele>
        <time>2019-02-06T10:42:56Z</time>
      </trkpt>
      <trkpt lat="46.24262" lon="6.5549">
        <ele>1420.97</ele>
        <time>2019-02-06T10:43:03Z</time>
      </trkpt>
      <trkpt lat="46.2426" lon="6.55494">
        <ele>1420.97</ele>
        <time>2019-02-06T10:43:09Z</time>
      </trkpt>
      <trkpt lat="46.24255" lon="6.55501">
        <ele>1421.45</ele>
        <time>2019-02-06T10:43:21Z</time>
      </trkpt>
      <trkpt lat="46.2425" lon="6.55509">
        <ele>1421.93</ele>
        <time>2019-02-06T10:43:31Z</time>
      </trkpt>
      <trkpt lat="46.24247" lon="6.55517">
        <ele>1423.37</ele>
        <time>2019-02-06T10:43:43Z</time>
      </trkpt>
      <trkpt lat="46.24244" lon="6.55524">
        <ele>1425.29</ele>
        <time>2019-02-06T10:43:53Z</time>
      </trkpt>
      <trkpt lat="46.24238" lon="6.55531">
        <ele>1426.25</ele>
        <time>2019-02-06T10:44:06Z</time>
      </trkpt>
      <trkpt lat="46.24233" lon="6.5554">
        <ele>1427.7</ele>
        <time>2019-02-06T10:44:18Z</time>
      </trkpt>
      <trkpt lat="46.2423" lon="6.55542">
        <ele>1427.7</ele>
        <time>2019-02-06T10:44:21Z</time>
      </trkpt>
      <trkpt lat="46.24222" lon="6.55544">
        <ele>1428.18</ele>
        <time>2019-02-06T10:44:33Z</time>
      </trkpt>
      <trkpt lat="46.24216" lon="6.55543">
        <ele>1427.7</ele>
        <time>2019-02-06T10:44:45Z</time>
      </trkpt>
      <trkpt lat="46.24206" lon="6.55546">
        <ele>1426.73</ele>
        <time>2019-02-06T10:44:58Z</time>
      </trkpt>
      <trkpt lat="46.24197" lon="6.55551">
        <ele>1425.77</ele>
        <time>2019-02-06T10:45:09Z</time>
      </trkpt>
      <trkpt lat="46.24189" lon="6.55554">
        <ele>1425.77</ele>
        <time>2019-02-06T10:45:20Z</time>
      </trkpt>
      <trkpt lat="46.24182" lon="6.55558">
        <ele>1425.77</ele>
        <time>2019-02-06T10:45:29Z</time>
      </trkpt>
      <trkpt lat="46.24173" lon="6.55562">
        <ele>1425.29</ele>
        <time>2019-02-06T10:45:42Z</time>
      </trkpt>
      <trkpt lat="46.24172" lon="6.55562">
        <ele>1424.81</ele>
        <time>2019-02-06T10:45:43Z</time>
      </trkpt>
      <trkpt lat="46.24161" lon="6.55568">
        <ele>1424.81</ele>
        <time>2019-02-06T10:45:57Z</time>
      </trkpt>
      <trkpt lat="46.24154" lon="6.55571">
        <ele>1424.81</ele>
        <time>2019-02-06T10:46:09Z</time>
      </trkpt>
      <trkpt lat="46.2415" lon="6.55575">
        <ele>1423.85</ele>
        <time>2019-02-06T10:46:20Z</time>
      </trkpt>
      <trkpt lat="46.24144" lon="6.5558">
        <ele>1424.33</ele>
        <time>2019-02-06T10:46:30Z</time>
      </trkpt>
      <trkpt lat="46.2414" lon="6.55581">
        <ele>1423.85</ele>
        <time>2019-02-06T10:46:42Z</time>
      </trkpt>
      <trkpt lat="46.2414" lon="6.55581">
        <ele>1423.85</ele>
        <time>2019-02-06T10:47:03Z</time>
      </trkpt>
      <trkpt lat="46.2414" lon="6.5558">
        <ele>1423.37</ele>
        <time>2019-02-06T10:48:19Z</time>
      </trkpt>
      <trkpt lat="46.24138" lon="6.55582">
        <ele>1423.37</ele>
        <time>2019-02-06T10:50:05Z</time>
      </trkpt>
      <trkpt lat="46.24135" lon="6.55579">
        <ele>1422.89</ele>
        <time>2019-02-06T10:50:09Z</time>
      </trkpt>
      <trkpt lat="46.24126" lon="6.55567">
        <ele>1420.49</ele>
        <time>2019-02-06T10:50:22Z</time>
      </trkpt>
      <trkpt lat="46.24123" lon="6.55564">
        <ele>1419.04</ele>
        <time>2019-02-06T10:50:27Z</time>
      </trkpt>
      <trkpt lat="46.24113" lon="6.55554">
        <ele>1417.12</ele>
        <time>2019-02-06T10:50:39Z</time>
      </trkpt>
      <trkpt lat="46.2411" lon="6.55552">
        <ele>1415.68</ele>
        <time>2019-02-06T10:50:44Z</time>
      </trkpt>
      <trkpt lat="46.24101" lon="6.55547">
        <ele>1413.28</ele>
        <time>2019-02-06T10:50:57Z</time>
      </trkpt>
      <trkpt lat="46.24095" lon="6.55543">
        <ele>1412.31</ele>
        <time>2019-02-06T10:51:04Z</time>
      </trkpt>
      <trkpt lat="46.24094" lon="6.55541">
        <ele>1411.83</ele>
        <time>2019-02-06T10:51:06Z</time>
      </trkpt>
      <trkpt lat="46.24088" lon="6.55532">
        <ele>1409.91</ele>
        <time>2019-02-06T10:51:19Z</time>
      </trkpt>
      <trkpt lat="46.24084" lon="6.55522">
        <ele>1409.43</ele>
        <time>2019-02-06T10:51:32Z</time>
      </trkpt>
      <trkpt lat="46.24075" lon="6.55513">
        <ele>1409.43</ele>
        <time>2019-02-06T10:51:44Z</time>
      </trkpt>
      <trkpt lat="46.24073" lon="6.55509">
        <ele>1409.43</ele>
        <time>2019-02-06T10:51:48Z</time>
      </trkpt>
      <trkpt lat="46.24071" lon="6.55508">
        <ele>1408.95</ele>
        <time>2019-02-06T10:51:50Z</time>
      </trkpt>
      <trkpt lat="46.24065" lon="6.55499">
        <ele>1409.43</ele>
        <time>2019-02-06T10:52:00Z</time>
      </trkpt>
      <trkpt lat="46.24063" lon="6.55498">
        <ele>1408.95</ele>
        <time>2019-02-06T10:52:02Z</time>
      </trkpt>
      <trkpt lat="46.2406" lon="6.55493">
        <ele>1408.95</ele>
        <time>2019-02-06T10:52:09Z</time>
      </trkpt>
      <trkpt lat="46.24053" lon="6.55479">
        <ele>1410.39</ele>
        <time>2019-02-06T10:52:22Z</time>
      </trkpt>
      <trkpt lat="46.24048" lon="6.55467">
        <ele>1410.39</ele>
        <time>2019-02-06T10:52:33Z</time>
      </trkpt>
      <trkpt lat="46.24041" lon="6.55455">
        <ele>1411.35</ele>
        <time>2019-02-06T10:52:45Z</time>
      </trkpt>
      <trkpt lat="46.2404" lon="6.55453">
        <ele>1411.83</ele>
        <time>2019-02-06T10:52:47Z</time>
      </trkpt>
      <trkpt lat="46.24036" lon="6.55443">
        <ele>1412.79</ele>
        <time>2019-02-06T10:52:58Z</time>
      </trkpt>
      <trkpt lat="46.24033" lon="6.55434">
        <ele>1413.28</ele>
        <time>2019-02-06T10:53:10Z</time>
      </trkpt>
      <trkpt lat="46.24029" lon="6.55425">
        <ele>1415.2</ele>
        <time>2019-02-06T10:53:21Z</time>
      </trkpt>
      <trkpt lat="46.24026" lon="6.55419">
        <ele>1415.68</ele>
        <time>2019-02-06T10:53:33Z</time>
      </trkpt>
      <trkpt lat="46.24024" lon="6.55416">
        <ele>1418.08</ele>
        <time>2019-02-06T10:53:46Z</time>
      </trkpt>
      <trkpt lat="46.24023" lon="6.55414">
        <ele>1418.56</ele>
        <time>2019-02-06T10:53:56Z</time>
      </trkpt>
      <trkpt lat="46.24019" lon="6.55407">
        <ele>1420</ele>
        <time>2019-02-06T10:54:08Z</time>
      </trkpt>
      <trkpt lat="46.24014" lon="6.55395">
        <ele>1421.45</ele>
        <time>2019-02-06T10:54:20Z</time>
      </trkpt>
      <trkpt lat="46.24011" lon="6.55389">
        <ele>1422.89</ele>
        <time>2019-02-06T10:54:32Z</time>
      </trkpt>
      <trkpt lat="46.24008" lon="6.55379">
        <ele>1424.81</ele>
        <time>2019-02-06T10:54:44Z</time>
      </trkpt>
      <trkpt lat="46.24006" lon="6.55371">
        <ele>1425.77</ele>
        <time>2019-02-06T10:54:58Z</time>
      </trkpt>
      <trkpt lat="46.24001" lon="6.55366">
        <ele>1427.7</ele>
        <time>2019-02-06T10:55:10Z</time>
      </trkpt>
      <trkpt lat="46.24" lon="6.55366">
        <ele>1428.18</ele>
        <time>2019-02-06T10:55:14Z</time>
      </trkpt>
      <trkpt lat="46.23993" lon="6.55369">
        <ele>1429.62</ele>
        <time>2019-02-06T10:55:26Z</time>
      </trkpt>
      <trkpt lat="46.23989" lon="6.55374">
        <ele>1430.1</ele>
        <time>2019-02-06T10:55:36Z</time>
      </trkpt>
      <trkpt lat="46.23984" lon="6.55378">
        <ele>1431.54</ele>
        <time>2019-02-06T10:55:46Z</time>
      </trkpt>
      <trkpt lat="46.23981" lon="6.5538">
        <ele>1432.5</ele>
        <time>2019-02-06T10:55:56Z</time>
      </trkpt>
      <trkpt lat="46.23973" lon="6.55381">
        <ele>1434.91</ele>
        <time>2019-02-06T10:56:08Z</time>
      </trkpt>
      <trkpt lat="46.2397" lon="6.55371">
        <ele>1436.35</ele>
        <time>2019-02-06T10:56:20Z</time>
      </trkpt>
      <trkpt lat="46.23969" lon="6.55361">
        <ele>1437.79</ele>
        <time>2019-02-06T10:56:32Z</time>
      </trkpt>
      <trkpt lat="46.23968" lon="6.55351">
        <ele>1438.75</ele>
        <time>2019-02-06T10:56:45Z</time>
      </trkpt>
      <trkpt lat="46.23967" lon="6.55343">
        <ele>1440.19</ele>
        <time>2019-02-06T10:56:59Z</time>
      </trkpt>
      <trkpt lat="46.23967" lon="6.55331">
        <ele>1441.63</ele>
        <time>2019-02-06T10:57:10Z</time>
      </trkpt>
      <trkpt lat="46.23967" lon="6.55325">
        <ele>1442.11</ele>
        <time>2019-02-06T10:57:16Z</time>
      </trkpt>
      <trkpt lat="46.23971" lon="6.55316">
        <ele>1443.08</ele>
        <time>2019-02-06T10:57:27Z</time>
      </trkpt>
      <trkpt lat="46.23972" lon="6.55316">
        <ele>1443.56</ele>
        <time>2019-02-06T10:57:28Z</time>
      </trkpt>
      <trkpt lat="46.23974" lon="6.55304">
        <ele>1444.04</ele>
        <time>2019-02-06T10:57:40Z</time>
      </trkpt>
      <trkpt lat="46.23975" lon="6.55301">
        <ele>1445</ele>
        <time>2019-02-06T10:57:44Z</time>
      </trkpt>
      <trkpt lat="46.23978" lon="6.55291">
        <ele>1444.04</ele>
        <time>2019-02-06T10:57:54Z</time>
      </trkpt>
      <trkpt lat="46.23981" lon="6.55279">
        <ele>1444.04</ele>
        <time>2019-02-06T10:58:06Z</time>
      </trkpt>
      <trkpt lat="46.23983" lon="6.55271">
        <ele>1445</ele>
        <time>2019-02-06T10:58:16Z</time>
      </trkpt>
      <trkpt lat="46.23985" lon="6.55263">
        <ele>1445.96</ele>
        <time>2019-02-06T10:58:27Z</time>
      </trkpt>
      <trkpt lat="46.23985" lon="6.55261">
        <ele>1446.44</ele>
        <time>2019-02-06T10:58:41Z</time>
      </trkpt>
      <trkpt lat="46.23985" lon="6.55261">
        <ele>1446.44</ele>
        <time>2019-02-06T10:59:46Z</time>
      </trkpt>
      <trkpt lat="46.23984" lon="6.55261">
        <ele>1446.44</ele>
        <time>2019-02-06T11:00:28Z</time>
      </trkpt>
      <trkpt lat="46.23985" lon="6.55267">
        <ele>1445.48</ele>
        <time>2019-02-06T11:02:29Z</time>
      </trkpt>
      <trkpt lat="46.23985" lon="6.55271">
        <ele>1445</ele>
        <time>2019-02-06T11:02:42Z</time>
      </trkpt>
      <trkpt lat="46.23984" lon="6.55264">
        <ele>1445.96</ele>
        <time>2019-02-06T11:02:58Z</time>
      </trkpt>
      <trkpt lat="46.23984" lon="6.55256">
        <ele>1446.44</ele>
        <time>2019-02-06T11:03:27Z</time>
      </trkpt>
      <trkpt lat="46.23985" lon="6.55249">
        <ele>1447.88</ele>
        <time>2019-02-06T11:03:36Z</time>
      </trkpt>
      <trkpt lat="46.23986" lon="6.5524">
        <ele>1449.81</ele>
        <time>2019-02-06T11:03:47Z</time>
      </trkpt>
      <trkpt lat="46.23987" lon="6.55234">
        <ele>1450.77</ele>
        <time>2019-02-06T11:03:58Z</time>
      </trkpt>
      <trkpt lat="46.23987" lon="6.55227">
        <ele>1452.21</ele>
        <time>2019-02-06T11:04:10Z</time>
      </trkpt>
      <trkpt lat="46.23986" lon="6.55221">
        <ele>1454.13</ele>
        <time>2019-02-06T11:04:22Z</time>
      </trkpt>
      <trkpt lat="46.23984" lon="6.55216">
        <ele>1455.09</ele>
        <time>2019-02-06T11:04:28Z</time>
      </trkpt>
      <trkpt lat="46.2398" lon="6.55215">
        <ele>1456.05</ele>
        <time>2019-02-06T11:04:40Z</time>
      </trkpt>
      <trkpt lat="46.23975" lon="6.55216">
        <ele>1457.5</ele>
        <time>2019-02-06T11:04:50Z</time>
      </trkpt>
      <trkpt lat="46.23968" lon="6.55215">
        <ele>1458.46</ele>
        <time>2019-02-06T11:05:01Z</time>
      </trkpt>
      <trkpt lat="46.23958" lon="6.55216">
        <ele>1459.42</ele>
        <time>2019-02-06T11:05:13Z</time>
      </trkpt>
      <trkpt lat="46.23952" lon="6.55217">
        <ele>1461.34</ele>
        <time>2019-02-06T11:05:25Z</time>
      </trkpt>
      <trkpt lat="46.23946" lon="6.55214">
        <ele>1463.26</ele>
        <time>2019-02-06T11:05:36Z</time>
      </trkpt>
      <trkpt lat="46.23943" lon="6.55213">
        <ele>1463.26</ele>
        <time>2019-02-06T11:05:45Z</time>
      </trkpt>
      <trkpt lat="46.23938" lon="6.55212">
        <ele>1465.19</ele>
        <time>2019-02-06T11:05:56Z</time>
      </trkpt>
      <trkpt lat="46.23935" lon="6.55211">
        <ele>1466.63</ele>
        <time>2019-02-06T11:06:06Z</time>
      </trkpt>
      <trkpt lat="46.2393" lon="6.5521">
        <ele>1468.07</ele>
        <time>2019-02-06T11:06:19Z</time>
      </trkpt>
      <trkpt lat="46.23926" lon="6.55209">
        <ele>1469.99</ele>
        <time>2019-02-06T11:06:31Z</time>
      </trkpt>
      <trkpt lat="46.23919" lon="6.5521">
        <ele>1471.44</ele>
        <time>2019-02-06T11:06:42Z</time>
      </trkpt>
      <trkpt lat="46.23914" lon="6.55209">
        <ele>1473.36</ele>
        <time>2019-02-06T11:06:53Z</time>
      </trkpt>
      <trkpt lat="46.2391" lon="6.5521">
        <ele>1474.8</ele>
        <time>2019-02-06T11:07:04Z</time>
      </trkpt>
      <trkpt lat="46.23904" lon="6.55214">
        <ele>1475.76</ele>
        <time>2019-02-06T11:07:15Z</time>
      </trkpt>
      <trkpt lat="46.23898" lon="6.55211">
        <ele>1477.2</ele>
        <time>2019-02-06T11:07:25Z</time>
      </trkpt>
      <trkpt lat="46.23891" lon="6.55207">
        <ele>1478.65</ele>
        <time>2019-02-06T11:07:37Z</time>
      </trkpt>
      <trkpt lat="46.23884" lon="6.55203">
        <ele>1479.13</ele>
        <time>2019-02-06T11:07:47Z</time>
      </trkpt>
      <trkpt lat="46.23878" lon="6.55198">
        <ele>1480.57</ele>
        <time>2019-02-06T11:07:58Z</time>
      </trkpt>
      <trkpt lat="46.23871" lon="6.55193">
        <ele>1482.49</ele>
        <time>2019-02-06T11:08:09Z</time>
      </trkpt>
      <trkpt lat="46.23865" lon="6.55188">
        <ele>1483.45</ele>
        <time>2019-02-06T11:08:21Z</time>
      </trkpt>
      <trkpt lat="46.2386" lon="6.55184">
        <ele>1484.89</ele>
        <time>2019-02-06T11:08:33Z</time>
      </trkpt>
      <trkpt lat="46.23854" lon="6.5518">
        <ele>1485.37</ele>
        <time>2019-02-06T11:08:42Z</time>
      </trkpt>
      <trkpt lat="46.23849" lon="6.55176">
        <ele>1486.34</ele>
        <time>2019-02-06T11:08:52Z</time>
      </trkpt>
      <trkpt lat="46.23842" lon="6.55171">
        <ele>1487.3</ele>
        <time>2019-02-06T11:09:04Z</time>
      </trkpt>
      <trkpt lat="46.23836" lon="6.55167">
        <ele>1488.26</ele>
        <time>2019-02-06T11:09:13Z</time>
      </trkpt>
      <trkpt lat="46.23829" lon="6.55159">
        <ele>1489.22</ele>
        <time>2019-02-06T11:09:26Z</time>
      </trkpt>
      <trkpt lat="46.23829" lon="6.5516">
        <ele>1489.22</ele>
        <time>2019-02-06T11:09:42Z</time>
      </trkpt>
      <trkpt lat="46.23829" lon="6.5516">
        <ele>1489.22</ele>
        <time>2019-02-06T11:10:38Z</time>
      </trkpt>
      <trkpt lat="46.23829" lon="6.5516">
        <ele>1489.7</ele>
        <time>2019-02-06T11:11:26Z</time>
      </trkpt>
      <trkpt lat="46.23829" lon="6.55161">
        <ele>1489.22</ele>
        <time>2019-02-06T11:12:04Z</time>
      </trkpt>
      <trkpt lat="46.23829" lon="6.55161">
        <ele>1488.74</ele>
        <time>2019-02-06T11:12:38Z</time>
      </trkpt>
      <trkpt lat="46.2383" lon="6.55162">
        <ele>1489.22</ele>
        <time>2019-02-06T11:13:16Z</time>
      </trkpt>
      <trkpt lat="46.2383" lon="6.55162">
        <ele>1488.74</ele>
        <time>2019-02-06T11:15:03Z</time>
      </trkpt>
      <trkpt lat="46.2383" lon="6.55162">
        <ele>1488.26</ele>
        <time>2019-02-06T11:16:27Z</time>
      </trkpt>
      <trkpt lat="46.2383" lon="6.55162">
        <ele>1488.74</ele>
        <time>2019-02-06T11:16:54Z</time>
      </trkpt>
      <trkpt lat="46.2383" lon="6.55162">
        <ele>1488.26</ele>
        <time>2019-02-06T11:17:41Z</time>
      </trkpt>
      <trkpt lat="46.2383" lon="6.55162">
        <ele>1487.78</ele>
        <time>2019-02-06T11:20:11Z</time>
      </trkpt>
      <trkpt lat="46.2383" lon="6.55161">
        <ele>1487.78</ele>
        <time>2019-02-06T11:21:37Z</time>
      </trkpt>
      <trkpt lat="46.23827" lon="6.5516">
        <ele>1487.3</ele>
        <time>2019-02-06T11:21:42Z</time>
      </trkpt>
      <trkpt lat="46.23826" lon="6.55158">
        <ele>1487.78</ele>
        <time>2019-02-06T11:21:45Z</time>
      </trkpt>
      <trkpt lat="46.23823" lon="6.55156">
        <ele>1487.78</ele>
        <time>2019-02-06T11:21:48Z</time>
      </trkpt>
      <trkpt lat="46.23817" lon="6.55155">
        <ele>1488.26</ele>
        <time>2019-02-06T11:21:55Z</time>
      </trkpt>
      <trkpt lat="46.23816" lon="6.55153">
        <ele>1487.78</ele>
        <time>2019-02-06T11:21:57Z</time>
      </trkpt>
      <trkpt lat="46.23811" lon="6.55149">
        <ele>1488.26</ele>
        <time>2019-02-06T11:22:04Z</time>
      </trkpt>
      <trkpt lat="46.2381" lon="6.55148">
        <ele>1488.74</ele>
        <time>2019-02-06T11:22:06Z</time>
      </trkpt>
      <trkpt lat="46.23801" lon="6.55141">
        <ele>1489.22</ele>
        <time>2019-02-06T11:22:19Z</time>
      </trkpt>
      <trkpt lat="46.23797" lon="6.55139">
        <ele>1489.22</ele>
        <time>2019-02-06T11:22:24Z</time>
      </trkpt>
      <trkpt lat="46.2379" lon="6.55134">
        <ele>1489.22</ele>
        <time>2019-02-06T11:22:36Z</time>
      </trkpt>
      <trkpt lat="46.23781" lon="6.55127">
        <ele>1490.18</ele>
        <time>2019-02-06T11:22:48Z</time>
      </trkpt>
      <trkpt lat="46.23774" lon="6.5512">
        <ele>1491.14</ele>
        <time>2019-02-06T11:23:01Z</time>
      </trkpt>
      <trkpt lat="46.23767" lon="6.55115">
        <ele>1492.1</ele>
        <time>2019-02-06T11:23:10Z</time>
      </trkpt>
      <trkpt lat="46.23759" lon="6.55108">
        <ele>1493.55</ele>
        <time>2019-02-06T11:23:21Z</time>
      </trkpt>
      <trkpt lat="46.23753" lon="6.55099">
        <ele>1494.03</ele>
        <time>2019-02-06T11:23:33Z</time>
      </trkpt>
      <trkpt lat="46.23746" lon="6.55091">
        <ele>1496.43</ele>
        <time>2019-02-06T11:23:46Z</time>
      </trkpt>
      <trkpt lat="46.23741" lon="6.55087">
        <ele>1497.39</ele>
        <time>2019-02-06T11:23:53Z</time>
      </trkpt>
      <trkpt lat="46.23736" lon="6.55081">
        <ele>1496.91</ele>
        <time>2019-02-06T11:24:03Z</time>
      </trkpt>
      <trkpt lat="46.23729" lon="6.55075">
        <ele>1498.83</ele>
        <time>2019-02-06T11:24:13Z</time>
      </trkpt>
      <trkpt lat="46.23723" lon="6.55072">
        <ele>1499.31</ele>
        <time>2019-02-06T11:24:23Z</time>
      </trkpt>
      <trkpt lat="46.2372" lon="6.5507">
        <ele>1500.27</ele>
        <time>2019-02-06T11:24:27Z</time>
      </trkpt>
      <trkpt lat="46.23713" lon="6.55065">
        <ele>1501.72</ele>
        <time>2019-02-06T11:24:39Z</time>
      </trkpt>
      <trkpt lat="46.23711" lon="6.55064">
        <ele>1502.2</ele>
        <time>2019-02-06T11:24:43Z</time>
      </trkpt>
      <trkpt lat="46.23708" lon="6.55061">
        <ele>1502.2</ele>
        <time>2019-02-06T11:24:47Z</time>
      </trkpt>
      <trkpt lat="46.23706" lon="6.55059">
        <ele>1502.68</ele>
        <time>2019-02-06T11:24:51Z</time>
      </trkpt>
      <trkpt lat="46.23697" lon="6.55055">
        <ele>1503.64</ele>
        <time>2019-02-06T11:25:03Z</time>
      </trkpt>
      <trkpt lat="46.23695" lon="6.55053">
        <ele>1503.64</ele>
        <time>2019-02-06T11:25:07Z</time>
      </trkpt>
      <trkpt lat="46.23692" lon="6.55051">
        <ele>1503.64</ele>
        <time>2019-02-06T11:25:11Z</time>
      </trkpt>
      <trkpt lat="46.23684" lon="6.55043">
        <ele>1504.12</ele>
        <time>2019-02-06T11:25:23Z</time>
      </trkpt>
      <trkpt lat="46.23674" lon="6.55039">
        <ele>1504.12</ele>
        <time>2019-02-06T11:25:34Z</time>
      </trkpt>
      <trkpt lat="46.23668" lon="6.55035">
        <ele>1505.56</ele>
        <time>2019-02-06T11:25:43Z</time>
      </trkpt>
      <trkpt lat="46.23664" lon="6.55032">
        <ele>1505.56</ele>
        <time>2019-02-06T11:25:48Z</time>
      </trkpt>
      <trkpt lat="46.2366" lon="6.55031">
        <ele>1505.08</ele>
        <time>2019-02-06T11:25:52Z</time>
      </trkpt>
      <trkpt lat="46.23658" lon="6.5503">
        <ele>1506.04</ele>
        <time>2019-02-06T11:25:55Z</time>
      </trkpt>
      <trkpt lat="46.23655" lon="6.55029">
        <ele>1506.52</ele>
        <time>2019-02-06T11:25:58Z</time>
      </trkpt>
      <trkpt lat="46.23645" lon="6.55023">
        <ele>1506.52</ele>
        <time>2019-02-06T11:26:12Z</time>
      </trkpt>
      <trkpt lat="46.23638" lon="6.55021">
        <ele>1507</ele>
        <time>2019-02-06T11:26:21Z</time>
      </trkpt>
      <trkpt lat="46.23635" lon="6.55017">
        <ele>1508.45</ele>
        <time>2019-02-06T11:26:27Z</time>
      </trkpt>
      <trkpt lat="46.2363" lon="6.55013">
        <ele>1507.97</ele>
        <time>2019-02-06T11:26:34Z</time>
      </trkpt>
      <trkpt lat="46.23619" lon="6.55008">
        <ele>1508.93</ele>
        <time>2019-02-06T11:26:46Z</time>
      </trkpt>
      <trkpt lat="46.2361" lon="6.55003">
        <ele>1508.93</ele>
        <time>2019-02-06T11:26:58Z</time>
      </trkpt>
      <trkpt lat="46.23601" lon="6.54996">
        <ele>1509.41</ele>
        <time>2019-02-06T11:27:10Z</time>
      </trkpt>
      <trkpt lat="46.23594" lon="6.54994">
        <ele>1510.37</ele>
        <time>2019-02-06T11:27:20Z</time>
      </trkpt>
      <trkpt lat="46.23586" lon="6.5499">
        <ele>1512.29</ele>
        <time>2019-02-06T11:27:32Z</time>
      </trkpt>
      <trkpt lat="46.23579" lon="6.54986">
        <ele>1512.29</ele>
        <time>2019-02-06T11:27:41Z</time>
      </trkpt>
      <trkpt lat="46.23576" lon="6.54984">
        <ele>1512.77</ele>
        <time>2019-02-06T11:27:45Z</time>
      </trkpt>
      <trkpt lat="46.2357" lon="6.54978">
        <ele>1514.21</ele>
        <time>2019-02-06T11:27:55Z</time>
      </trkpt>
      <trkpt lat="46.23562" lon="6.5497">
        <ele>1515.18</ele>
        <time>2019-02-06T11:28:09Z</time>
      </trkpt>
      <trkpt lat="46.23557" lon="6.54967">
        <ele>1516.62</ele>
        <time>2019-02-06T11:28:16Z</time>
      </trkpt>
      <trkpt lat="46.2355" lon="6.54964">
        <ele>1518.06</ele>
        <time>2019-02-06T11:28:27Z</time>
      </trkpt>
      <trkpt lat="46.23543" lon="6.54959">
        <ele>1519.98</ele>
        <time>2019-02-06T11:28:39Z</time>
      </trkpt>
      <trkpt lat="46.23536" lon="6.54956">
        <ele>1520.46</ele>
        <time>2019-02-06T11:28:49Z</time>
      </trkpt>
      <trkpt lat="46.23529" lon="6.54955">
        <ele>1522.39</ele>
        <time>2019-02-06T11:29:00Z</time>
      </trkpt>
      <trkpt lat="46.23526" lon="6.54954">
        <ele>1521.9</ele>
        <time>2019-02-06T11:29:08Z</time>
      </trkpt>
      <trkpt lat="46.23517" lon="6.54948">
        <ele>1521.9</ele>
        <time>2019-02-06T11:29:20Z</time>
      </trkpt>
      <trkpt lat="46.23513" lon="6.54946">
        <ele>1523.35</ele>
        <time>2019-02-06T11:29:24Z</time>
      </trkpt>
      <trkpt lat="46.23505" lon="6.5494">
        <ele>1524.31</ele>
        <time>2019-02-06T11:29:33Z</time>
      </trkpt>
      <trkpt lat="46.23503" lon="6.54939">
        <ele>1523.35</ele>
        <time>2019-02-06T11:29:36Z</time>
      </trkpt>
      <trkpt lat="46.23493" lon="6.54929">
        <ele>1523.83</ele>
        <time>2019-02-06T11:29:50Z</time>
      </trkpt>
      <trkpt lat="46.23488" lon="6.54925">
        <ele>1524.79</ele>
        <time>2019-02-06T11:29:56Z</time>
      </trkpt>
      <trkpt lat="46.23484" lon="6.54921">
        <ele>1525.27</ele>
        <time>2019-02-06T11:30:02Z</time>
      </trkpt>
      <trkpt lat="46.23474" lon="6.54917">
        <ele>1524.79</ele>
        <time>2019-02-06T11:30:15Z</time>
      </trkpt>
      <trkpt lat="46.23472" lon="6.54913">
        <ele>1526.71</ele>
        <time>2019-02-06T11:30:33Z</time>
      </trkpt>
      <trkpt lat="46.23472" lon="6.54913">
        <ele>1524.79</ele>
        <time>2019-02-06T11:30:51Z</time>
      </trkpt>
      <trkpt lat="46.23473" lon="6.54911">
        <ele>1526.23</ele>
        <time>2019-02-06T11:30:54Z</time>
      </trkpt>
      <trkpt lat="46.23474" lon="6.5491">
        <ele>1526.23</ele>
        <time>2019-02-06T11:31:13Z</time>
      </trkpt>
      <trkpt lat="46.23473" lon="6.54909">
        <ele>1525.27</ele>
        <time>2019-02-06T11:31:36Z</time>
      </trkpt>
      <trkpt lat="46.23473" lon="6.54909">
        <ele>1525.27</ele>
        <time>2019-02-06T11:31:59Z</time>
      </trkpt>
      <trkpt lat="46.23474" lon="6.54909">
        <ele>1525.27</ele>
        <time>2019-02-06T11:32:29Z</time>
      </trkpt>
      <trkpt lat="46.23474" lon="6.54908">
        <ele>1525.27</ele>
        <time>2019-02-06T11:33:18Z</time>
      </trkpt>
      <trkpt lat="46.23475" lon="6.54909">
        <ele>1524.79</ele>
        <time>2019-02-06T11:33:37Z</time>
      </trkpt>
      <trkpt lat="46.23474" lon="6.54908">
        <ele>1523.83</ele>
        <time>2019-02-06T11:35:56Z</time>
      </trkpt>
      <trkpt lat="46.23474" lon="6.54908">
        <ele>1520.94</ele>
        <time>2019-02-06T11:47:27Z</time>
      </trkpt>
      <trkpt lat="46.23476" lon="6.54907">
        <ele>1519.02</ele>
        <time>2019-02-06T12:00:37Z</time>
      </trkpt>
      <trkpt lat="46.23476" lon="6.54906">
        <ele>1518.06</ele>
        <time>2019-02-06T12:07:04Z</time>
      </trkpt>
      <trkpt lat="46.23476" lon="6.54906">
        <ele>1518.06</ele>
        <time>2019-02-06T12:09:48Z</time>
      </trkpt>
      <trkpt lat="46.23476" lon="6.54908">
        <ele>1518.06</ele>
        <time>2019-02-06T12:11:23Z</time>
      </trkpt>
      <trkpt lat="46.23474" lon="6.54908">
        <ele>1519.02</ele>
        <time>2019-02-06T12:18:51Z</time>
      </trkpt>
      <trkpt lat="46.23474" lon="6.54908">
        <ele>1519.5</ele>
        <time>2019-02-06T12:19:15Z</time>
      </trkpt>
      <trkpt lat="46.23474" lon="6.54908">
        <ele>1519.5</ele>
        <time>2019-02-06T12:19:44Z</time>
      </trkpt>
      <trkpt lat="46.23473" lon="6.54909">
        <ele>1519.5</ele>
        <time>2019-02-06T12:20:37Z</time>
      </trkpt>
      <trkpt lat="46.23473" lon="6.54908">
        <ele>1519.5</ele>
        <time>2019-02-06T12:21:08Z</time>
      </trkpt>
      <trkpt lat="46.23473" lon="6.54909">
        <ele>1519.5</ele>
        <time>2019-02-06T12:21:21Z</time>
      </trkpt>
      <trkpt lat="46.23471" lon="6.5491">
        <ele>1519.5</ele>
        <time>2019-02-06T12:21:59Z</time>
      </trkpt>
      <trkpt lat="46.23465" lon="6.54909">
        <ele>1520.94</ele>
        <time>2019-02-06T12:22:11Z</time>
      </trkpt>
      <trkpt lat="46.23459" lon="6.54905">
        <ele>1521.9</ele>
        <time>2019-02-06T12:22:21Z</time>
      </trkpt>
      <trkpt lat="46.23453" lon="6.549">
        <ele>1523.35</ele>
        <time>2019-02-06T12:22:32Z</time>
      </trkpt>
      <trkpt lat="46.23446" lon="6.54895">
        <ele>1524.79</ele>
        <time>2019-02-06T12:22:42Z</time>
      </trkpt>
      <trkpt lat="46.23438" lon="6.54892">
        <ele>1525.27</ele>
        <time>2019-02-06T12:22:54Z</time>
      </trkpt>
      <trkpt lat="46.23431" lon="6.54885">
        <ele>1525.75</ele>
        <time>2019-02-06T12:23:05Z</time>
      </trkpt>
      <trkpt lat="46.23426" lon="6.54877">
        <ele>1526.71</ele>
        <time>2019-02-06T12:23:18Z</time>
      </trkpt>
      <trkpt lat="46.23422" lon="6.54874">
        <ele>1528.15</ele>
        <time>2019-02-06T12:23:33Z</time>
      </trkpt>
      <trkpt lat="46.23416" lon="6.54873">
        <ele>1528.15</ele>
        <time>2019-02-06T12:23:43Z</time>
      </trkpt>
      <trkpt lat="46.23408" lon="6.5487">
        <ele>1528.63</ele>
        <time>2019-02-06T12:23:55Z</time>
      </trkpt>
      <trkpt lat="46.23403" lon="6.54871">
        <ele>1529.11</ele>
        <time>2019-02-06T12:24:07Z</time>
      </trkpt>
      <trkpt lat="46.23398" lon="6.54868">
        <ele>1529.59</ele>
        <time>2019-02-06T12:24:28Z</time>
      </trkpt>
      <trkpt lat="46.23394" lon="6.54863">
        <ele>1529.11</ele>
        <time>2019-02-06T12:24:38Z</time>
      </trkpt>
      <trkpt lat="46.23388" lon="6.5486">
        <ele>1530.08</ele>
        <time>2019-02-06T12:24:49Z</time>
      </trkpt>
      <trkpt lat="46.23385" lon="6.54856">
        <ele>1530.56</ele>
        <time>2019-02-06T12:25:01Z</time>
      </trkpt>
      <trkpt lat="46.23385" lon="6.54855">
        <ele>1530.56</ele>
        <time>2019-02-06T12:25:23Z</time>
      </trkpt>
      <trkpt lat="46.23384" lon="6.54857">
        <ele>1530.08</ele>
        <time>2019-02-06T12:26:13Z</time>
      </trkpt>
      <trkpt lat="46.23383" lon="6.54851">
        <ele>1531.52</ele>
        <time>2019-02-06T12:26:58Z</time>
      </trkpt>
      <trkpt lat="46.23385" lon="6.54839">
        <ele>1532</ele>
        <time>2019-02-06T12:27:11Z</time>
      </trkpt>
      <trkpt lat="46.23387" lon="6.5484">
        <ele>1531.52</ele>
        <time>2019-02-06T12:27:44Z</time>
      </trkpt>
      <trkpt lat="46.23393" lon="6.54843">
        <ele>1530.56</ele>
        <time>2019-02-06T12:27:57Z</time>
      </trkpt>
      <trkpt lat="46.23398" lon="6.54846">
        <ele>1530.08</ele>
        <time>2019-02-06T12:28:10Z</time>
      </trkpt>
      <trkpt lat="46.23402" lon="6.54846">
        <ele>1530.08</ele>
        <time>2019-02-06T12:28:24Z</time>
      </trkpt>
      <trkpt lat="46.23405" lon="6.54839">
        <ele>1530.08</ele>
        <time>2019-02-06T12:28:34Z</time>
      </trkpt>
      <trkpt lat="46.23411" lon="6.54833">
        <ele>1529.11</ele>
        <time>2019-02-06T12:28:46Z</time>
      </trkpt>
      <trkpt lat="46.23413" lon="6.54834">
        <ele>1528.63</ele>
        <time>2019-02-06T12:28:49Z</time>
      </trkpt>
      <trkpt lat="46.23416" lon="6.54837">
        <ele>1528.15</ele>
        <time>2019-02-06T12:28:53Z</time>
      </trkpt>
      <trkpt lat="46.23422" lon="6.54842">
        <ele>1527.67</ele>
        <time>2019-02-06T12:29:05Z</time>
      </trkpt>
      <trkpt lat="46.23424" lon="6.54845">
        <ele>1527.19</ele>
        <time>2019-02-06T12:29:22Z</time>
      </trkpt>
      <trkpt lat="46.23428" lon="6.54852">
        <ele>1526.71</ele>
        <time>2019-02-06T12:29:40Z</time>
      </trkpt>
      <trkpt lat="46.23434" lon="6.54855">
        <ele>1526.71</ele>
        <time>2019-02-06T12:29:52Z</time>
      </trkpt>
      <trkpt lat="46.23442" lon="6.54862">
        <ele>1526.23</ele>
        <time>2019-02-06T12:30:05Z</time>
      </trkpt>
      <trkpt lat="46.23449" lon="6.54874">
        <ele>1525.75</ele>
        <time>2019-02-06T12:30:17Z</time>
      </trkpt>
      <trkpt lat="46.23453" lon="6.54887">
        <ele>1525.27</ele>
        <time>2019-02-06T12:30:29Z</time>
      </trkpt>
      <trkpt lat="46.23454" lon="6.54898">
        <ele>1524.79</ele>
        <time>2019-02-06T12:30:42Z</time>
      </trkpt>
      <trkpt lat="46.23461" lon="6.54904">
        <ele>1523.35</ele>
        <time>2019-02-06T12:30:55Z</time>
      </trkpt>
      <trkpt lat="46.23468" lon="6.5491">
        <ele>1521.42</ele>
        <time>2019-02-06T12:31:10Z</time>
      </trkpt>
      <trkpt lat="46.23469" lon="6.54909">
        <ele>1520.94</ele>
        <time>2019-02-06T12:31:57Z</time>
      </trkpt>
      <trkpt lat="46.23472" lon="6.54911">
        <ele>1520.94</ele>
        <time>2019-02-06T12:32:09Z</time>
      </trkpt>
      <trkpt lat="46.23473" lon="6.54912">
        <ele>1520.94</ele>
        <time>2019-02-06T12:32:55Z</time>
      </trkpt>
      <trkpt lat="46.23474" lon="6.54913">
        <ele>1521.42</ele>
        <time>2019-02-06T12:36:00Z</time>
      </trkpt>
      <trkpt lat="46.23478" lon="6.54922">
        <ele>1520.46</ele>
        <time>2019-02-06T12:36:12Z</time>
      </trkpt>
      <trkpt lat="46.23482" lon="6.5493">
        <ele>1519.02</ele>
        <time>2019-02-06T12:36:26Z</time>
      </trkpt>
      <trkpt lat="46.23486" lon="6.54939">
        <ele>1518.06</ele>
        <time>2019-02-06T12:36:39Z</time>
      </trkpt>
      <trkpt lat="46.23492" lon="6.54954">
        <ele>1515.66</ele>
        <time>2019-02-06T12:36:56Z</time>
      </trkpt>
      <trkpt lat="46.23495" lon="6.54962">
        <ele>1513.73</ele>
        <time>2019-02-06T12:37:07Z</time>
      </trkpt>
      <trkpt lat="46.23498" lon="6.54967">
        <ele>1513.25</ele>
        <time>2019-02-06T12:37:12Z</time>
      </trkpt>
      <trkpt lat="46.23501" lon="6.54979">
        <ele>1511.33</ele>
        <time>2019-02-06T12:37:25Z</time>
      </trkpt>
      <trkpt lat="46.23509" lon="6.54993">
        <ele>1508.45</ele>
        <time>2019-02-06T12:37:40Z</time>
      </trkpt>
      <trkpt lat="46.23511" lon="6.55001">
        <ele>1508.45</ele>
        <time>2019-02-06T12:37:51Z</time>
      </trkpt>
      <trkpt lat="46.23514" lon="6.55007">
        <ele>1507.97</ele>
        <time>2019-02-06T12:37:58Z</time>
      </trkpt>
      <trkpt lat="46.23518" lon="6.55021">
        <ele>1507</ele>
        <time>2019-02-06T12:38:12Z</time>
      </trkpt>
      <trkpt lat="46.23518" lon="6.55022">
        <ele>1506.52</ele>
        <time>2019-02-06T12:38:14Z</time>
      </trkpt>
      <trkpt lat="46.23518" lon="6.55029">
        <ele>1506.04</ele>
        <time>2019-02-06T12:38:29Z</time>
      </trkpt>
      <trkpt lat="46.2352" lon="6.55035">
        <ele>1506.04</ele>
        <time>2019-02-06T12:38:42Z</time>
      </trkpt>
      <trkpt lat="46.23521" lon="6.55036">
        <ele>1506.04</ele>
        <time>2019-02-06T12:38:44Z</time>
      </trkpt>
      <trkpt lat="46.23523" lon="6.55041">
        <ele>1506.04</ele>
        <time>2019-02-06T12:38:49Z</time>
      </trkpt>
      <trkpt lat="46.23526" lon="6.55051">
        <ele>1505.56</ele>
        <time>2019-02-06T12:39:01Z</time>
      </trkpt>
      <trkpt lat="46.23529" lon="6.55057">
        <ele>1505.56</ele>
        <time>2019-02-06T12:39:09Z</time>
      </trkpt>
      <trkpt lat="46.23533" lon="6.55068">
        <ele>1504.6</ele>
        <time>2019-02-06T12:39:21Z</time>
      </trkpt>
      <trkpt lat="46.23538" lon="6.55077">
        <ele>1504.6</ele>
        <time>2019-02-06T12:39:31Z</time>
      </trkpt>
      <trkpt lat="46.23539" lon="6.55078">
        <ele>1504.6</ele>
        <time>2019-02-06T12:39:32Z</time>
      </trkpt>
      <trkpt lat="46.23542" lon="6.55086">
        <ele>1504.12</ele>
        <time>2019-02-06T12:39:44Z</time>
      </trkpt>
      <trkpt lat="46.23542" lon="6.55086">
        <ele>1504.12</ele>
        <time>2019-02-06T12:40:02Z</time>
      </trkpt>
      <trkpt lat="46.23541" lon="6.55086">
        <ele>1504.6</ele>
        <time>2019-02-06T12:40:46Z</time>
      </trkpt>
      <trkpt lat="46.23541" lon="6.55086">
        <ele>1504.6</ele>
        <time>2019-02-06T12:42:10Z</time>
      </trkpt>
      <trkpt lat="46.23541" lon="6.55086">
        <ele>1504.6</ele>
        <time>2019-02-06T12:44:10Z</time>
      </trkpt>
      <trkpt lat="46.23542" lon="6.55095">
        <ele>1503.64</ele>
        <time>2019-02-06T12:45:03Z</time>
      </trkpt>
      <trkpt lat="46.23548" lon="6.55109">
        <ele>1503.16</ele>
        <time>2019-02-06T12:45:17Z</time>
      </trkpt>
      <trkpt lat="46.23551" lon="6.55116">
        <ele>1503.64</ele>
        <time>2019-02-06T12:45:25Z</time>
      </trkpt>
      <trkpt lat="46.23556" lon="6.55132">
        <ele>1501.24</ele>
        <time>2019-02-06T12:45:40Z</time>
      </trkpt>
      <trkpt lat="46.23559" lon="6.55142">
        <ele>1500.27</ele>
        <time>2019-02-06T12:45:52Z</time>
      </trkpt>
      <trkpt lat="46.23563" lon="6.55157">
        <ele>1498.35</ele>
        <time>2019-02-06T12:46:06Z</time>
      </trkpt>
      <trkpt lat="46.23567" lon="6.5517">
        <ele>1496.43</ele>
        <time>2019-02-06T12:46:18Z</time>
      </trkpt>
      <trkpt lat="46.23572" lon="6.55181">
        <ele>1494.03</ele>
        <time>2019-02-06T12:46:30Z</time>
      </trkpt>
      <trkpt lat="46.23571" lon="6.55186">
        <ele>1494.03</ele>
        <time>2019-02-06T12:46:34Z</time>
      </trkpt>
      <trkpt lat="46.23572" lon="6.55199">
        <ele>1492.58</ele>
        <time>2019-02-06T12:46:45Z</time>
      </trkpt>
      <trkpt lat="46.23575" lon="6.55209">
        <ele>1491.14</ele>
        <time>2019-02-06T12:46:54Z</time>
      </trkpt>
      <trkpt lat="46.23578" lon="6.55219">
        <ele>1489.22</ele>
        <time>2019-02-06T12:47:07Z</time>
      </trkpt>
      <trkpt lat="46.23582" lon="6.5523">
        <ele>1488.26</ele>
        <time>2019-02-06T12:47:19Z</time>
      </trkpt>
      <trkpt lat="46.23582" lon="6.55232">
        <ele>1487.78</ele>
        <time>2019-02-06T12:47:20Z</time>
      </trkpt>
      <trkpt lat="46.23587" lon="6.55249">
        <ele>1486.34</ele>
        <time>2019-02-06T12:47:35Z</time>
      </trkpt>
      <trkpt lat="46.23589" lon="6.55255">
        <ele>1485.85</ele>
        <time>2019-02-06T12:47:41Z</time>
      </trkpt>
      <trkpt lat="46.23592" lon="6.55269">
        <ele>1485.85</ele>
        <time>2019-02-06T12:47:53Z</time>
      </trkpt>
      <trkpt lat="46.23594" lon="6.55282">
        <ele>1484.89</ele>
        <time>2019-02-06T12:48:05Z</time>
      </trkpt>
      <trkpt lat="46.23594" lon="6.55283">
        <ele>1484.41</ele>
        <time>2019-02-06T12:48:06Z</time>
      </trkpt>
      <trkpt lat="46.23597" lon="6.55298">
        <ele>1483.45</ele>
        <time>2019-02-06T12:48:19Z</time>
      </trkpt>
      <trkpt lat="46.23601" lon="6.55311">
        <ele>1482.49</ele>
        <time>2019-02-06T12:48:31Z</time>
      </trkpt>
      <trkpt lat="46.23603" lon="6.55318">
        <ele>1482.01</ele>
        <time>2019-02-06T12:48:39Z</time>
      </trkpt>
      <trkpt lat="46.23606" lon="6.55333">
        <ele>1481.53</ele>
        <time>2019-02-06T12:48:52Z</time>
      </trkpt>
      <trkpt lat="46.2361" lon="6.55343">
        <ele>1481.05</ele>
        <time>2019-02-06T12:49:04Z</time>
      </trkpt>
      <trkpt lat="46.2361" lon="6.55344">
        <ele>1481.53</ele>
        <time>2019-02-06T12:49:05Z</time>
      </trkpt>
      <trkpt lat="46.23615" lon="6.55355">
        <ele>1481.05</ele>
        <time>2019-02-06T12:49:18Z</time>
      </trkpt>
      <trkpt lat="46.23618" lon="6.55362">
        <ele>1481.53</ele>
        <time>2019-02-06T12:49:30Z</time>
      </trkpt>
      <trkpt lat="46.23618" lon="6.55364">
        <ele>1482.01</ele>
        <time>2019-02-06T12:49:46Z</time>
      </trkpt>
      <trkpt lat="46.23617" lon="6.55364">
        <ele>1482.01</ele>
        <time>2019-02-06T12:50:27Z</time>
      </trkpt>
      <trkpt lat="46.23617" lon="6.55363">
        <ele>1481.53</ele>
        <time>2019-02-06T12:51:10Z</time>
      </trkpt>
      <trkpt lat="46.23615" lon="6.55366">
        <ele>1482.49</ele>
        <time>2019-02-06T12:53:03Z</time>
      </trkpt>
      <trkpt lat="46.23613" lon="6.55372">
        <ele>1482.97</ele>
        <time>2019-02-06T12:53:09Z</time>
      </trkpt>
      <trkpt lat="46.23607" lon="6.55383">
        <ele>1483.45</ele>
        <time>2019-02-06T12:53:20Z</time>
      </trkpt>
      <trkpt lat="46.23603" lon="6.55395">
        <ele>1483.93</ele>
        <time>2019-02-06T12:53:31Z</time>
      </trkpt>
      <trkpt lat="46.23598" lon="6.55405">
        <ele>1485.37</ele>
        <time>2019-02-06T12:53:41Z</time>
      </trkpt>
      <trkpt lat="46.23594" lon="6.55417">
        <ele>1486.34</ele>
        <time>2019-02-06T12:53:53Z</time>
      </trkpt>
      <trkpt lat="46.23594" lon="6.55419">
        <ele>1486.82</ele>
        <time>2019-02-06T12:53:55Z</time>
      </trkpt>
      <trkpt lat="46.23589" lon="6.55433">
        <ele>1487.3</ele>
        <time>2019-02-06T12:54:07Z</time>
      </trkpt>
      <trkpt lat="46.23584" lon="6.55445">
        <ele>1487.3</ele>
        <time>2019-02-06T12:54:19Z</time>
      </trkpt>
      <trkpt lat="46.23582" lon="6.55449">
        <ele>1486.82</ele>
        <time>2019-02-06T12:54:23Z</time>
      </trkpt>
      <trkpt lat="46.23573" lon="6.55458">
        <ele>1486.82</ele>
        <time>2019-02-06T12:54:36Z</time>
      </trkpt>
      <trkpt lat="46.23572" lon="6.55459">
        <ele>1487.3</ele>
        <time>2019-02-06T12:54:37Z</time>
      </trkpt>
      <trkpt lat="46.23564" lon="6.5547">
        <ele>1486.82</ele>
        <time>2019-02-06T12:54:49Z</time>
      </trkpt>
      <trkpt lat="46.23562" lon="6.55474">
        <ele>1486.82</ele>
        <time>2019-02-06T12:54:54Z</time>
      </trkpt>
      <trkpt lat="46.23558" lon="6.55479">
        <ele>1486.34</ele>
        <time>2019-02-06T12:54:59Z</time>
      </trkpt>
      <trkpt lat="46.23551" lon="6.55491">
        <ele>1485.85</ele>
        <time>2019-02-06T12:55:12Z</time>
      </trkpt>
      <trkpt lat="46.23545" lon="6.55501">
        <ele>1485.85</ele>
        <time>2019-02-06T12:55:22Z</time>
      </trkpt>
      <trkpt lat="46.2354" lon="6.55508">
        <ele>1486.34</ele>
        <time>2019-02-06T12:55:31Z</time>
      </trkpt>
      <trkpt lat="46.23533" lon="6.55515">
        <ele>1486.34</ele>
        <time>2019-02-06T12:55:42Z</time>
      </trkpt>
      <trkpt lat="46.23533" lon="6.55515">
        <ele>1486.82</ele>
        <time>2019-02-06T12:55:43Z</time>
      </trkpt>
      <trkpt lat="46.23531" lon="6.55516">
        <ele>1486.34</ele>
        <time>2019-02-06T12:55:46Z</time>
      </trkpt>
      <trkpt lat="46.23523" lon="6.55521">
        <ele>1487.3</ele>
        <time>2019-02-06T12:55:57Z</time>
      </trkpt>
      <trkpt lat="46.23517" lon="6.55529">
        <ele>1487.78</ele>
        <time>2019-02-06T12:56:08Z</time>
      </trkpt>
      <trkpt lat="46.23511" lon="6.5554">
        <ele>1488.74</ele>
        <time>2019-02-06T12:56:19Z</time>
      </trkpt>
      <trkpt lat="46.23505" lon="6.55551">
        <ele>1489.7</ele>
        <time>2019-02-06T12:56:30Z</time>
      </trkpt>
      <trkpt lat="46.23501" lon="6.55556">
        <ele>1489.7</ele>
        <time>2019-02-06T12:56:37Z</time>
      </trkpt>
      <trkpt lat="46.23497" lon="6.55565">
        <ele>1491.14</ele>
        <time>2019-02-06T12:56:48Z</time>
      </trkpt>
      <trkpt lat="46.23493" lon="6.55572">
        <ele>1491.62</ele>
        <time>2019-02-06T12:56:58Z</time>
      </trkpt>
      <trkpt lat="46.23489" lon="6.55577">
        <ele>1493.06</ele>
        <time>2019-02-06T12:57:08Z</time>
      </trkpt>
      <trkpt lat="46.23485" lon="6.55584">
        <ele>1494.51</ele>
        <time>2019-02-06T12:57:21Z</time>
      </trkpt>
      <trkpt lat="46.23482" lon="6.55591">
        <ele>1496.43</ele>
        <time>2019-02-06T12:57:32Z</time>
      </trkpt>
      <trkpt lat="46.23478" lon="6.55599">
        <ele>1496.91</ele>
        <time>2019-02-06T12:57:42Z</time>
      </trkpt>
      <trkpt lat="46.23474" lon="6.55608">
        <ele>1497.87</ele>
        <time>2019-02-06T12:57:53Z</time>
      </trkpt>
      <trkpt lat="46.23475" lon="6.55614">
        <ele>1497.87</ele>
        <time>2019-02-06T12:57:58Z</time>
      </trkpt>
      <trkpt lat="46.23477" lon="6.55625">
        <ele>1498.35</ele>
        <time>2019-02-06T12:58:10Z</time>
      </trkpt>
      <trkpt lat="46.23477" lon="6.55637">
        <ele>1499.31</ele>
        <time>2019-02-06T12:58:22Z</time>
      </trkpt>
      <trkpt lat="46.23479" lon="6.55652">
        <ele>1499.31</ele>
        <time>2019-02-06T12:58:36Z</time>
      </trkpt>
      <trkpt lat="46.23478" lon="6.55657">
        <ele>1499.31</ele>
        <time>2019-02-06T12:58:40Z</time>
      </trkpt>
      <trkpt lat="46.23477" lon="6.55658">
        <ele>1499.79</ele>
        <time>2019-02-06T12:58:42Z</time>
      </trkpt>
      <trkpt lat="46.23474" lon="6.55671">
        <ele>1499.79</ele>
        <time>2019-02-06T12:58:54Z</time>
      </trkpt>
      <trkpt lat="46.23472" lon="6.55683">
        <ele>1501.24</ele>
        <time>2019-02-06T12:59:05Z</time>
      </trkpt>
      <trkpt lat="46.2347" lon="6.55694">
        <ele>1501.72</ele>
        <time>2019-02-06T12:59:16Z</time>
      </trkpt>
      <trkpt lat="46.23467" lon="6.55705">
        <ele>1502.68</ele>
        <time>2019-02-06T12:59:28Z</time>
      </trkpt>
      <trkpt lat="46.23465" lon="6.55716">
        <ele>1503.16</ele>
        <time>2019-02-06T12:59:39Z</time>
      </trkpt>
      <trkpt lat="46.23465" lon="6.55727">
        <ele>1503.64</ele>
        <time>2019-02-06T12:59:50Z</time>
      </trkpt>
      <trkpt lat="46.23464" lon="6.55739">
        <ele>1504.6</ele>
        <time>2019-02-06T13:00:00Z</time>
      </trkpt>
      <trkpt lat="46.23461" lon="6.55752">
        <ele>1505.08</ele>
        <time>2019-02-06T13:00:12Z</time>
      </trkpt>
      <trkpt lat="46.23459" lon="6.55765">
        <ele>1505.56</ele>
        <time>2019-02-06T13:00:24Z</time>
      </trkpt>
      <trkpt lat="46.23456" lon="6.55773">
        <ele>1506.04</ele>
        <time>2019-02-06T13:00:34Z</time>
      </trkpt>
      <trkpt lat="46.23452" lon="6.55784">
        <ele>1507</ele>
        <time>2019-02-06T13:00:46Z</time>
      </trkpt>
      <trkpt lat="46.23445" lon="6.55795">
        <ele>1507</ele>
        <time>2019-02-06T13:00:59Z</time>
      </trkpt>
      <trkpt lat="46.23439" lon="6.55803">
        <ele>1507.48</ele>
        <time>2019-02-06T13:01:10Z</time>
      </trkpt>
      <trkpt lat="46.23434" lon="6.55811">
        <ele>1507.97</ele>
        <time>2019-02-06T13:01:20Z</time>
      </trkpt>
      <trkpt lat="46.23431" lon="6.55817">
        <ele>1507.97</ele>
        <time>2019-02-06T13:01:27Z</time>
      </trkpt>
      <trkpt lat="46.23426" lon="6.55829">
        <ele>1508.93</ele>
        <time>2019-02-06T13:01:40Z</time>
      </trkpt>
      <trkpt lat="46.23428" lon="6.55834">
        <ele>1508.93</ele>
        <time>2019-02-06T13:01:47Z</time>
      </trkpt>
      <trkpt lat="46.23434" lon="6.55842">
        <ele>1509.41</ele>
        <time>2019-02-06T13:01:58Z</time>
      </trkpt>
      <trkpt lat="46.23435" lon="6.55845">
        <ele>1509.41</ele>
        <time>2019-02-06T13:02:01Z</time>
      </trkpt>
      <trkpt lat="46.2344" lon="6.55849">
        <ele>1509.41</ele>
        <time>2019-02-06T13:02:08Z</time>
      </trkpt>
      <trkpt lat="46.23443" lon="6.55859">
        <ele>1509.41</ele>
        <time>2019-02-06T13:02:19Z</time>
      </trkpt>
      <trkpt lat="46.23444" lon="6.55861">
        <ele>1509.41</ele>
        <time>2019-02-06T13:02:23Z</time>
      </trkpt>
      <trkpt lat="46.23452" lon="6.55869">
        <ele>1508.93</ele>
        <time>2019-02-06T13:02:35Z</time>
      </trkpt>
      <trkpt lat="46.2346" lon="6.55878">
        <ele>1508.45</ele>
        <time>2019-02-06T13:02:47Z</time>
      </trkpt>
      <trkpt lat="46.23466" lon="6.55887">
        <ele>1507.97</ele>
        <time>2019-02-06T13:03:00Z</time>
      </trkpt>
      <trkpt lat="46.23472" lon="6.55892">
        <ele>1508.45</ele>
        <time>2019-02-06T13:03:11Z</time>
      </trkpt>
      <trkpt lat="46.23479" lon="6.55899">
        <ele>1507.97</ele>
        <time>2019-02-06T13:03:22Z</time>
      </trkpt>
      <trkpt lat="46.23485" lon="6.55903">
        <ele>1506.52</ele>
        <time>2019-02-06T13:03:34Z</time>
      </trkpt>
      <trkpt lat="46.23494" lon="6.5591">
        <ele>1506.52</ele>
        <time>2019-02-06T13:03:46Z</time>
      </trkpt>
      <trkpt lat="46.23503" lon="6.55916">
        <ele>1505.56</ele>
        <time>2019-02-06T13:03:59Z</time>
      </trkpt>
      <trkpt lat="46.23513" lon="6.55922">
        <ele>1505.08</ele>
        <time>2019-02-06T13:04:12Z</time>
      </trkpt>
      <trkpt lat="46.23522" lon="6.55928">
        <ele>1504.6</ele>
        <time>2019-02-06T13:04:24Z</time>
      </trkpt>
      <trkpt lat="46.23531" lon="6.55933">
        <ele>1505.08</ele>
        <time>2019-02-06T13:04:37Z</time>
      </trkpt>
      <trkpt lat="46.23538" lon="6.55938">
        <ele>1505.56</ele>
        <time>2019-02-06T13:04:48Z</time>
      </trkpt>
      <trkpt lat="46.23544" lon="6.55943">
        <ele>1506.04</ele>
        <time>2019-02-06T13:04:58Z</time>
      </trkpt>
      <trkpt lat="46.23544" lon="6.55943">
        <ele>1506.04</ele>
        <time>2019-02-06T13:05:29Z</time>
      </trkpt>
      <trkpt lat="46.23544" lon="6.55943">
        <ele>1506.04</ele>
        <time>2019-02-06T13:06:59Z</time>
      </trkpt>
      <trkpt lat="46.23544" lon="6.55942">
        <ele>1506.04</ele>
        <time>2019-02-06T13:09:51Z</time>
      </trkpt>
      <trkpt lat="46.23545" lon="6.55943">
        <ele>1506.52</ele>
        <time>2019-02-06T13:10:36Z</time>
      </trkpt>
      <trkpt lat="46.23551" lon="6.5595">
        <ele>1506.52</ele>
        <time>2019-02-06T13:10:46Z</time>
      </trkpt>
      <trkpt lat="46.23558" lon="6.55958">
        <ele>1506.52</ele>
        <time>2019-02-06T13:10:59Z</time>
      </trkpt>
      <trkpt lat="46.23567" lon="6.55966">
        <ele>1507.48</ele>
        <time>2019-02-06T13:11:13Z</time>
      </trkpt>
      <trkpt lat="46.23576" lon="6.55973">
        <ele>1507.48</ele>
        <time>2019-02-06T13:11:26Z</time>
      </trkpt>
      <trkpt lat="46.23585" lon="6.55978">
        <ele>1506.52</ele>
        <time>2019-02-06T13:11:40Z</time>
      </trkpt>
      <trkpt lat="46.23594" lon="6.55985">
        <ele>1506.04</ele>
        <time>2019-02-06T13:11:54Z</time>
      </trkpt>
      <trkpt lat="46.23604" lon="6.55992">
        <ele>1504.6</ele>
        <time>2019-02-06T13:12:07Z</time>
      </trkpt>
      <trkpt lat="46.23614" lon="6.56003">
        <ele>1504.12</ele>
        <time>2019-02-06T13:12:22Z</time>
      </trkpt>
      <trkpt lat="46.23618" lon="6.56018">
        <ele>1504.12</ele>
        <time>2019-02-06T13:12:35Z</time>
      </trkpt>
      <trkpt lat="46.23617" lon="6.56033">
        <ele>1503.16</ele>
        <time>2019-02-06T13:12:49Z</time>
      </trkpt>
      <trkpt lat="46.23616" lon="6.56048">
        <ele>1503.16</ele>
        <time>2019-02-06T13:13:02Z</time>
      </trkpt>
      <trkpt lat="46.23615" lon="6.56053">
        <ele>1502.2</ele>
        <time>2019-02-06T13:13:14Z</time>
      </trkpt>
      <trkpt lat="46.23614" lon="6.56067">
        <ele>1502.2</ele>
        <time>2019-02-06T13:13:26Z</time>
      </trkpt>
      <trkpt lat="46.23615" lon="6.56077">
        <ele>1501.72</ele>
        <time>2019-02-06T13:13:36Z</time>
      </trkpt>
      <trkpt lat="46.23621" lon="6.56085">
        <ele>1502.2</ele>
        <time>2019-02-06T13:13:48Z</time>
      </trkpt>
      <trkpt lat="46.23623" lon="6.56088">
        <ele>1502.2</ele>
        <time>2019-02-06T13:13:59Z</time>
      </trkpt>
      <trkpt lat="46.23631" lon="6.56095">
        <ele>1503.16</ele>
        <time>2019-02-06T13:14:13Z</time>
      </trkpt>
      <trkpt lat="46.23642" lon="6.56103">
        <ele>1503.64</ele>
        <time>2019-02-06T13:14:26Z</time>
      </trkpt>
      <trkpt lat="46.23646" lon="6.56108">
        <ele>1504.12</ele>
        <time>2019-02-06T13:14:38Z</time>
      </trkpt>
      <trkpt lat="46.23655" lon="6.56117">
        <ele>1504.6</ele>
        <time>2019-02-06T13:14:50Z</time>
      </trkpt>
      <trkpt lat="46.23661" lon="6.56122">
        <ele>1504.6</ele>
        <time>2019-02-06T13:15:00Z</time>
      </trkpt>
      <trkpt lat="46.23667" lon="6.5613">
        <ele>1505.56</ele>
        <time>2019-02-06T13:15:11Z</time>
      </trkpt>
      <trkpt lat="46.23671" lon="6.56135">
        <ele>1505.56</ele>
        <time>2019-02-06T13:15:21Z</time>
      </trkpt>
      <trkpt lat="46.23674" lon="6.56145">
        <ele>1506.04</ele>
        <time>2019-02-06T13:15:33Z</time>
      </trkpt>
      <trkpt lat="46.23678" lon="6.56155">
        <ele>1506.52</ele>
        <time>2019-02-06T13:15:45Z</time>
      </trkpt>
      <trkpt lat="46.23682" lon="6.56164">
        <ele>1507</ele>
        <time>2019-02-06T13:15:57Z</time>
      </trkpt>
      <trkpt lat="46.23685" lon="6.56172">
        <ele>1507.97</ele>
        <time>2019-02-06T13:16:07Z</time>
      </trkpt>
      <trkpt lat="46.23687" lon="6.56178">
        <ele>1507.97</ele>
        <time>2019-02-06T13:16:16Z</time>
      </trkpt>
      <trkpt lat="46.23692" lon="6.56188">
        <ele>1508.45</ele>
        <time>2019-02-06T13:16:29Z</time>
      </trkpt>
      <trkpt lat="46.23693" lon="6.56196">
        <ele>1508.45</ele>
        <time>2019-02-06T13:16:40Z</time>
      </trkpt>
      <trkpt lat="46.23695" lon="6.56204">
        <ele>1509.41</ele>
        <time>2019-02-06T13:16:52Z</time>
      </trkpt>
      <trkpt lat="46.23701" lon="6.56218">
        <ele>1509.89</ele>
        <time>2019-02-06T13:17:06Z</time>
      </trkpt>
      <trkpt lat="46.23705" lon="6.56225">
        <ele>1510.37</ele>
        <time>2019-02-06T13:17:19Z</time>
      </trkpt>
      <trkpt lat="46.23706" lon="6.56228">
        <ele>1510.85</ele>
        <time>2019-02-06T13:17:24Z</time>
      </trkpt>
      <trkpt lat="46.23713" lon="6.5624">
        <ele>1511.81</ele>
        <time>2019-02-06T13:17:37Z</time>
      </trkpt>
      <trkpt lat="46.23718" lon="6.56246">
        <ele>1511.81</ele>
        <time>2019-02-06T13:17:49Z</time>
      </trkpt>
      <trkpt lat="46.23724" lon="6.56255">
        <ele>1512.29</ele>
        <time>2019-02-06T13:17:59Z</time>
      </trkpt>
      <trkpt lat="46.23729" lon="6.56262">
        <ele>1511.81</ele>
        <time>2019-02-06T13:18:10Z</time>
      </trkpt>
      <trkpt lat="46.23731" lon="6.56265">
        <ele>1511.81</ele>
        <time>2019-02-06T13:18:16Z</time>
      </trkpt>
      <trkpt lat="46.23735" lon="6.56273">
        <ele>1511.81</ele>
        <time>2019-02-06T13:18:26Z</time>
      </trkpt>
      <trkpt lat="46.23742" lon="6.56284">
        <ele>1511.33</ele>
        <time>2019-02-06T13:18:40Z</time>
      </trkpt>
      <trkpt lat="46.23746" lon="6.56291">
        <ele>1511.33</ele>
        <time>2019-02-06T13:18:51Z</time>
      </trkpt>
      <trkpt lat="46.2375" lon="6.56297">
        <ele>1510.85</ele>
        <time>2019-02-06T13:19:03Z</time>
      </trkpt>
      <trkpt lat="46.2375" lon="6.563">
        <ele>1510.85</ele>
        <time>2019-02-06T13:19:13Z</time>
      </trkpt>
      <trkpt lat="46.2375" lon="6.563">
        <ele>1510.37</ele>
        <time>2019-02-06T13:19:51Z</time>
      </trkpt>
      <trkpt lat="46.2375" lon="6.56301">
        <ele>1510.37</ele>
        <time>2019-02-06T13:21:55Z</time>
      </trkpt>
      <trkpt lat="46.23749" lon="6.56302">
        <ele>1509.89</ele>
        <time>2019-02-06T13:22:29Z</time>
      </trkpt>
      <trkpt lat="46.2375" lon="6.56301">
        <ele>1510.85</ele>
        <time>2019-02-06T13:23:50Z</time>
      </trkpt>
      <trkpt lat="46.2375" lon="6.56302">
        <ele>1511.33</ele>
        <time>2019-02-06T13:24:43Z</time>
      </trkpt>
      <trkpt lat="46.2375" lon="6.56306">
        <ele>1510.85</ele>
        <time>2019-02-06T13:25:08Z</time>
      </trkpt>
      <trkpt lat="46.2375" lon="6.5631">
        <ele>1510.37</ele>
        <time>2019-02-06T13:25:11Z</time>
      </trkpt>
      <trkpt lat="46.23749" lon="6.56327">
        <ele>1510.37</ele>
        <time>2019-02-06T13:25:24Z</time>
      </trkpt>
      <trkpt lat="46.23745" lon="6.56338">
        <ele>1509.89</ele>
        <time>2019-02-06T13:25:38Z</time>
      </trkpt>
      <trkpt lat="46.23743" lon="6.56341">
        <ele>1510.37</ele>
        <time>2019-02-06T13:25:41Z</time>
      </trkpt>
      <trkpt lat="46.23736" lon="6.56353">
        <ele>1509.41</ele>
        <time>2019-02-06T13:25:54Z</time>
      </trkpt>
      <trkpt lat="46.23731" lon="6.5636">
        <ele>1509.41</ele>
        <time>2019-02-06T13:26:05Z</time>
      </trkpt>
      <trkpt lat="46.23727" lon="6.5637">
        <ele>1509.41</ele>
        <time>2019-02-06T13:26:20Z</time>
      </trkpt>
      <trkpt lat="46.23721" lon="6.56379">
        <ele>1508.45</ele>
        <time>2019-02-06T13:26:34Z</time>
      </trkpt>
      <trkpt lat="46.23716" lon="6.56388">
        <ele>1507.48</ele>
        <time>2019-02-06T13:26:49Z</time>
      </trkpt>
      <trkpt lat="46.23711" lon="6.56395">
        <ele>1507</ele>
        <time>2019-02-06T13:27:03Z</time>
      </trkpt>
      <trkpt lat="46.23703" lon="6.56403">
        <ele>1507</ele>
        <time>2019-02-06T13:27:15Z</time>
      </trkpt>
      <trkpt lat="46.23698" lon="6.56412">
        <ele>1507</ele>
        <time>2019-02-06T13:27:26Z</time>
      </trkpt>
      <trkpt lat="46.23692" lon="6.5642">
        <ele>1506.04</ele>
        <time>2019-02-06T13:27:38Z</time>
      </trkpt>
      <trkpt lat="46.23686" lon="6.56429">
        <ele>1505.56</ele>
        <time>2019-02-06T13:27:50Z</time>
      </trkpt>
      <trkpt lat="46.23682" lon="6.56438">
        <ele>1504.6</ele>
        <time>2019-02-06T13:28:01Z</time>
      </trkpt>
      <trkpt lat="46.23678" lon="6.56447">
        <ele>1504.12</ele>
        <time>2019-02-06T13:28:12Z</time>
      </trkpt>
      <trkpt lat="46.23675" lon="6.56458">
        <ele>1503.64</ele>
        <time>2019-02-06T13:28:24Z</time>
      </trkpt>
      <trkpt lat="46.23672" lon="6.56468">
        <ele>1503.16</ele>
        <time>2019-02-06T13:28:36Z</time>
      </trkpt>
      <trkpt lat="46.23669" lon="6.56478">
        <ele>1502.68</ele>
        <time>2019-02-06T13:28:47Z</time>
      </trkpt>
      <trkpt lat="46.23669" lon="6.56488">
        <ele>1503.16</ele>
        <time>2019-02-06T13:29:01Z</time>
      </trkpt>
      <trkpt lat="46.23666" lon="6.565">
        <ele>1503.16</ele>
        <time>2019-02-06T13:29:12Z</time>
      </trkpt>
      <trkpt lat="46.23665" lon="6.56509">
        <ele>1502.68</ele>
        <time>2019-02-06T13:29:24Z</time>
      </trkpt>
      <trkpt lat="46.23663" lon="6.56521">
        <ele>1502.2</ele>
        <time>2019-02-06T13:29:37Z</time>
      </trkpt>
      <trkpt lat="46.23663" lon="6.56532">
        <ele>1502.68</ele>
        <time>2019-02-06T13:29:49Z</time>
      </trkpt>
      <trkpt lat="46.23661" lon="6.56538">
        <ele>1502.2</ele>
        <time>2019-02-06T13:29:59Z</time>
      </trkpt>
      <trkpt lat="46.23662" lon="6.56549">
        <ele>1502.68</ele>
        <time>2019-02-06T13:30:13Z</time>
      </trkpt>
      <trkpt lat="46.23662" lon="6.56552">
        <ele>1503.64</ele>
        <time>2019-02-06T13:30:25Z</time>
      </trkpt>
      <trkpt lat="46.23662" lon="6.56553">
        <ele>1503.64</ele>
        <time>2019-02-06T13:31:14Z</time>
      </trkpt>
      <trkpt lat="46.23662" lon="6.56553">
        <ele>1504.12</ele>
        <time>2019-02-06T13:31:42Z</time>
      </trkpt>
      <trkpt lat="46.23661" lon="6.56565">
        <ele>1504.12</ele>
        <time>2019-02-06T13:31:56Z</time>
      </trkpt>
      <trkpt lat="46.23661" lon="6.5658">
        <ele>1505.08</ele>
        <time>2019-02-06T13:32:10Z</time>
      </trkpt>
      <trkpt lat="46.23661" lon="6.56593">
        <ele>1505.56</ele>
        <time>2019-02-06T13:32:23Z</time>
      </trkpt>
      <trkpt lat="46.2366" lon="6.56603">
        <ele>1505.56</ele>
        <time>2019-02-06T13:32:35Z</time>
      </trkpt>
      <trkpt lat="46.2366" lon="6.5661">
        <ele>1506.52</ele>
        <time>2019-02-06T13:32:47Z</time>
      </trkpt>
      <trkpt lat="46.23661" lon="6.5662">
        <ele>1506.52</ele>
        <time>2019-02-06T13:32:58Z</time>
      </trkpt>
      <trkpt lat="46.23664" lon="6.56627">
        <ele>1507</ele>
        <time>2019-02-06T13:33:10Z</time>
      </trkpt>
      <trkpt lat="46.23672" lon="6.56637">
        <ele>1507</ele>
        <time>2019-02-06T13:33:22Z</time>
      </trkpt>
      <trkpt lat="46.23679" lon="6.56647">
        <ele>1507</ele>
        <time>2019-02-06T13:33:35Z</time>
      </trkpt>
      <trkpt lat="46.23681" lon="6.5665">
        <ele>1506.52</ele>
        <time>2019-02-06T13:33:39Z</time>
      </trkpt>
      <trkpt lat="46.23688" lon="6.5666">
        <ele>1506.04</ele>
        <time>2019-02-06T13:33:53Z</time>
      </trkpt>
      <trkpt lat="46.23691" lon="6.56668">
        <ele>1505.08</ele>
        <time>2019-02-06T13:34:01Z</time>
      </trkpt>
      <trkpt lat="46.23696" lon="6.56673">
        <ele>1504.6</ele>
        <time>2019-02-06T13:34:08Z</time>
      </trkpt>
      <trkpt lat="46.23705" lon="6.56684">
        <ele>1503.16</ele>
        <time>2019-02-06T13:34:20Z</time>
      </trkpt>
      <trkpt lat="46.23706" lon="6.56686">
        <ele>1503.16</ele>
        <time>2019-02-06T13:34:23Z</time>
      </trkpt>
      <trkpt lat="46.23709" lon="6.56692">
        <ele>1502.68</ele>
        <time>2019-02-06T13:34:29Z</time>
      </trkpt>
      <trkpt lat="46.2371" lon="6.56706">
        <ele>1502.2</ele>
        <time>2019-02-06T13:34:42Z</time>
      </trkpt>
      <trkpt lat="46.2371" lon="6.5672">
        <ele>1501.72</ele>
        <time>2019-02-06T13:34:54Z</time>
      </trkpt>
      <trkpt lat="46.23709" lon="6.56732">
        <ele>1501.72</ele>
        <time>2019-02-06T13:35:05Z</time>
      </trkpt>
      <trkpt lat="46.23709" lon="6.56745">
        <ele>1500.76</ele>
        <time>2019-02-06T13:35:17Z</time>
      </trkpt>
      <trkpt lat="46.2371" lon="6.56747">
        <ele>1500.27</ele>
        <time>2019-02-06T13:35:19Z</time>
      </trkpt>
      <trkpt lat="46.23712" lon="6.56753">
        <ele>1500.76</ele>
        <time>2019-02-06T13:35:32Z</time>
      </trkpt>
      <trkpt lat="46.23714" lon="6.56762">
        <ele>1499.79</ele>
        <time>2019-02-06T13:35:43Z</time>
      </trkpt>
      <trkpt lat="46.23711" lon="6.56776">
        <ele>1499.31</ele>
        <time>2019-02-06T13:35:55Z</time>
      </trkpt>
      <trkpt lat="46.23703" lon="6.56786">
        <ele>1498.83</ele>
        <time>2019-02-06T13:36:11Z</time>
      </trkpt>
      <trkpt lat="46.23695" lon="6.56791">
        <ele>1498.83</ele>
        <time>2019-02-06T13:36:22Z</time>
      </trkpt>
      <trkpt lat="46.23685" lon="6.56795">
        <ele>1497.39</ele>
        <time>2019-02-06T13:36:36Z</time>
      </trkpt>
      <trkpt lat="46.23677" lon="6.56796">
        <ele>1496.43</ele>
        <time>2019-02-06T13:36:46Z</time>
      </trkpt>
      <trkpt lat="46.23669" lon="6.56801">
        <ele>1495.47</ele>
        <time>2019-02-06T13:36:59Z</time>
      </trkpt>
      <trkpt lat="46.23665" lon="6.56805">
        <ele>1495.95</ele>
        <time>2019-02-06T13:37:06Z</time>
      </trkpt>
      <trkpt lat="46.23659" lon="6.56815">
        <ele>1495.47</ele>
        <time>2019-02-06T13:37:19Z</time>
      </trkpt>
      <trkpt lat="46.23659" lon="6.56818">
        <ele>1494.99</ele>
        <time>2019-02-06T13:37:23Z</time>
      </trkpt>
      <trkpt lat="46.23654" lon="6.56827">
        <ele>1494.99</ele>
        <time>2019-02-06T13:37:35Z</time>
      </trkpt>
      <trkpt lat="46.23651" lon="6.56834">
        <ele>1494.51</ele>
        <time>2019-02-06T13:37:54Z</time>
      </trkpt>
      <trkpt lat="46.23649" lon="6.56838">
        <ele>1494.99</ele>
        <time>2019-02-06T13:38:08Z</time>
      </trkpt>
      <trkpt lat="46.23645" lon="6.56844">
        <ele>1494.99</ele>
        <time>2019-02-06T13:38:17Z</time>
      </trkpt>
      <trkpt lat="46.23644" lon="6.56846">
        <ele>1494.99</ele>
        <time>2019-02-06T13:38:33Z</time>
      </trkpt>
      <trkpt lat="46.23644" lon="6.56847">
        <ele>1495.47</ele>
        <time>2019-02-06T13:38:58Z</time>
      </trkpt>
      <trkpt lat="46.23644" lon="6.56847">
        <ele>1495.47</ele>
        <time>2019-02-06T13:39:36Z</time>
      </trkpt>
      <trkpt lat="46.23643" lon="6.56849">
        <ele>1495.47</ele>
        <time>2019-02-06T13:40:26Z</time>
      </trkpt>
      <trkpt lat="46.23638" lon="6.56862">
        <ele>1496.43</ele>
        <time>2019-02-06T13:40:37Z</time>
      </trkpt>
      <trkpt lat="46.23633" lon="6.56872">
        <ele>1497.39</ele>
        <time>2019-02-06T13:40:48Z</time>
      </trkpt>
      <trkpt lat="46.23628" lon="6.5688">
        <ele>1497.39</ele>
        <time>2019-02-06T13:40:59Z</time>
      </trkpt>
      <trkpt lat="46.23625" lon="6.56888">
        <ele>1498.35</ele>
        <time>2019-02-06T13:41:10Z</time>
      </trkpt>
      <trkpt lat="46.23621" lon="6.56896">
        <ele>1498.35</ele>
        <time>2019-02-06T13:41:21Z</time>
      </trkpt>
      <trkpt lat="46.2362" lon="6.56904">
        <ele>1499.31</ele>
        <time>2019-02-06T13:41:32Z</time>
      </trkpt>
      <trkpt lat="46.23622" lon="6.56909">
        <ele>1499.79</ele>
        <time>2019-02-06T13:41:42Z</time>
      </trkpt>
      <trkpt lat="46.23625" lon="6.56915">
        <ele>1500.76</ele>
        <time>2019-02-06T13:41:54Z</time>
      </trkpt>
      <trkpt lat="46.2363" lon="6.56917">
        <ele>1501.24</ele>
        <time>2019-02-06T13:42:02Z</time>
      </trkpt>
      <trkpt lat="46.23636" lon="6.56924">
        <ele>1501.24</ele>
        <time>2019-02-06T13:42:14Z</time>
      </trkpt>
      <trkpt lat="46.23639" lon="6.56926">
        <ele>1502.2</ele>
        <time>2019-02-06T13:42:24Z</time>
      </trkpt>
      <trkpt lat="46.23644" lon="6.5693">
        <ele>1503.16</ele>
        <time>2019-02-06T13:42:34Z</time>
      </trkpt>
      <trkpt lat="46.23647" lon="6.56934">
        <ele>1503.16</ele>
        <time>2019-02-06T13:42:47Z</time>
      </trkpt>
      <trkpt lat="46.23651" lon="6.56937">
        <ele>1504.12</ele>
        <time>2019-02-06T13:42:58Z</time>
      </trkpt>
      <trkpt lat="46.23658" lon="6.56945">
        <ele>1504.12</ele>
        <time>2019-02-06T13:43:09Z</time>
      </trkpt>
      <trkpt lat="46.23663" lon="6.56951">
        <ele>1504.6</ele>
        <time>2019-02-06T13:43:19Z</time>
      </trkpt>
      <trkpt lat="46.23669" lon="6.56959">
        <ele>1505.08</ele>
        <time>2019-02-06T13:43:30Z</time>
      </trkpt>
      <trkpt lat="46.23671" lon="6.56962">
        <ele>1505.08</ele>
        <time>2019-02-06T13:43:40Z</time>
      </trkpt>
      <trkpt lat="46.23672" lon="6.56964">
        <ele>1505.56</ele>
        <time>2019-02-06T13:43:46Z</time>
      </trkpt>
      <trkpt lat="46.23673" lon="6.56965">
        <ele>1506.04</ele>
        <time>2019-02-06T13:43:48Z</time>
      </trkpt>
      <trkpt lat="46.2368" lon="6.56975">
        <ele>1506.04</ele>
        <time>2019-02-06T13:43:59Z</time>
      </trkpt>
      <trkpt lat="46.23683" lon="6.56979">
        <ele>1506.04</ele>
        <time>2019-02-06T13:44:05Z</time>
      </trkpt>
      <trkpt lat="46.2369" lon="6.56988">
        <ele>1506.04</ele>
        <time>2019-02-06T13:44:17Z</time>
      </trkpt>
      <trkpt lat="46.23695" lon="6.56998">
        <ele>1506.52</ele>
        <time>2019-02-06T13:44:32Z</time>
      </trkpt>
      <trkpt lat="46.237" lon="6.57005">
        <ele>1507.48</ele>
        <time>2019-02-06T13:44:43Z</time>
      </trkpt>
      <trkpt lat="46.23703" lon="6.57011">
        <ele>1507.48</ele>
        <time>2019-02-06T13:44:53Z</time>
      </trkpt>
      <trkpt lat="46.23707" lon="6.57017">
        <ele>1507.48</ele>
        <time>2019-02-06T13:45:03Z</time>
      </trkpt>
      <trkpt lat="46.23712" lon="6.57024">
        <ele>1508.93</ele>
        <time>2019-02-06T13:45:14Z</time>
      </trkpt>
      <trkpt lat="46.23717" lon="6.57032">
        <ele>1509.41</ele>
        <time>2019-02-06T13:45:25Z</time>
      </trkpt>
      <trkpt lat="46.23724" lon="6.5704">
        <ele>1509.41</ele>
        <time>2019-02-06T13:45:37Z</time>
      </trkpt>
      <trkpt lat="46.23724" lon="6.57041">
        <ele>1509.41</ele>
        <time>2019-02-06T13:45:38Z</time>
      </trkpt>
      <trkpt lat="46.23728" lon="6.57048">
        <ele>1509.89</ele>
        <time>2019-02-06T13:45:50Z</time>
      </trkpt>
      <trkpt lat="46.2373" lon="6.5705">
        <ele>1509.89</ele>
        <time>2019-02-06T13:45:54Z</time>
      </trkpt>
      <trkpt lat="46.23734" lon="6.57059">
        <ele>1510.85</ele>
        <time>2019-02-06T13:46:08Z</time>
      </trkpt>
      <trkpt lat="46.23739" lon="6.57067">
        <ele>1511.33</ele>
        <time>2019-02-06T13:46:19Z</time>
      </trkpt>
      <trkpt lat="46.23742" lon="6.57075">
        <ele>1511.81</ele>
        <time>2019-02-06T13:46:29Z</time>
      </trkpt>
      <trkpt lat="46.23746" lon="6.57081">
        <ele>1511.81</ele>
        <time>2019-02-06T13:46:39Z</time>
      </trkpt>
      <trkpt lat="46.23752" lon="6.57089">
        <ele>1511.81</ele>
        <time>2019-02-06T13:46:51Z</time>
      </trkpt>
      <trkpt lat="46.23754" lon="6.57091">
        <ele>1511.81</ele>
        <time>2019-02-06T13:46:55Z</time>
      </trkpt>
      <trkpt lat="46.23759" lon="6.57098">
        <ele>1511.33</ele>
        <time>2019-02-06T13:47:06Z</time>
      </trkpt>
      <trkpt lat="46.23766" lon="6.57103">
        <ele>1510.85</ele>
        <time>2019-02-06T13:47:15Z</time>
      </trkpt>
      <trkpt lat="46.23771" lon="6.57109">
        <ele>1510.85</ele>
        <time>2019-02-06T13:47:27Z</time>
      </trkpt>
      <trkpt lat="46.23778" lon="6.57115">
        <ele>1510.37</ele>
        <time>2019-02-06T13:47:39Z</time>
      </trkpt>
      <trkpt lat="46.23784" lon="6.5712">
        <ele>1510.37</ele>
        <time>2019-02-06T13:47:50Z</time>
      </trkpt>
      <trkpt lat="46.23788" lon="6.57129">
        <ele>1509.89</ele>
        <time>2019-02-06T13:48:01Z</time>
      </trkpt>
      <trkpt lat="46.23788" lon="6.57143">
        <ele>1508.93</ele>
        <time>2019-02-06T13:48:14Z</time>
      </trkpt>
      <trkpt lat="46.23787" lon="6.57155">
        <ele>1508.93</ele>
        <time>2019-02-06T13:48:25Z</time>
      </trkpt>
      <trkpt lat="46.23787" lon="6.57166">
        <ele>1508.45</ele>
        <time>2019-02-06T13:48:36Z</time>
      </trkpt>
      <trkpt lat="46.23789" lon="6.57169">
        <ele>1507.97</ele>
        <time>2019-02-06T13:48:42Z</time>
      </trkpt>
      <trkpt lat="46.23793" lon="6.57171">
        <ele>1507.97</ele>
        <time>2019-02-06T13:48:53Z</time>
      </trkpt>
      <trkpt lat="46.23797" lon="6.57172">
        <ele>1508.93</ele>
        <time>2019-02-06T13:49:04Z</time>
      </trkpt>
      <trkpt lat="46.23803" lon="6.57173">
        <ele>1509.41</ele>
        <time>2019-02-06T13:49:17Z</time>
      </trkpt>
      <trkpt lat="46.2381" lon="6.57173">
        <ele>1509.89</ele>
        <time>2019-02-06T13:49:28Z</time>
      </trkpt>
      <trkpt lat="46.23817" lon="6.57171">
        <ele>1509.89</ele>
        <time>2019-02-06T13:49:37Z</time>
      </trkpt>
      <trkpt lat="46.23822" lon="6.57168">
        <ele>1509.89</ele>
        <time>2019-02-06T13:49:45Z</time>
      </trkpt>
      <trkpt lat="46.2383" lon="6.57169">
        <ele>1509.41</ele>
        <time>2019-02-06T13:49:56Z</time>
      </trkpt>
      <trkpt lat="46.23836" lon="6.57171">
        <ele>1509.41</ele>
        <time>2019-02-06T13:50:03Z</time>
      </trkpt>
      <trkpt lat="46.23846" lon="6.57179">
        <ele>1508.93</ele>
        <time>2019-02-06T13:50:15Z</time>
      </trkpt>
      <trkpt lat="46.2385" lon="6.57187">
        <ele>1507.97</ele>
        <time>2019-02-06T13:50:29Z</time>
      </trkpt>
      <trkpt lat="46.23857" lon="6.57195">
        <ele>1506.52</ele>
        <time>2019-02-06T13:50:40Z</time>
      </trkpt>
      <trkpt lat="46.23865" lon="6.57202">
        <ele>1507</ele>
        <time>2019-02-06T13:50:51Z</time>
      </trkpt>
      <trkpt lat="46.2387" lon="6.57211">
        <ele>1506.52</ele>
        <time>2019-02-06T13:51:02Z</time>
      </trkpt>
      <trkpt lat="46.23874" lon="6.57216">
        <ele>1507</ele>
        <time>2019-02-06T13:51:13Z</time>
      </trkpt>
      <trkpt lat="46.23874" lon="6.57216">
        <ele>1507.48</ele>
        <time>2019-02-06T13:52:15Z</time>
      </trkpt>
      <trkpt lat="46.23874" lon="6.57216">
        <ele>1507</ele>
        <time>2019-02-06T13:53:58Z</time>
      </trkpt>
      <trkpt lat="46.23879" lon="6.5722">
        <ele>1507</ele>
        <time>2019-02-06T13:54:36Z</time>
      </trkpt>
      <trkpt lat="46.23884" lon="6.57225">
        <ele>1507.48</ele>
        <time>2019-02-06T13:54:44Z</time>
      </trkpt>
      <trkpt lat="46.23889" lon="6.57232">
        <ele>1507</ele>
        <time>2019-02-06T13:54:55Z</time>
      </trkpt>
      <trkpt lat="46.23895" lon="6.57239">
        <ele>1507.97</ele>
        <time>2019-02-06T13:55:07Z</time>
      </trkpt>
      <trkpt lat="46.239" lon="6.57247">
        <ele>1508.93</ele>
        <time>2019-02-06T13:55:19Z</time>
      </trkpt>
      <trkpt lat="46.23903" lon="6.57254">
        <ele>1508.45</ele>
        <time>2019-02-06T13:55:30Z</time>
      </trkpt>
      <trkpt lat="46.2391" lon="6.57265">
        <ele>1509.41</ele>
        <time>2019-02-06T13:55:45Z</time>
      </trkpt>
      <trkpt lat="46.23914" lon="6.57271">
        <ele>1509.41</ele>
        <time>2019-02-06T13:55:57Z</time>
      </trkpt>
      <trkpt lat="46.23916" lon="6.57272">
        <ele>1509.89</ele>
        <time>2019-02-06T13:56:01Z</time>
      </trkpt>
      <trkpt lat="46.23925" lon="6.57279">
        <ele>1509.41</ele>
        <time>2019-02-06T13:56:15Z</time>
      </trkpt>
      <trkpt lat="46.23933" lon="6.57285">
        <ele>1509.41</ele>
        <time>2019-02-06T13:56:27Z</time>
      </trkpt>
      <trkpt lat="46.23942" lon="6.57292">
        <ele>1507.97</ele>
        <time>2019-02-06T13:56:41Z</time>
      </trkpt>
      <trkpt lat="46.2395" lon="6.573">
        <ele>1507</ele>
        <time>2019-02-06T13:56:53Z</time>
      </trkpt>
      <trkpt lat="46.23951" lon="6.57303">
        <ele>1507</ele>
        <time>2019-02-06T13:56:58Z</time>
      </trkpt>
      <trkpt lat="46.23956" lon="6.57306">
        <ele>1506.52</ele>
        <time>2019-02-06T13:57:04Z</time>
      </trkpt>
      <trkpt lat="46.23966" lon="6.57311">
        <ele>1506.04</ele>
        <time>2019-02-06T13:57:17Z</time>
      </trkpt>
      <trkpt lat="46.23974" lon="6.57316">
        <ele>1506.04</ele>
        <time>2019-02-06T13:57:29Z</time>
      </trkpt>
      <trkpt lat="46.23982" lon="6.57317">
        <ele>1504.6</ele>
        <time>2019-02-06T13:57:41Z</time>
      </trkpt>
      <trkpt lat="46.23987" lon="6.57318">
        <ele>1503.64</ele>
        <time>2019-02-06T13:57:53Z</time>
      </trkpt>
      <trkpt lat="46.23993" lon="6.57317">
        <ele>1503.64</ele>
        <time>2019-02-06T13:58:03Z</time>
      </trkpt>
      <trkpt lat="46.24002" lon="6.57312">
        <ele>1503.64</ele>
        <time>2019-02-06T13:58:17Z</time>
      </trkpt>
      <trkpt lat="46.24009" lon="6.57314">
        <ele>1503.16</ele>
        <time>2019-02-06T13:58:24Z</time>
      </trkpt>
      <trkpt lat="46.24018" lon="6.57318">
        <ele>1502.68</ele>
        <time>2019-02-06T13:58:34Z</time>
      </trkpt>
      <trkpt lat="46.24021" lon="6.57318">
        <ele>1503.16</ele>
        <time>2019-02-06T13:58:36Z</time>
      </trkpt>
      <trkpt lat="46.24032" lon="6.5732">
        <ele>1503.16</ele>
        <time>2019-02-06T13:58:48Z</time>
      </trkpt>
      <trkpt lat="46.2404" lon="6.57322">
        <ele>1503.64</ele>
        <time>2019-02-06T13:59:01Z</time>
      </trkpt>
      <trkpt lat="46.24044" lon="6.57319">
        <ele>1504.6</ele>
        <time>2019-02-06T13:59:13Z</time>
      </trkpt>
      <trkpt lat="46.24052" lon="6.57317">
        <ele>1504.6</ele>
        <time>2019-02-06T13:59:24Z</time>
      </trkpt>
      <trkpt lat="46.24059" lon="6.57316">
        <ele>1505.08</ele>
        <time>2019-02-06T13:59:35Z</time>
      </trkpt>
      <trkpt lat="46.24069" lon="6.57322">
        <ele>1504.6</ele>
        <time>2019-02-06T13:59:46Z</time>
      </trkpt>
      <trkpt lat="46.24073" lon="6.57318">
        <ele>1505.08</ele>
        <time>2019-02-06T13:59:57Z</time>
      </trkpt>
      <trkpt lat="46.24076" lon="6.57315">
        <ele>1505.08</ele>
        <time>2019-02-06T14:00:12Z</time>
      </trkpt>
      <trkpt lat="46.24083" lon="6.57314">
        <ele>1505.56</ele>
        <time>2019-02-06T14:00:22Z</time>
      </trkpt>
      <trkpt lat="46.24092" lon="6.57316">
        <ele>1505.08</ele>
        <time>2019-02-06T14:00:33Z</time>
      </trkpt>
      <trkpt lat="46.24102" lon="6.57319">
        <ele>1504.6</ele>
        <time>2019-02-06T14:00:43Z</time>
      </trkpt>
      <trkpt lat="46.24112" lon="6.57321">
        <ele>1503.64</ele>
        <time>2019-02-06T14:00:55Z</time>
      </trkpt>
      <trkpt lat="46.24122" lon="6.5732">
        <ele>1503.64</ele>
        <time>2019-02-06T14:01:06Z</time>
      </trkpt>
      <trkpt lat="46.24127" lon="6.5732">
        <ele>1503.16</ele>
        <time>2019-02-06T14:01:11Z</time>
      </trkpt>
      <trkpt lat="46.24133" lon="6.57324">
        <ele>1503.16</ele>
        <time>2019-02-06T14:01:20Z</time>
      </trkpt>
      <trkpt lat="46.2414" lon="6.57323">
        <ele>1504.12</ele>
        <time>2019-02-06T14:01:30Z</time>
      </trkpt>
      <trkpt lat="46.24149" lon="6.57325">
        <ele>1504.12</ele>
        <time>2019-02-06T14:01:41Z</time>
      </trkpt>
      <trkpt lat="46.24152" lon="6.57328">
        <ele>1504.12</ele>
        <time>2019-02-06T14:01:44Z</time>
      </trkpt>
      <trkpt lat="46.24157" lon="6.57328">
        <ele>1505.08</ele>
        <time>2019-02-06T14:01:50Z</time>
      </trkpt>
      <trkpt lat="46.24161" lon="6.5733">
        <ele>1505.56</ele>
        <time>2019-02-06T14:01:55Z</time>
      </trkpt>
      <trkpt lat="46.24167" lon="6.57329">
        <ele>1506.04</ele>
        <time>2019-02-06T14:02:06Z</time>
      </trkpt>
      <trkpt lat="46.24172" lon="6.57325">
        <ele>1507</ele>
        <time>2019-02-06T14:02:16Z</time>
      </trkpt>
      <trkpt lat="46.24176" lon="6.57326">
        <ele>1507.48</ele>
        <time>2019-02-06T14:02:26Z</time>
      </trkpt>
      <trkpt lat="46.24179" lon="6.57326">
        <ele>1508.45</ele>
        <time>2019-02-06T14:02:38Z</time>
      </trkpt>
      <trkpt lat="46.24186" lon="6.57327">
        <ele>1508.45</ele>
        <time>2019-02-06T14:02:49Z</time>
      </trkpt>
      <trkpt lat="46.24195" lon="6.57328">
        <ele>1509.89</ele>
        <time>2019-02-06T14:03:02Z</time>
      </trkpt>
      <trkpt lat="46.24203" lon="6.5733">
        <ele>1510.85</ele>
        <time>2019-02-06T14:03:16Z</time>
      </trkpt>
      <trkpt lat="46.24204" lon="6.57331">
        <ele>1511.81</ele>
        <time>2019-02-06T14:03:24Z</time>
      </trkpt>
      <trkpt lat="46.24213" lon="6.57333">
        <ele>1512.29</ele>
        <time>2019-02-06T14:03:36Z</time>
      </trkpt>
      <trkpt lat="46.24221" lon="6.57337">
        <ele>1513.25</ele>
        <time>2019-02-06T14:03:47Z</time>
      </trkpt>
      <trkpt lat="46.24226" lon="6.57339">
        <ele>1513.73</ele>
        <time>2019-02-06T14:03:58Z</time>
      </trkpt>
      <trkpt lat="46.24235" lon="6.57345">
        <ele>1514.21</ele>
        <time>2019-02-06T14:04:08Z</time>
      </trkpt>
      <trkpt lat="46.24238" lon="6.57346">
        <ele>1514.21</ele>
        <time>2019-02-06T14:04:13Z</time>
      </trkpt>
      <trkpt lat="46.24242" lon="6.57348">
        <ele>1515.18</ele>
        <time>2019-02-06T14:04:24Z</time>
      </trkpt>
      <trkpt lat="46.24242" lon="6.57348">
        <ele>1514.21</ele>
        <time>2019-02-06T14:05:02Z</time>
      </trkpt>
      <trkpt lat="46.24242" lon="6.57348">
        <ele>1514.21</ele>
        <time>2019-02-06T14:05:55Z</time>
      </trkpt>
      <trkpt lat="46.24245" lon="6.57349">
        <ele>1514.69</ele>
        <time>2019-02-06T14:06:53Z</time>
      </trkpt>
      <trkpt lat="46.24247" lon="6.57355">
        <ele>1514.21</ele>
        <time>2019-02-06T14:07:05Z</time>
      </trkpt>
      <trkpt lat="46.24247" lon="6.57355">
        <ele>1514.69</ele>
        <time>2019-02-06T14:07:40Z</time>
      </trkpt>
      <trkpt lat="46.24249" lon="6.57355">
        <ele>1515.18</ele>
        <time>2019-02-06T14:08:15Z</time>
      </trkpt>
      <trkpt lat="46.24247" lon="6.57352">
        <ele>1514.69</ele>
        <time>2019-02-06T14:08:27Z</time>
      </trkpt>
      <trkpt lat="46.24246" lon="6.57352">
        <ele>1514.69</ele>
        <time>2019-02-06T14:10:03Z</time>
      </trkpt>
      <trkpt lat="46.24247" lon="6.57352">
        <ele>1514.69</ele>
        <time>2019-02-06T14:11:08Z</time>
      </trkpt>
      <trkpt lat="46.24246" lon="6.57352">
        <ele>1514.69</ele>
        <time>2019-02-06T14:12:18Z</time>
      </trkpt>
      <trkpt lat="46.24246" lon="6.57352">
        <ele>1514.69</ele>
        <time>2019-02-06T14:13:53Z</time>
      </trkpt>
      <trkpt lat="46.24252" lon="6.5735">
        <ele>1515.18</ele>
        <time>2019-02-06T14:15:10Z</time>
      </trkpt>
      <trkpt lat="46.24261" lon="6.57348">
        <ele>1515.66</ele>
        <time>2019-02-06T14:15:20Z</time>
      </trkpt>
      <trkpt lat="46.24267" lon="6.5735">
        <ele>1517.58</ele>
        <time>2019-02-06T14:15:32Z</time>
      </trkpt>
      <trkpt lat="46.2427" lon="6.57351">
        <ele>1517.58</ele>
        <time>2019-02-06T14:15:35Z</time>
      </trkpt>
      <trkpt lat="46.24275" lon="6.57354">
        <ele>1518.54</ele>
        <time>2019-02-06T14:15:46Z</time>
      </trkpt>
      <trkpt lat="46.24281" lon="6.57355">
        <ele>1520.46</ele>
        <time>2019-02-06T14:15:58Z</time>
      </trkpt>
      <trkpt lat="46.24287" lon="6.57356">
        <ele>1520.94</ele>
        <time>2019-02-06T14:16:08Z</time>
      </trkpt>
      <trkpt lat="46.24294" lon="6.57356">
        <ele>1520.46</ele>
        <time>2019-02-06T14:16:19Z</time>
      </trkpt>
      <trkpt lat="46.24308" lon="6.57348">
        <ele>1520.46</ele>
        <time>2019-02-06T14:16:32Z</time>
      </trkpt>
      <trkpt lat="46.24315" lon="6.57343">
        <ele>1519.5</ele>
        <time>2019-02-06T14:16:46Z</time>
      </trkpt>
      <trkpt lat="46.24325" lon="6.57336">
        <ele>1518.54</ele>
        <time>2019-02-06T14:17:00Z</time>
      </trkpt>
      <trkpt lat="46.24329" lon="6.57331">
        <ele>1517.1</ele>
        <time>2019-02-06T14:17:12Z</time>
      </trkpt>
      <trkpt lat="46.24338" lon="6.57323">
        <ele>1514.21</ele>
        <time>2019-02-06T14:17:26Z</time>
      </trkpt>
      <trkpt lat="46.24346" lon="6.57329">
        <ele>1511.33</ele>
        <time>2019-02-06T14:17:38Z</time>
      </trkpt>
      <trkpt lat="46.24355" lon="6.57332">
        <ele>1509.41</ele>
        <time>2019-02-06T14:17:50Z</time>
      </trkpt>
      <trkpt lat="46.24359" lon="6.5733">
        <ele>1507</ele>
        <time>2019-02-06T14:18:01Z</time>
      </trkpt>
      <trkpt lat="46.24368" lon="6.57332">
        <ele>1506.04</ele>
        <time>2019-02-06T14:18:13Z</time>
      </trkpt>
      <trkpt lat="46.24377" lon="6.57333">
        <ele>1504.12</ele>
        <time>2019-02-06T14:18:25Z</time>
      </trkpt>
      <trkpt lat="46.24386" lon="6.57333">
        <ele>1502.68</ele>
        <time>2019-02-06T14:18:37Z</time>
      </trkpt>
      <trkpt lat="46.24394" lon="6.57333">
        <ele>1500.76</ele>
        <time>2019-02-06T14:18:49Z</time>
      </trkpt>
      <trkpt lat="46.24399" lon="6.57333">
        <ele>1500.27</ele>
        <time>2019-02-06T14:19:01Z</time>
      </trkpt>
      <trkpt lat="46.24406" lon="6.57335">
        <ele>1500.76</ele>
        <time>2019-02-06T14:19:13Z</time>
      </trkpt>
      <trkpt lat="46.24407" lon="6.57337">
        <ele>1500.27</ele>
        <time>2019-02-06T14:19:31Z</time>
      </trkpt>
      <trkpt lat="46.24408" lon="6.57337">
        <ele>1499.79</ele>
        <time>2019-02-06T14:20:52Z</time>
      </trkpt>
      <trkpt lat="46.2441" lon="6.57338">
        <ele>1499.31</ele>
        <time>2019-02-06T14:21:22Z</time>
      </trkpt>
      <trkpt lat="46.24411" lon="6.57337">
        <ele>1498.35</ele>
        <time>2019-02-06T14:24:49Z</time>
      </trkpt>
      <trkpt lat="46.24415" lon="6.57337">
        <ele>1497.39</ele>
        <time>2019-02-06T14:25:04Z</time>
      </trkpt>
      <trkpt lat="46.24421" lon="6.57338">
        <ele>1495.47</ele>
        <time>2019-02-06T14:25:13Z</time>
      </trkpt>
      <trkpt lat="46.24431" lon="6.5734">
        <ele>1493.06</ele>
        <time>2019-02-06T14:25:23Z</time>
      </trkpt>
      <trkpt lat="46.24441" lon="6.5734">
        <ele>1491.62</ele>
        <time>2019-02-06T14:25:33Z</time>
      </trkpt>
      <trkpt lat="46.24443" lon="6.57339">
        <ele>1491.62</ele>
        <time>2019-02-06T14:25:35Z</time>
      </trkpt>
      <trkpt lat="46.24451" lon="6.57343">
        <ele>1489.22</ele>
        <time>2019-02-06T14:25:46Z</time>
      </trkpt>
      <trkpt lat="46.24455" lon="6.57342">
        <ele>1487.78</ele>
        <time>2019-02-06T14:25:59Z</time>
      </trkpt>
      <trkpt lat="46.24458" lon="6.57343">
        <ele>1486.34</ele>
        <time>2019-02-06T14:26:10Z</time>
      </trkpt>
      <trkpt lat="46.24462" lon="6.57347">
        <ele>1485.37</ele>
        <time>2019-02-06T14:26:21Z</time>
      </trkpt>
      <trkpt lat="46.24466" lon="6.57349">
        <ele>1483.93</ele>
        <time>2019-02-06T14:26:27Z</time>
      </trkpt>
      <trkpt lat="46.24481" lon="6.57353">
        <ele>1481.53</ele>
        <time>2019-02-06T14:26:41Z</time>
      </trkpt>
      <trkpt lat="46.24491" lon="6.57355">
        <ele>1480.09</ele>
        <time>2019-02-06T14:26:53Z</time>
      </trkpt>
      <trkpt lat="46.24499" lon="6.57359">
        <ele>1479.13</ele>
        <time>2019-02-06T14:27:03Z</time>
      </trkpt>
      <trkpt lat="46.24508" lon="6.57362">
        <ele>1477.2</ele>
        <time>2019-02-06T14:27:14Z</time>
      </trkpt>
      <trkpt lat="46.24516" lon="6.57374">
        <ele>1476.24</ele>
        <time>2019-02-06T14:27:25Z</time>
      </trkpt>
      <trkpt lat="46.24522" lon="6.57377">
        <ele>1474.8</ele>
        <time>2019-02-06T14:27:33Z</time>
      </trkpt>
      <trkpt lat="46.24533" lon="6.57376">
        <ele>1473.84</ele>
        <time>2019-02-06T14:27:44Z</time>
      </trkpt>
      <trkpt lat="46.24534" lon="6.57376">
        <ele>1473.84</ele>
        <time>2019-02-06T14:27:47Z</time>
      </trkpt>
      <trkpt lat="46.24541" lon="6.57378">
        <ele>1473.36</ele>
        <time>2019-02-06T14:27:54Z</time>
      </trkpt>
      <trkpt lat="46.24552" lon="6.57386">
        <ele>1471.92</ele>
        <time>2019-02-06T14:28:06Z</time>
      </trkpt>
      <trkpt lat="46.24556" lon="6.57389">
        <ele>1471.44</ele>
        <time>2019-02-06T14:28:10Z</time>
      </trkpt>
      <trkpt lat="46.24558" lon="6.57391">
        <ele>1470.95</ele>
        <time>2019-02-06T14:28:14Z</time>
      </trkpt>
      <trkpt lat="46.24566" lon="6.57399">
        <ele>1469.99</ele>
        <time>2019-02-06T14:28:26Z</time>
      </trkpt>
      <trkpt lat="46.24575" lon="6.57407">
        <ele>1468.07</ele>
        <time>2019-02-06T14:28:38Z</time>
      </trkpt>
      <trkpt lat="46.24578" lon="6.57409">
        <ele>1467.59</ele>
        <time>2019-02-06T14:28:42Z</time>
      </trkpt>
      <trkpt lat="46.24584" lon="6.57415">
        <ele>1466.15</ele>
        <time>2019-02-06T14:28:50Z</time>
      </trkpt>
      <trkpt lat="46.24593" lon="6.57421">
        <ele>1464.23</ele>
        <time>2019-02-06T14:29:04Z</time>
      </trkpt>
      <trkpt lat="46.24602" lon="6.57419">
        <ele>1462.3</ele>
        <time>2019-02-06T14:29:17Z</time>
      </trkpt>
      <trkpt lat="46.24606" lon="6.57419">
        <ele>1461.34</ele>
        <time>2019-02-06T14:29:26Z</time>
      </trkpt>
      <trkpt lat="46.24613" lon="6.5742">
        <ele>1459.42</ele>
        <time>2019-02-06T14:29:38Z</time>
      </trkpt>
      <trkpt lat="46.24619" lon="6.57424">
        <ele>1457.98</ele>
        <time>2019-02-06T14:29:49Z</time>
      </trkpt>
      <trkpt lat="46.24626" lon="6.57428">
        <ele>1456.05</ele>
        <time>2019-02-06T14:29:59Z</time>
      </trkpt>
      <trkpt lat="46.24633" lon="6.57434">
        <ele>1454.61</ele>
        <time>2019-02-06T14:30:10Z</time>
      </trkpt>
      <trkpt lat="46.24639" lon="6.57439">
        <ele>1453.17</ele>
        <time>2019-02-06T14:30:18Z</time>
      </trkpt>
      <trkpt lat="46.24646" lon="6.5745">
        <ele>1450.77</ele>
        <time>2019-02-06T14:30:31Z</time>
      </trkpt>
      <trkpt lat="46.24651" lon="6.57461">
        <ele>1449.32</ele>
        <time>2019-02-06T14:30:44Z</time>
      </trkpt>
      <trkpt lat="46.24652" lon="6.57466">
        <ele>1447.88</ele>
        <time>2019-02-06T14:30:57Z</time>
      </trkpt>
      <trkpt lat="46.24651" lon="6.57467">
        <ele>1447.88</ele>
        <time>2019-02-06T14:31:32Z</time>
      </trkpt>
      <trkpt lat="46.24653" lon="6.57468">
        <ele>1447.88</ele>
        <time>2019-02-06T14:31:48Z</time>
      </trkpt>
      <trkpt lat="46.24653" lon="6.57468">
        <ele>1446.92</ele>
        <time>2019-02-06T14:32:03Z</time>
      </trkpt>
      <trkpt lat="46.24656" lon="6.57462">
        <ele>1446.92</ele>
        <time>2019-02-06T14:32:08Z</time>
      </trkpt>
      <trkpt lat="46.24664" lon="6.57453">
        <ele>1446.92</ele>
        <time>2019-02-06T14:32:19Z</time>
      </trkpt>
      <trkpt lat="46.24665" lon="6.57448">
        <ele>1446.44</ele>
        <time>2019-02-06T14:32:23Z</time>
      </trkpt>
      <trkpt lat="46.24666" lon="6.57444">
        <ele>1446.44</ele>
        <time>2019-02-06T14:32:26Z</time>
      </trkpt>
      <trkpt lat="46.24669" lon="6.57434">
        <ele>1445</ele>
        <time>2019-02-06T14:32:35Z</time>
      </trkpt>
      <trkpt lat="46.24671" lon="6.57419">
        <ele>1443.08</ele>
        <time>2019-02-06T14:32:48Z</time>
      </trkpt>
      <trkpt lat="46.2467" lon="6.57418">
        <ele>1444.04</ele>
        <time>2019-02-06T14:32:49Z</time>
      </trkpt>
      <trkpt lat="46.24673" lon="6.57407">
        <ele>1441.63</ele>
        <time>2019-02-06T14:33:00Z</time>
      </trkpt>
      <trkpt lat="46.24676" lon="6.57402">
        <ele>1440.19</ele>
        <time>2019-02-06T14:33:05Z</time>
      </trkpt>
      <trkpt lat="46.24681" lon="6.57396">
        <ele>1438.27</ele>
        <time>2019-02-06T14:33:15Z</time>
      </trkpt>
      <trkpt lat="46.24681" lon="6.57396">
        <ele>1438.27</ele>
        <time>2019-02-06T14:33:16Z</time>
      </trkpt>
      <trkpt lat="46.24681" lon="6.57393">
        <ele>1437.31</ele>
        <time>2019-02-06T14:33:19Z</time>
      </trkpt>
      <trkpt lat="46.24685" lon="6.57386">
        <ele>1435.87</ele>
        <time>2019-02-06T14:33:27Z</time>
      </trkpt>
      <trkpt lat="46.24688" lon="6.57373">
        <ele>1433.46</ele>
        <time>2019-02-06T14:33:39Z</time>
      </trkpt>
      <trkpt lat="46.24694" lon="6.57371">
        <ele>1432.5</ele>
        <time>2019-02-06T14:33:52Z</time>
      </trkpt>
      <trkpt lat="46.24705" lon="6.57357">
        <ele>1432.02</ele>
        <time>2019-02-06T14:34:08Z</time>
      </trkpt>
      <trkpt lat="46.24709" lon="6.57346">
        <ele>1430.1</ele>
        <time>2019-02-06T14:34:18Z</time>
      </trkpt>
      <trkpt lat="46.24712" lon="6.5734">
        <ele>1429.14</ele>
        <time>2019-02-06T14:34:22Z</time>
      </trkpt>
      <trkpt lat="46.24716" lon="6.57332">
        <ele>1427.21</ele>
        <time>2019-02-06T14:34:34Z</time>
      </trkpt>
      <trkpt lat="46.24721" lon="6.57326">
        <ele>1425.77</ele>
        <time>2019-02-06T14:34:45Z</time>
      </trkpt>
      <trkpt lat="46.24728" lon="6.57318">
        <ele>1424.33</ele>
        <time>2019-02-06T14:34:54Z</time>
      </trkpt>
      <trkpt lat="46.2473" lon="6.57311">
        <ele>1423.85</ele>
        <time>2019-02-06T14:34:58Z</time>
      </trkpt>
      <trkpt lat="46.24737" lon="6.57303">
        <ele>1421.93</ele>
        <time>2019-02-06T14:35:10Z</time>
      </trkpt>
      <trkpt lat="46.2474" lon="6.57296">
        <ele>1420</ele>
        <time>2019-02-06T14:35:20Z</time>
      </trkpt>
      <trkpt lat="46.24744" lon="6.57289">
        <ele>1418.08</ele>
        <time>2019-02-06T14:35:34Z</time>
      </trkpt>
      <trkpt lat="46.2475" lon="6.5728">
        <ele>1416.16</ele>
        <time>2019-02-06T14:35:46Z</time>
      </trkpt>
      <trkpt lat="46.24755" lon="6.57275">
        <ele>1414.72</ele>
        <time>2019-02-06T14:35:52Z</time>
      </trkpt>
      <trkpt lat="46.24763" lon="6.57264">
        <ele>1413.28</ele>
        <time>2019-02-06T14:36:03Z</time>
      </trkpt>
      <trkpt lat="46.24769" lon="6.57258">
        <ele>1410.39</ele>
        <time>2019-02-06T14:36:14Z</time>
      </trkpt>
      <trkpt lat="46.24774" lon="6.57255">
        <ele>1407.99</ele>
        <time>2019-02-06T14:36:26Z</time>
      </trkpt>
      <trkpt lat="46.24783" lon="6.57248">
        <ele>1405.58</ele>
        <time>2019-02-06T14:36:36Z</time>
      </trkpt>
      <trkpt lat="46.2479" lon="6.57242">
        <ele>1404.14</ele>
        <time>2019-02-06T14:36:46Z</time>
      </trkpt>
      <trkpt lat="46.24791" lon="6.57242">
        <ele>1403.18</ele>
        <time>2019-02-06T14:36:48Z</time>
      </trkpt>
      <trkpt lat="46.24798" lon="6.57236">
        <ele>1401.74</ele>
        <time>2019-02-06T14:36:59Z</time>
      </trkpt>
      <trkpt lat="46.24805" lon="6.57232">
        <ele>1398.37</ele>
        <time>2019-02-06T14:37:13Z</time>
      </trkpt>
      <trkpt lat="46.24807" lon="6.57228">
        <ele>1396.93</ele>
        <time>2019-02-06T14:37:19Z</time>
      </trkpt>
      <trkpt lat="46.24815" lon="6.57223">
        <ele>1394.53</ele>
        <time>2019-02-06T14:37:30Z</time>
      </trkpt>
      <trkpt lat="46.24815" lon="6.57222">
        <ele>1394.05</ele>
        <time>2019-02-06T14:37:31Z</time>
      </trkpt>
      <trkpt lat="46.24819" lon="6.57217">
        <ele>1391.17</ele>
        <time>2019-02-06T14:37:42Z</time>
      </trkpt>
      <trkpt lat="46.24824" lon="6.57213">
        <ele>1388.76</ele>
        <time>2019-02-06T14:37:53Z</time>
      </trkpt>
      <trkpt lat="46.2483" lon="6.57202">
        <ele>1385.88</ele>
        <time>2019-02-06T14:38:06Z</time>
      </trkpt>
      <trkpt lat="46.24832" lon="6.57193">
        <ele>1384.44</ele>
        <time>2019-02-06T14:38:17Z</time>
      </trkpt>
      <trkpt lat="46.24834" lon="6.57189">
        <ele>1383.47</ele>
        <time>2019-02-06T14:38:30Z</time>
      </trkpt>
      <trkpt lat="46.24835" lon="6.57189">
        <ele>1383.47</ele>
        <time>2019-02-06T14:40:11Z</time>
      </trkpt>
      <trkpt lat="46.24839" lon="6.57178">
        <ele>1381.07</ele>
        <time>2019-02-06T14:40:26Z</time>
      </trkpt>
      <trkpt lat="46.24843" lon="6.57172">
        <ele>1380.11</ele>
        <time>2019-02-06T14:40:32Z</time>
      </trkpt>
      <trkpt lat="46.24847" lon="6.57161">
        <ele>1378.67</ele>
        <time>2019-02-06T14:40:39Z</time>
      </trkpt>
      <trkpt lat="46.24854" lon="6.5715">
        <ele>1376.75</ele>
        <time>2019-02-06T14:40:52Z</time>
      </trkpt>
      <trkpt lat="46.24864" lon="6.57139">
        <ele>1373.38</ele>
        <time>2019-02-06T14:41:03Z</time>
      </trkpt>
      <trkpt lat="46.24872" lon="6.5713">
        <ele>1371.46</ele>
        <time>2019-02-06T14:41:13Z</time>
      </trkpt>
      <trkpt lat="46.24873" lon="6.57129">
        <ele>1371.46</ele>
        <time>2019-02-06T14:41:14Z</time>
      </trkpt>
      <trkpt lat="46.24874" lon="6.57128">
        <ele>1370.98</ele>
        <time>2019-02-06T14:41:15Z</time>
      </trkpt>
      <trkpt lat="46.24875" lon="6.57119">
        <ele>1370.98</ele>
        <time>2019-02-06T14:41:21Z</time>
      </trkpt>
      <trkpt lat="46.24876" lon="6.57113">
        <ele>1369.54</ele>
        <time>2019-02-06T14:41:26Z</time>
      </trkpt>
      <trkpt lat="46.24877" lon="6.57098">
        <ele>1367.61</ele>
        <time>2019-02-06T14:41:35Z</time>
      </trkpt>
      <trkpt lat="46.24876" lon="6.57081">
        <ele>1365.69</ele>
        <time>2019-02-06T14:41:46Z</time>
      </trkpt>
      <trkpt lat="46.24872" lon="6.57067">
        <ele>1362.33</ele>
        <time>2019-02-06T14:41:57Z</time>
      </trkpt>
      <trkpt lat="46.24871" lon="6.57064">
        <ele>1361.36</ele>
        <time>2019-02-06T14:42:00Z</time>
      </trkpt>
      <trkpt lat="46.24868" lon="6.57051">
        <ele>1358</ele>
        <time>2019-02-06T14:42:12Z</time>
      </trkpt>
      <trkpt lat="46.24866" lon="6.5704">
        <ele>1355.12</ele>
        <time>2019-02-06T14:42:21Z</time>
      </trkpt>
      <trkpt lat="46.24866" lon="6.57036">
        <ele>1354.15</ele>
        <time>2019-02-06T14:42:25Z</time>
      </trkpt>
      <trkpt lat="46.24864" lon="6.57035">
        <ele>1353.67</ele>
        <time>2019-02-06T14:42:27Z</time>
      </trkpt>
      <trkpt lat="46.24857" lon="6.5703">
        <ele>1352.71</ele>
        <time>2019-02-06T14:42:42Z</time>
      </trkpt>
      <trkpt lat="46.2485" lon="6.57027">
        <ele>1351.27</ele>
        <time>2019-02-06T14:42:55Z</time>
      </trkpt>
      <trkpt lat="46.2484" lon="6.57017">
        <ele>1348.39</ele>
        <time>2019-02-06T14:43:08Z</time>
      </trkpt>
      <trkpt lat="46.24838" lon="6.57004">
        <ele>1346.46</ele>
        <time>2019-02-06T14:43:19Z</time>
      </trkpt>
      <trkpt lat="46.24839" lon="6.57001">
        <ele>1346.94</ele>
        <time>2019-02-06T14:43:21Z</time>
      </trkpt>
      <trkpt lat="46.24839" lon="6.56995">
        <ele>1345.02</ele>
        <time>2019-02-06T14:43:25Z</time>
      </trkpt>
      <trkpt lat="46.24838" lon="6.56991">
        <ele>1344.06</ele>
        <time>2019-02-06T14:43:30Z</time>
      </trkpt>
      <trkpt lat="46.2484" lon="6.56984">
        <ele>1343.1</ele>
        <time>2019-02-06T14:43:34Z</time>
      </trkpt>
      <trkpt lat="46.24839" lon="6.56973">
        <ele>1341.18</ele>
        <time>2019-02-06T14:43:44Z</time>
      </trkpt>
      <trkpt lat="46.24837" lon="6.56964">
        <ele>1339.25</ele>
        <time>2019-02-06T14:43:55Z</time>
      </trkpt>
      <trkpt lat="46.24837" lon="6.56952">
        <ele>1335.89</ele>
        <time>2019-02-06T14:44:08Z</time>
      </trkpt>
      <trkpt lat="46.24837" lon="6.56951">
        <ele>1334.93</ele>
        <time>2019-02-06T14:44:13Z</time>
      </trkpt>
      <trkpt lat="46.24835" lon="6.56937">
        <ele>1333.97</ele>
        <time>2019-02-06T14:44:21Z</time>
      </trkpt>
      <trkpt lat="46.24835" lon="6.56932">
        <ele>1333.01</ele>
        <time>2019-02-06T14:44:24Z</time>
      </trkpt>
      <trkpt lat="46.24834" lon="6.56928">
        <ele>1332.52</ele>
        <time>2019-02-06T14:44:26Z</time>
      </trkpt>
      <trkpt lat="46.24835" lon="6.56923">
        <ele>1331.56</ele>
        <time>2019-02-06T14:44:29Z</time>
      </trkpt>
      <trkpt lat="46.24836" lon="6.5692">
        <ele>1331.56</ele>
        <time>2019-02-06T14:44:31Z</time>
      </trkpt>
      <trkpt lat="46.24836" lon="6.56917">
        <ele>1331.08</ele>
        <time>2019-02-06T14:44:33Z</time>
      </trkpt>
      <trkpt lat="46.24841" lon="6.5691">
        <ele>1331.08</ele>
        <time>2019-02-06T14:44:39Z</time>
      </trkpt>
      <trkpt lat="46.24844" lon="6.56907">
        <ele>1330.6</ele>
        <time>2019-02-06T14:44:44Z</time>
      </trkpt>
      <trkpt lat="46.24852" lon="6.56897">
        <ele>1329.16</ele>
        <time>2019-02-06T14:44:56Z</time>
      </trkpt>
      <trkpt lat="46.24854" lon="6.56891">
        <ele>1328.68</ele>
        <time>2019-02-06T14:45:01Z</time>
      </trkpt>
      <trkpt lat="46.24852" lon="6.56877">
        <ele>1326.28</ele>
        <time>2019-02-06T14:45:12Z</time>
      </trkpt>
      <trkpt lat="46.24852" lon="6.56858">
        <ele>1323.87</ele>
        <time>2019-02-06T14:45:25Z</time>
      </trkpt>
      <trkpt lat="46.24853" lon="6.56854">
        <ele>1322.91</ele>
        <time>2019-02-06T14:45:28Z</time>
      </trkpt>
      <trkpt lat="46.24855" lon="6.56844">
        <ele>1320.51</ele>
        <time>2019-02-06T14:45:38Z</time>
      </trkpt>
      <trkpt lat="46.24855" lon="6.56838">
        <ele>1319.55</ele>
        <time>2019-02-06T14:45:43Z</time>
      </trkpt>
      <trkpt lat="46.24853" lon="6.56824">
        <ele>1318.1</ele>
        <time>2019-02-06T14:45:56Z</time>
      </trkpt>
      <trkpt lat="46.24853" lon="6.56819">
        <ele>1317.14</ele>
        <time>2019-02-06T14:46:10Z</time>
      </trkpt>
      <trkpt lat="46.24853" lon="6.56819">
        <ele>1317.14</ele>
        <time>2019-02-06T14:47:37Z</time>
      </trkpt>
      <trkpt lat="46.24854" lon="6.56819">
        <ele>1316.66</ele>
        <time>2019-02-06T14:48:02Z</time>
      </trkpt>
      <trkpt lat="46.24854" lon="6.56816">
        <ele>1316.66</ele>
        <time>2019-02-06T14:49:01Z</time>
      </trkpt>
      <trkpt lat="46.24853" lon="6.56815">
        <ele>1317.14</ele>
        <time>2019-02-06T14:49:54Z</time>
      </trkpt>
      <trkpt lat="46.24854" lon="6.56815">
        <ele>1316.66</ele>
        <time>2019-02-06T14:51:07Z</time>
      </trkpt>
      <trkpt lat="46.24853" lon="6.56814">
        <ele>1316.66</ele>
        <time>2019-02-06T14:51:56Z</time>
      </trkpt>
      <trkpt lat="46.2485" lon="6.5682">
        <ele>1317.62</ele>
        <time>2019-02-06T14:52:06Z</time>
      </trkpt>
      <trkpt lat="46.2485" lon="6.5682">
        <ele>1317.62</ele>
        <time>2019-02-06T14:52:39Z</time>
      </trkpt>
      <trkpt lat="46.24851" lon="6.5682">
        <ele>1317.62</ele>
        <time>2019-02-06T14:52:50Z</time>
      </trkpt>
      <trkpt lat="46.24852" lon="6.56817">
        <ele>1316.66</ele>
        <time>2019-02-06T14:53:08Z</time>
      </trkpt>
      <trkpt lat="46.24852" lon="6.56817">
        <ele>1317.14</ele>
        <time>2019-02-06T14:53:35Z</time>
      </trkpt>
      <trkpt lat="46.24852" lon="6.56817">
        <ele>1317.14</ele>
        <time>2019-02-06T14:55:29Z</time>
      </trkpt>
      <trkpt lat="46.2485" lon="6.56801">
        <ele>1314.74</ele>
        <time>2019-02-06T14:55:43Z</time>
      </trkpt>
      <trkpt lat="46.24849" lon="6.568">
        <ele>1314.74</ele>
        <time>2019-02-06T14:55:44Z</time>
      </trkpt>
      <trkpt lat="46.24844" lon="6.56787">
        <ele>1313.78</ele>
        <time>2019-02-06T14:55:57Z</time>
      </trkpt>
      <trkpt lat="46.24842" lon="6.5678">
        <ele>1312.34</ele>
        <time>2019-02-06T14:56:04Z</time>
      </trkpt>
      <trkpt lat="46.24836" lon="6.56765">
        <ele>1310.41</ele>
        <time>2019-02-06T14:56:17Z</time>
      </trkpt>
      <trkpt lat="46.24831" lon="6.56753">
        <ele>1308.97</ele>
        <time>2019-02-06T14:56:29Z</time>
      </trkpt>
      <trkpt lat="46.2483" lon="6.56747">
        <ele>1308.97</ele>
        <time>2019-02-06T14:56:33Z</time>
      </trkpt>
      <trkpt lat="46.24828" lon="6.56738">
        <ele>1308.01</ele>
        <time>2019-02-06T14:56:41Z</time>
      </trkpt>
      <trkpt lat="46.24824" lon="6.56725">
        <ele>1307.53</ele>
        <time>2019-02-06T14:56:53Z</time>
      </trkpt>
      <trkpt lat="46.24823" lon="6.56724">
        <ele>1306.57</ele>
        <time>2019-02-06T14:56:54Z</time>
      </trkpt>
      <trkpt lat="46.24821" lon="6.56716">
        <ele>1305.61</ele>
        <time>2019-02-06T14:57:00Z</time>
      </trkpt>
      <trkpt lat="46.24819" lon="6.56707">
        <ele>1304.65</ele>
        <time>2019-02-06T14:57:08Z</time>
      </trkpt>
      <trkpt lat="46.24818" lon="6.56704">
        <ele>1303.69</ele>
        <time>2019-02-06T14:57:10Z</time>
      </trkpt>
      <trkpt lat="46.24812" lon="6.56692">
        <ele>1302.24</ele>
        <time>2019-02-06T14:57:21Z</time>
      </trkpt>
      <trkpt lat="46.24809" lon="6.56682">
        <ele>1300.32</ele>
        <time>2019-02-06T14:57:32Z</time>
      </trkpt>
      <trkpt lat="46.24805" lon="6.56676">
        <ele>1296.96</ele>
        <time>2019-02-06T14:57:39Z</time>
      </trkpt>
      <trkpt lat="46.24801" lon="6.56672">
        <ele>1296.96</ele>
        <time>2019-02-06T14:57:43Z</time>
      </trkpt>
      <trkpt lat="46.248" lon="6.5667">
        <ele>1296.48</ele>
        <time>2019-02-06T14:57:45Z</time>
      </trkpt>
      <trkpt lat="46.24798" lon="6.56665">
        <ele>1295.03</ele>
        <time>2019-02-06T14:57:50Z</time>
      </trkpt>
      <trkpt lat="46.24803" lon="6.56661">
        <ele>1294.07</ele>
        <time>2019-02-06T14:57:57Z</time>
      </trkpt>
      <trkpt lat="46.24808" lon="6.56648">
        <ele>1291.67</ele>
        <time>2019-02-06T14:58:08Z</time>
      </trkpt>
      <trkpt lat="46.24807" lon="6.56638">
        <ele>1290.23</ele>
        <time>2019-02-06T14:58:17Z</time>
      </trkpt>
      <trkpt lat="46.24806" lon="6.56635">
        <ele>1289.75</ele>
        <time>2019-02-06T14:58:19Z</time>
      </trkpt>
      <trkpt lat="46.24802" lon="6.56622">
        <ele>1286.86</ele>
        <time>2019-02-06T14:58:29Z</time>
      </trkpt>
      <trkpt lat="46.24801" lon="6.56618">
        <ele>1285.9</ele>
        <time>2019-02-06T14:58:32Z</time>
      </trkpt>
      <trkpt lat="46.248" lon="6.56612">
        <ele>1285.9</ele>
        <time>2019-02-06T14:58:36Z</time>
      </trkpt>
      <trkpt lat="46.24794" lon="6.56593">
        <ele>1282.54</ele>
        <time>2019-02-06T14:58:50Z</time>
      </trkpt>
      <trkpt lat="46.24794" lon="6.5659">
        <ele>1282.54</ele>
        <time>2019-02-06T14:58:52Z</time>
      </trkpt>
      <trkpt lat="46.24794" lon="6.56587">
        <ele>1282.06</ele>
        <time>2019-02-06T14:58:54Z</time>
      </trkpt>
      <trkpt lat="46.24793" lon="6.56573">
        <ele>1280.61</ele>
        <time>2019-02-06T14:59:04Z</time>
      </trkpt>
      <trkpt lat="46.24793" lon="6.56556">
        <ele>1278.21</ele>
        <time>2019-02-06T14:59:16Z</time>
      </trkpt>
      <trkpt lat="46.24787" lon="6.56536">
        <ele>1277.25</ele>
        <time>2019-02-06T14:59:30Z</time>
      </trkpt>
      <trkpt lat="46.24786" lon="6.56533">
        <ele>1276.77</ele>
        <time>2019-02-06T14:59:32Z</time>
      </trkpt>
      <trkpt lat="46.24784" lon="6.56517">
        <ele>1275.33</ele>
        <time>2019-02-06T14:59:43Z</time>
      </trkpt>
      <trkpt lat="46.24789" lon="6.56505">
        <ele>1274.36</ele>
        <time>2019-02-06T14:59:53Z</time>
      </trkpt>
      <trkpt lat="46.24798" lon="6.56496">
        <ele>1273.4</ele>
        <time>2019-02-06T15:00:03Z</time>
      </trkpt>
      <trkpt lat="46.248" lon="6.56492">
        <ele>1273.4</ele>
        <time>2019-02-06T15:00:06Z</time>
      </trkpt>
      <trkpt lat="46.24803" lon="6.56486">
        <ele>1273.4</ele>
        <time>2019-02-06T15:00:11Z</time>
      </trkpt>
      <trkpt lat="46.24806" lon="6.56473">
        <ele>1272.44</ele>
        <time>2019-02-06T15:00:24Z</time>
      </trkpt>
      <trkpt lat="46.24813" lon="6.56455">
        <ele>1271.48</ele>
        <time>2019-02-06T15:00:36Z</time>
      </trkpt>
      <trkpt lat="46.24817" lon="6.56443">
        <ele>1271</ele>
        <time>2019-02-06T15:00:48Z</time>
      </trkpt>
      <trkpt lat="46.24822" lon="6.56429">
        <ele>1270.04</ele>
        <time>2019-02-06T15:01:00Z</time>
      </trkpt>
      <trkpt lat="46.24824" lon="6.56421">
        <ele>1269.56</ele>
        <time>2019-02-06T15:01:06Z</time>
      </trkpt>
      <trkpt lat="46.24825" lon="6.56407">
        <ele>1270.04</ele>
        <time>2019-02-06T15:01:15Z</time>
      </trkpt>
      <trkpt lat="46.24825" lon="6.56389">
        <ele>1270.04</ele>
        <time>2019-02-06T15:01:26Z</time>
      </trkpt>
      <trkpt lat="46.24826" lon="6.56373">
        <ele>1269.56</ele>
        <time>2019-02-06T15:01:36Z</time>
      </trkpt>
      <trkpt lat="46.24826" lon="6.56369">
        <ele>1269.56</ele>
        <time>2019-02-06T15:01:39Z</time>
      </trkpt>
      <trkpt lat="46.24829" lon="6.56353">
        <ele>1269.08</ele>
        <time>2019-02-06T15:01:51Z</time>
      </trkpt>
      <trkpt lat="46.24832" lon="6.56338">
        <ele>1269.08</ele>
        <time>2019-02-06T15:02:03Z</time>
      </trkpt>
      <trkpt lat="46.24833" lon="6.56331">
        <ele>1269.56</ele>
        <time>2019-02-06T15:02:07Z</time>
      </trkpt>
      <trkpt lat="46.24832" lon="6.56328">
        <ele>1269.08</ele>
        <time>2019-02-06T15:02:09Z</time>
      </trkpt>
      <trkpt lat="46.24834" lon="6.56312">
        <ele>1269.08</ele>
        <time>2019-02-06T15:02:21Z</time>
      </trkpt>
      <trkpt lat="46.24835" lon="6.56295">
        <ele>1267.64</ele>
        <time>2019-02-06T15:02:33Z</time>
      </trkpt>
      <trkpt lat="46.24835" lon="6.56292">
        <ele>1267.16</ele>
        <time>2019-02-06T15:02:35Z</time>
      </trkpt>
      <trkpt lat="46.24834" lon="6.56277">
        <ele>1266.19</ele>
        <time>2019-02-06T15:02:46Z</time>
      </trkpt>
      <trkpt lat="46.24835" lon="6.56273">
        <ele>1266.19</ele>
        <time>2019-02-06T15:02:49Z</time>
      </trkpt>
      <trkpt lat="46.24834" lon="6.56253">
        <ele>1265.23</ele>
        <time>2019-02-06T15:03:03Z</time>
      </trkpt>
      <trkpt lat="46.24833" lon="6.5625">
        <ele>1265.23</ele>
        <time>2019-02-06T15:03:05Z</time>
      </trkpt>
      <trkpt lat="46.24833" lon="6.56246">
        <ele>1264.75</ele>
        <time>2019-02-06T15:03:07Z</time>
      </trkpt>
      <trkpt lat="46.24831" lon="6.56226">
        <ele>1264.27</ele>
        <time>2019-02-06T15:03:21Z</time>
      </trkpt>
      <trkpt lat="46.24828" lon="6.5622">
        <ele>1264.27</ele>
        <time>2019-02-06T15:03:25Z</time>
      </trkpt>
      <trkpt lat="46.2483" lon="6.56206">
        <ele>1263.79</ele>
        <time>2019-02-06T15:03:34Z</time>
      </trkpt>
      <trkpt lat="46.24829" lon="6.56191">
        <ele>1264.27</ele>
        <time>2019-02-06T15:03:44Z</time>
      </trkpt>
      <trkpt lat="46.24828" lon="6.5618">
        <ele>1263.31</ele>
        <time>2019-02-06T15:03:51Z</time>
      </trkpt>
      <trkpt lat="46.24829" lon="6.56174">
        <ele>1262.83</ele>
        <time>2019-02-06T15:03:56Z</time>
      </trkpt>
      <trkpt lat="46.24832" lon="6.56162">
        <ele>1261.87</ele>
        <time>2019-02-06T15:04:06Z</time>
      </trkpt>
      <trkpt lat="46.24832" lon="6.56157">
        <ele>1261.39</ele>
        <time>2019-02-06T15:04:10Z</time>
      </trkpt>
      <trkpt lat="46.24835" lon="6.56147">
        <ele>1261.39</ele>
        <time>2019-02-06T15:04:18Z</time>
      </trkpt>
      <trkpt lat="46.24843" lon="6.56136">
        <ele>1261.39</ele>
        <time>2019-02-06T15:04:31Z</time>
      </trkpt>
      <trkpt lat="46.24845" lon="6.56134">
        <ele>1260.91</ele>
        <time>2019-02-06T15:04:34Z</time>
      </trkpt>
      <trkpt lat="46.24847" lon="6.56132">
        <ele>1260.91</ele>
        <time>2019-02-06T15:04:36Z</time>
      </trkpt>
      <trkpt lat="46.24852" lon="6.56131">
        <ele>1260.43</ele>
        <time>2019-02-06T15:04:48Z</time>
      </trkpt>
      <trkpt lat="46.2486" lon="6.56125">
        <ele>1259.46</ele>
        <time>2019-02-06T15:04:59Z</time>
      </trkpt>
      <trkpt lat="46.24865" lon="6.56118">
        <ele>1258.5</ele>
        <time>2019-02-06T15:05:08Z</time>
      </trkpt>
      <trkpt lat="46.24875" lon="6.56106">
        <ele>1257.54</ele>
        <time>2019-02-06T15:05:19Z</time>
      </trkpt>
      <trkpt lat="46.24879" lon="6.56096">
        <ele>1257.06</ele>
        <time>2019-02-06T15:05:26Z</time>
      </trkpt>
      <trkpt lat="46.24881" lon="6.56081">
        <ele>1255.14</ele>
        <time>2019-02-06T15:05:39Z</time>
      </trkpt>
      <trkpt lat="46.24882" lon="6.56074">
        <ele>1253.7</ele>
        <time>2019-02-06T15:05:43Z</time>
      </trkpt>
      <trkpt lat="46.24882" lon="6.56067">
        <ele>1253.22</ele>
        <time>2019-02-06T15:05:49Z</time>
      </trkpt>
      <trkpt lat="46.24883" lon="6.56052">
        <ele>1250.33</ele>
        <time>2019-02-06T15:06:00Z</time>
      </trkpt>
      <trkpt lat="46.24884" lon="6.56041">
        <ele>1249.37</ele>
        <time>2019-02-06T15:06:07Z</time>
      </trkpt>
      <trkpt lat="46.24884" lon="6.56035">
        <ele>1248.89</ele>
        <time>2019-02-06T15:06:11Z</time>
      </trkpt>
      <trkpt lat="46.24884" lon="6.56032">
        <ele>1248.89</ele>
        <time>2019-02-06T15:06:13Z</time>
      </trkpt>
      <trkpt lat="46.24884" lon="6.56026">
        <ele>1248.41</ele>
        <time>2019-02-06T15:06:17Z</time>
      </trkpt>
      <trkpt lat="46.24884" lon="6.56022">
        <ele>1247.45</ele>
        <time>2019-02-06T15:06:20Z</time>
      </trkpt>
      <trkpt lat="46.24885" lon="6.56012">
        <ele>1245.53</ele>
        <time>2019-02-06T15:06:27Z</time>
      </trkpt>
      <trkpt lat="46.24886" lon="6.56006">
        <ele>1245.04</ele>
        <time>2019-02-06T15:06:31Z</time>
      </trkpt>
      <trkpt lat="46.24888" lon="6.55993">
        <ele>1243.6</ele>
        <time>2019-02-06T15:06:40Z</time>
      </trkpt>
      <trkpt lat="46.2489" lon="6.55984">
        <ele>1242.16</ele>
        <time>2019-02-06T15:06:47Z</time>
      </trkpt>
      <trkpt lat="46.24889" lon="6.55975">
        <ele>1240.72</ele>
        <time>2019-02-06T15:06:53Z</time>
      </trkpt>
      <trkpt lat="46.24889" lon="6.55969">
        <ele>1240.24</ele>
        <time>2019-02-06T15:06:57Z</time>
      </trkpt>
      <trkpt lat="46.24889" lon="6.55952">
        <ele>1237.35</ele>
        <time>2019-02-06T15:07:09Z</time>
      </trkpt>
      <trkpt lat="46.24887" lon="6.55939">
        <ele>1236.39</ele>
        <time>2019-02-06T15:07:18Z</time>
      </trkpt>
      <trkpt lat="46.24886" lon="6.55921">
        <ele>1234.47</ele>
        <time>2019-02-06T15:07:30Z</time>
      </trkpt>
      <trkpt lat="46.24887" lon="6.55913">
        <ele>1233.51</ele>
        <time>2019-02-06T15:07:36Z</time>
      </trkpt>
      <trkpt lat="46.24885" lon="6.55896">
        <ele>1231.59</ele>
        <time>2019-02-06T15:07:47Z</time>
      </trkpt>
      <trkpt lat="46.24884" lon="6.55887">
        <ele>1230.62</ele>
        <time>2019-02-06T15:07:53Z</time>
      </trkpt>
      <trkpt lat="46.24885" lon="6.55884">
        <ele>1230.62</ele>
        <time>2019-02-06T15:07:55Z</time>
      </trkpt>
      <trkpt lat="46.24885" lon="6.55876">
        <ele>1229.66</ele>
        <time>2019-02-06T15:08:00Z</time>
      </trkpt>
      <trkpt lat="46.24884" lon="6.55871">
        <ele>1229.66</ele>
        <time>2019-02-06T15:08:04Z</time>
      </trkpt>
      <trkpt lat="46.24886" lon="6.55864">
        <ele>1228.22</ele>
        <time>2019-02-06T15:08:09Z</time>
      </trkpt>
      <trkpt lat="46.24886" lon="6.55858">
        <ele>1228.22</ele>
        <time>2019-02-06T15:08:13Z</time>
      </trkpt>
      <trkpt lat="46.24886" lon="6.55849">
        <ele>1227.26</ele>
        <time>2019-02-06T15:08:18Z</time>
      </trkpt>
      <trkpt lat="46.24888" lon="6.55844">
        <ele>1226.78</ele>
        <time>2019-02-06T15:08:21Z</time>
      </trkpt>
      <trkpt lat="46.24887" lon="6.5583">
        <ele>1225.34</ele>
        <time>2019-02-06T15:08:30Z</time>
      </trkpt>
      <trkpt lat="46.24889" lon="6.55818">
        <ele>1224.38</ele>
        <time>2019-02-06T15:08:39Z</time>
      </trkpt>
      <trkpt lat="46.24888" lon="6.55805">
        <ele>1223.42</ele>
        <time>2019-02-06T15:08:48Z</time>
      </trkpt>
      <trkpt lat="46.24893" lon="6.5579">
        <ele>1221.49</ele>
        <time>2019-02-06T15:09:02Z</time>
      </trkpt>
      <trkpt lat="46.24893" lon="6.55788">
        <ele>1221.97</ele>
        <time>2019-02-06T15:09:24Z</time>
      </trkpt>
      <trkpt lat="46.24892" lon="6.55786">
        <ele>1221.97</ele>
        <time>2019-02-06T15:09:52Z</time>
      </trkpt>
      <trkpt lat="46.24892" lon="6.55786">
        <ele>1222.45</ele>
        <time>2019-02-06T15:10:19Z</time>
      </trkpt>
      <trkpt lat="46.24891" lon="6.55786">
        <ele>1221.49</ele>
        <time>2019-02-06T15:10:56Z</time>
      </trkpt>
      <trkpt lat="46.24895" lon="6.5578">
        <ele>1220.53</ele>
        <time>2019-02-06T15:11:11Z</time>
      </trkpt>
      <trkpt lat="46.24897" lon="6.55773">
        <ele>1220.05</ele>
        <time>2019-02-06T15:11:16Z</time>
      </trkpt>
      <trkpt lat="46.24902" lon="6.55756">
        <ele>1218.61</ele>
        <time>2019-02-06T15:11:27Z</time>
      </trkpt>
      <trkpt lat="46.24905" lon="6.55751">
        <ele>1218.13</ele>
        <time>2019-02-06T15:11:31Z</time>
      </trkpt>
      <trkpt lat="46.24906" lon="6.55745">
        <ele>1217.65</ele>
        <time>2019-02-06T15:11:35Z</time>
      </trkpt>
      <trkpt lat="46.24911" lon="6.55734">
        <ele>1216.69</ele>
        <time>2019-02-06T15:11:43Z</time>
      </trkpt>
      <trkpt lat="46.24912" lon="6.5573">
        <ele>1216.69</ele>
        <time>2019-02-06T15:11:46Z</time>
      </trkpt>
      <trkpt lat="46.24917" lon="6.5572">
        <ele>1215.72</ele>
        <time>2019-02-06T15:11:56Z</time>
      </trkpt>
      <trkpt lat="46.24919" lon="6.55714">
        <ele>1215.24</ele>
        <time>2019-02-06T15:12:01Z</time>
      </trkpt>
      <trkpt lat="46.24921" lon="6.55708">
        <ele>1215.24</ele>
        <time>2019-02-06T15:12:05Z</time>
      </trkpt>
      <trkpt lat="46.24928" lon="6.55693">
        <ele>1213.8</ele>
        <time>2019-02-06T15:12:17Z</time>
      </trkpt>
      <trkpt lat="46.24935" lon="6.55678">
        <ele>1213.32</ele>
        <time>2019-02-06T15:12:28Z</time>
      </trkpt>
      <trkpt lat="46.24938" lon="6.55673">
        <ele>1212.36</ele>
        <time>2019-02-06T15:12:33Z</time>
      </trkpt>
      <trkpt lat="46.2494" lon="6.5567">
        <ele>1212.36</ele>
        <time>2019-02-06T15:12:38Z</time>
      </trkpt>
      <trkpt lat="46.24947" lon="6.55662">
        <ele>1210.92</ele>
        <time>2019-02-06T15:12:49Z</time>
      </trkpt>
      <trkpt lat="46.2495" lon="6.5566">
        <ele>1210.92</ele>
        <time>2019-02-06T15:12:52Z</time>
      </trkpt>
      <trkpt lat="46.24951" lon="6.55659">
        <ele>1210.92</ele>
        <time>2019-02-06T15:12:54Z</time>
      </trkpt>
      <trkpt lat="46.24956" lon="6.55653">
        <ele>1210.44</ele>
        <time>2019-02-06T15:13:02Z</time>
      </trkpt>
      <trkpt lat="46.24964" lon="6.55639">
        <ele>1209.48</ele>
        <time>2019-02-06T15:13:14Z</time>
      </trkpt>
      <trkpt lat="46.2497" lon="6.55629">
        <ele>1209</ele>
        <time>2019-02-06T15:13:23Z</time>
      </trkpt>
      <trkpt lat="46.2498" lon="6.55614">
        <ele>1207.07</ele>
        <time>2019-02-06T15:13:37Z</time>
      </trkpt>
      <trkpt lat="46.24983" lon="6.55607">
        <ele>1206.11</ele>
        <time>2019-02-06T15:13:43Z</time>
      </trkpt>
      <trkpt lat="46.24988" lon="6.55591">
        <ele>1204.67</ele>
        <time>2019-02-06T15:13:55Z</time>
      </trkpt>
      <trkpt lat="46.24992" lon="6.55582">
        <ele>1203.71</ele>
        <time>2019-02-06T15:14:03Z</time>
      </trkpt>
      <trkpt lat="46.25" lon="6.55563">
        <ele>1201.3</ele>
        <time>2019-02-06T15:14:18Z</time>
      </trkpt>
      <trkpt lat="46.25002" lon="6.55558">
        <ele>1201.3</ele>
        <time>2019-02-06T15:14:22Z</time>
      </trkpt>
      <trkpt lat="46.25003" lon="6.55557">
        <ele>1200.34</ele>
        <time>2019-02-06T15:14:24Z</time>
      </trkpt>
      <trkpt lat="46.25005" lon="6.55554">
        <ele>1200.34</ele>
        <time>2019-02-06T15:14:27Z</time>
      </trkpt>
      <trkpt lat="46.25015" lon="6.55545">
        <ele>1197.46</ele>
        <time>2019-02-06T15:14:41Z</time>
      </trkpt>
      <trkpt lat="46.25016" lon="6.55542">
        <ele>1196.98</ele>
        <time>2019-02-06T15:14:44Z</time>
      </trkpt>
      <trkpt lat="46.25021" lon="6.55534">
        <ele>1195.06</ele>
        <time>2019-02-06T15:14:55Z</time>
      </trkpt>
      <trkpt lat="46.25029" lon="6.55524">
        <ele>1193.61</ele>
        <time>2019-02-06T15:15:05Z</time>
      </trkpt>
      <trkpt lat="46.25039" lon="6.55509">
        <ele>1190.73</ele>
        <time>2019-02-06T15:15:17Z</time>
      </trkpt>
      <trkpt lat="46.25041" lon="6.55506">
        <ele>1190.73</ele>
        <time>2019-02-06T15:15:19Z</time>
      </trkpt>
      <trkpt lat="46.25046" lon="6.55494">
        <ele>1187.85</ele>
        <time>2019-02-06T15:15:31Z</time>
      </trkpt>
      <trkpt lat="46.25053" lon="6.55483">
        <ele>1185.92</ele>
        <time>2019-02-06T15:15:42Z</time>
      </trkpt>
      <trkpt lat="46.25056" lon="6.55473">
        <ele>1183.52</ele>
        <time>2019-02-06T15:15:52Z</time>
      </trkpt>
      <trkpt lat="46.25061" lon="6.55459">
        <ele>1181.12</ele>
        <time>2019-02-06T15:16:03Z</time>
      </trkpt>
      <trkpt lat="46.25063" lon="6.55447">
        <ele>1180.16</ele>
        <time>2019-02-06T15:16:10Z</time>
      </trkpt>
      <trkpt lat="46.25067" lon="6.55432">
        <ele>1177.27</ele>
        <time>2019-02-06T15:16:22Z</time>
      </trkpt>
      <trkpt lat="46.2507" lon="6.55416">
        <ele>1174.87</ele>
        <time>2019-02-06T15:16:34Z</time>
      </trkpt>
      <trkpt lat="46.2507" lon="6.55414">
        <ele>1174.39</ele>
        <time>2019-02-06T15:16:36Z</time>
      </trkpt>
      <trkpt lat="46.25075" lon="6.55396">
        <ele>1171.98</ele>
        <time>2019-02-06T15:16:49Z</time>
      </trkpt>
      <trkpt lat="46.25078" lon="6.55387">
        <ele>1169.58</ele>
        <time>2019-02-06T15:17:01Z</time>
      </trkpt>
      <trkpt lat="46.25079" lon="6.55385">
        <ele>1169.1</ele>
        <time>2019-02-06T15:17:02Z</time>
      </trkpt>
      <trkpt lat="46.25084" lon="6.55374">
        <ele>1168.62</ele>
        <time>2019-02-06T15:17:12Z</time>
      </trkpt>
      <trkpt lat="46.25091" lon="6.55361">
        <ele>1166.22</ele>
        <time>2019-02-06T15:17:23Z</time>
      </trkpt>
      <trkpt lat="46.25102" lon="6.55344">
        <ele>1164.29</ele>
        <time>2019-02-06T15:17:36Z</time>
      </trkpt>
      <trkpt lat="46.25111" lon="6.55333">
        <ele>1161.89</ele>
        <time>2019-02-06T15:17:47Z</time>
      </trkpt>
      <trkpt lat="46.25111" lon="6.55327">
        <ele>1160.93</ele>
        <time>2019-02-06T15:17:50Z</time>
      </trkpt>
      <trkpt lat="46.25108" lon="6.55309">
        <ele>1158.05</ele>
        <time>2019-02-06T15:18:03Z</time>
      </trkpt>
      <trkpt lat="46.25108" lon="6.55292">
        <ele>1156.6</ele>
        <time>2019-02-06T15:18:16Z</time>
      </trkpt>
      <trkpt lat="46.25108" lon="6.55284">
        <ele>1155.16</ele>
        <time>2019-02-06T15:18:22Z</time>
      </trkpt>
      <trkpt lat="46.25108" lon="6.55277">
        <ele>1154.2</ele>
        <time>2019-02-06T15:18:27Z</time>
      </trkpt>
      <trkpt lat="46.25108" lon="6.55275">
        <ele>1154.2</ele>
        <time>2019-02-06T15:18:29Z</time>
      </trkpt>
      <trkpt lat="46.2511" lon="6.55263">
        <ele>1151.8</ele>
        <time>2019-02-06T15:18:41Z</time>
      </trkpt>
      <trkpt lat="46.25111" lon="6.55252">
        <ele>1150.35</ele>
        <time>2019-02-06T15:18:48Z</time>
      </trkpt>
      <trkpt lat="46.25112" lon="6.55244">
        <ele>1148.91</ele>
        <time>2019-02-06T15:18:53Z</time>
      </trkpt>
      <trkpt lat="46.25113" lon="6.55242">
        <ele>1148.43</ele>
        <time>2019-02-06T15:18:56Z</time>
      </trkpt>
      <trkpt lat="46.25113" lon="6.5523">
        <ele>1146.99</ele>
        <time>2019-02-06T15:19:04Z</time>
      </trkpt>
      <trkpt lat="46.25116" lon="6.55211">
        <ele>1143.63</ele>
        <time>2019-02-06T15:19:19Z</time>
      </trkpt>
      <trkpt lat="46.25118" lon="6.55199">
        <ele>1141.22</ele>
        <time>2019-02-06T15:19:29Z</time>
      </trkpt>
      <trkpt lat="46.25119" lon="6.55184">
        <ele>1139.3</ele>
        <time>2019-02-06T15:19:40Z</time>
      </trkpt>
      <trkpt lat="46.25119" lon="6.55169">
        <ele>1137.86</ele>
        <time>2019-02-06T15:19:52Z</time>
      </trkpt>
      <trkpt lat="46.2512" lon="6.5516">
        <ele>1135.94</ele>
        <time>2019-02-06T15:19:58Z</time>
      </trkpt>
      <trkpt lat="46.25119" lon="6.55155">
        <ele>1135.45</ele>
        <time>2019-02-06T15:20:01Z</time>
      </trkpt>
      <trkpt lat="46.25119" lon="6.55151">
        <ele>1134.97</ele>
        <time>2019-02-06T15:20:03Z</time>
      </trkpt>
      <trkpt lat="46.25114" lon="6.55141">
        <ele>1134.01</ele>
        <time>2019-02-06T15:20:11Z</time>
      </trkpt>
      <trkpt lat="46.2511" lon="6.55142">
        <ele>1133.05</ele>
        <time>2019-02-06T15:20:16Z</time>
      </trkpt>
      <trkpt lat="46.25107" lon="6.55143">
        <ele>1133.05</ele>
        <time>2019-02-06T15:20:21Z</time>
      </trkpt>
      <trkpt lat="46.25104" lon="6.55151">
        <ele>1131.61</ele>
        <time>2019-02-06T15:20:32Z</time>
      </trkpt>
      <trkpt lat="46.25103" lon="6.55156">
        <ele>1131.13</ele>
        <time>2019-02-06T15:20:38Z</time>
      </trkpt>
      <trkpt lat="46.25102" lon="6.55166">
        <ele>1130.17</ele>
        <time>2019-02-06T15:20:50Z</time>
      </trkpt>
      <trkpt lat="46.25099" lon="6.5518">
        <ele>1127.76</ele>
        <time>2019-02-06T15:21:02Z</time>
      </trkpt>
      <trkpt lat="46.2509" lon="6.55193">
        <ele>1125.84</ele>
        <time>2019-02-06T15:21:15Z</time>
      </trkpt>
      <trkpt lat="46.25089" lon="6.55193">
        <ele>1126.32</ele>
        <time>2019-02-06T15:21:33Z</time>
      </trkpt>
      <trkpt lat="46.25088" lon="6.55193">
        <ele>1126.32</ele>
        <time>2019-02-06T15:21:47Z</time>
      </trkpt>
      <trkpt lat="46.25088" lon="6.55193">
        <ele>1125.84</ele>
        <time>2019-02-06T15:22:11Z</time>
      </trkpt>
      <trkpt lat="46.25087" lon="6.55195">
        <ele>1126.32</ele>
        <time>2019-02-06T15:22:38Z</time>
      </trkpt>
      <trkpt lat="46.25087" lon="6.55195">
        <ele>1126.32</ele>
        <time>2019-02-06T15:23:30Z</time>
      </trkpt>
      <trkpt lat="46.25084" lon="6.55196">
        <ele>1126.32</ele>
        <time>2019-02-06T15:24:27Z</time>
      </trkpt>
      <trkpt lat="46.25083" lon="6.55196">
        <ele>1126.8</ele>
        <time>2019-02-06T15:25:53Z</time>
      </trkpt>
      <trkpt lat="46.25078" lon="6.55194">
        <ele>1126.32</ele>
        <time>2019-02-06T15:26:06Z</time>
      </trkpt>
      <trkpt lat="46.25076" lon="6.55192">
        <ele>1125.36</ele>
        <time>2019-02-06T15:26:09Z</time>
      </trkpt>
      <trkpt lat="46.25075" lon="6.55186">
        <ele>1124.88</ele>
        <time>2019-02-06T15:26:14Z</time>
      </trkpt>
      <trkpt lat="46.25075" lon="6.55181">
        <ele>1123.92</ele>
        <time>2019-02-06T15:26:18Z</time>
      </trkpt>
      <trkpt lat="46.25073" lon="6.55171">
        <ele>1122.96</ele>
        <time>2019-02-06T15:26:28Z</time>
      </trkpt>
      <trkpt lat="46.25078" lon="6.55155">
        <ele>1121.03</ele>
        <time>2019-02-06T15:26:38Z</time>
      </trkpt>
      <trkpt lat="46.2508" lon="6.55148">
        <ele>1119.59</ele>
        <time>2019-02-06T15:26:43Z</time>
      </trkpt>
      <trkpt lat="46.25078" lon="6.55138">
        <ele>1118.63</ele>
        <time>2019-02-06T15:26:51Z</time>
      </trkpt>
      <trkpt lat="46.25078" lon="6.5513">
        <ele>1117.19</ele>
        <time>2019-02-06T15:26:57Z</time>
      </trkpt>
      <trkpt lat="46.25077" lon="6.55127">
        <ele>1117.19</ele>
        <time>2019-02-06T15:26:59Z</time>
      </trkpt>
      <trkpt lat="46.25078" lon="6.55113">
        <ele>1116.23</ele>
        <time>2019-02-06T15:27:09Z</time>
      </trkpt>
      <trkpt lat="46.25077" lon="6.5511">
        <ele>1115.75</ele>
        <time>2019-02-06T15:27:11Z</time>
      </trkpt>
      <trkpt lat="46.25077" lon="6.55106">
        <ele>1114.79</ele>
        <time>2019-02-06T15:27:14Z</time>
      </trkpt>
      <trkpt lat="46.25073" lon="6.55099">
        <ele>1114.31</ele>
        <time>2019-02-06T15:27:20Z</time>
      </trkpt>
      <trkpt lat="46.25071" lon="6.55096">
        <ele>1113.34</ele>
        <time>2019-02-06T15:27:23Z</time>
      </trkpt>
      <trkpt lat="46.25071" lon="6.55092">
        <ele>1113.34</ele>
        <time>2019-02-06T15:27:26Z</time>
      </trkpt>
      <trkpt lat="46.25067" lon="6.55084">
        <ele>1112.38</ele>
        <time>2019-02-06T15:27:33Z</time>
      </trkpt>
      <trkpt lat="46.25066" lon="6.5508">
        <ele>1111.9</ele>
        <time>2019-02-06T15:27:36Z</time>
      </trkpt>
      <trkpt lat="46.25063" lon="6.55069">
        <ele>1110.94</ele>
        <time>2019-02-06T15:27:43Z</time>
      </trkpt>
      <trkpt lat="46.25065" lon="6.55062">
        <ele>1110.46</ele>
        <time>2019-02-06T15:27:49Z</time>
      </trkpt>
      <trkpt lat="46.25065" lon="6.55055">
        <ele>1109.98</ele>
        <time>2019-02-06T15:27:53Z</time>
      </trkpt>
      <trkpt lat="46.25065" lon="6.55043">
        <ele>1107.58</ele>
        <time>2019-02-06T15:28:03Z</time>
      </trkpt>
      <trkpt lat="46.25066" lon="6.55033">
        <ele>1107.1</ele>
        <time>2019-02-06T15:28:10Z</time>
      </trkpt>
      <trkpt lat="46.25067" lon="6.55025">
        <ele>1106.13</ele>
        <time>2019-02-06T15:28:18Z</time>
      </trkpt>
      <trkpt lat="46.25067" lon="6.5502">
        <ele>1105.65</ele>
        <time>2019-02-06T15:28:22Z</time>
      </trkpt>
      <trkpt lat="46.25067" lon="6.55008">
        <ele>1104.21</ele>
        <time>2019-02-06T15:28:31Z</time>
      </trkpt>
      <trkpt lat="46.25066" lon="6.55001">
        <ele>1102.77</ele>
        <time>2019-02-06T15:28:38Z</time>
      </trkpt>
      <trkpt lat="46.25063" lon="6.54998">
        <ele>1101.81</ele>
        <time>2019-02-06T15:28:41Z</time>
      </trkpt>
      <trkpt lat="46.25051" lon="6.54985">
        <ele>1099.4</ele>
        <time>2019-02-06T15:28:52Z</time>
      </trkpt>
      <trkpt lat="46.25051" lon="6.54982">
        <ele>1099.4</ele>
        <time>2019-02-06T15:28:54Z</time>
      </trkpt>
      <trkpt lat="46.25051" lon="6.54975">
        <ele>1098.92</ele>
        <time>2019-02-06T15:28:59Z</time>
      </trkpt>
      <trkpt lat="46.2505" lon="6.54974">
        <ele>1098.92</ele>
        <time>2019-02-06T15:29:00Z</time>
      </trkpt>
      <trkpt lat="46.25039" lon="6.54964">
        <ele>1096.52</ele>
        <time>2019-02-06T15:29:09Z</time>
      </trkpt>
      <trkpt lat="46.25038" lon="6.54962">
        <ele>1096.04</ele>
        <time>2019-02-06T15:29:11Z</time>
      </trkpt>
      <trkpt lat="46.25039" lon="6.54956">
        <ele>1095.56</ele>
        <time>2019-02-06T15:29:15Z</time>
      </trkpt>
      <trkpt lat="46.25038" lon="6.54951">
        <ele>1094.6</ele>
        <time>2019-02-06T15:29:19Z</time>
      </trkpt>
      <trkpt lat="46.25038" lon="6.54946">
        <ele>1094.12</ele>
        <time>2019-02-06T15:29:22Z</time>
      </trkpt>
      <trkpt lat="46.25047" lon="6.54927">
        <ele>1092.2</ele>
        <time>2019-02-06T15:29:33Z</time>
      </trkpt>
      <trkpt lat="46.25046" lon="6.54918">
        <ele>1091.23</ele>
        <time>2019-02-06T15:29:40Z</time>
      </trkpt>
      <trkpt lat="46.25041" lon="6.54914">
        <ele>1090.75</ele>
        <time>2019-02-06T15:29:53Z</time>
      </trkpt>
      <trkpt lat="46.25042" lon="6.54914">
        <ele>1090.75</ele>
        <time>2019-02-06T15:30:08Z</time>
      </trkpt>
      <trkpt lat="46.2504" lon="6.54905">
        <ele>1089.31</ele>
        <time>2019-02-06T15:30:15Z</time>
      </trkpt>
      <trkpt lat="46.25043" lon="6.54896">
        <ele>1088.35</ele>
        <time>2019-02-06T15:30:19Z</time>
      </trkpt>
      <trkpt lat="46.25043" lon="6.54894">
        <ele>1088.35</ele>
        <time>2019-02-06T15:30:20Z</time>
      </trkpt>
      <trkpt lat="46.25047" lon="6.54886">
        <ele>1087.87</ele>
        <time>2019-02-06T15:30:24Z</time>
      </trkpt>
      <trkpt lat="46.25043" lon="6.54882">
        <ele>1087.39</ele>
        <time>2019-02-06T15:30:28Z</time>
      </trkpt>
      <trkpt lat="46.25042" lon="6.54879">
        <ele>1086.91</ele>
        <time>2019-02-06T15:30:30Z</time>
      </trkpt>
      <trkpt lat="46.25035" lon="6.54874">
        <ele>1086.91</ele>
        <time>2019-02-06T15:30:35Z</time>
      </trkpt>
      <trkpt lat="46.25036" lon="6.54872">
        <ele>1086.91</ele>
        <time>2019-02-06T15:30:37Z</time>
      </trkpt>
      <trkpt lat="46.25035" lon="6.54867">
        <ele>1085.95</ele>
        <time>2019-02-06T15:30:41Z</time>
      </trkpt>
      <trkpt lat="46.2503" lon="6.54861">
        <ele>1084.99</ele>
        <time>2019-02-06T15:30:45Z</time>
      </trkpt>
      <trkpt lat="46.25026" lon="6.54851">
        <ele>1084.5</ele>
        <time>2019-02-06T15:30:53Z</time>
      </trkpt>
      <trkpt lat="46.25029" lon="6.5484">
        <ele>1083.06</ele>
        <time>2019-02-06T15:30:59Z</time>
      </trkpt>
      <trkpt lat="46.25026" lon="6.54837">
        <ele>1083.06</ele>
        <time>2019-02-06T15:31:02Z</time>
      </trkpt>
      <trkpt lat="46.2503" lon="6.5482">
        <ele>1082.1</ele>
        <time>2019-02-06T15:31:11Z</time>
      </trkpt>
      <trkpt lat="46.25025" lon="6.54813">
        <ele>1082.1</ele>
        <time>2019-02-06T15:31:17Z</time>
      </trkpt>
      <trkpt lat="46.25025" lon="6.54804">
        <ele>1081.14</ele>
        <time>2019-02-06T15:31:23Z</time>
      </trkpt>
      <trkpt lat="46.25027" lon="6.54799">
        <ele>1081.14</ele>
        <time>2019-02-06T15:31:25Z</time>
      </trkpt>
      <trkpt lat="46.25028" lon="6.54789">
        <ele>1080.18</ele>
        <time>2019-02-06T15:31:30Z</time>
      </trkpt>
      <trkpt lat="46.25028" lon="6.54781">
        <ele>1079.22</ele>
        <time>2019-02-06T15:31:35Z</time>
      </trkpt>
      <trkpt lat="46.25027" lon="6.54776">
        <ele>1078.26</ele>
        <time>2019-02-06T15:31:38Z</time>
      </trkpt>
      <trkpt lat="46.25023" lon="6.5476">
        <ele>1077.78</ele>
        <time>2019-02-06T15:31:50Z</time>
      </trkpt>
      <trkpt lat="46.2502" lon="6.54748">
        <ele>1076.33</ele>
        <time>2019-02-06T15:31:58Z</time>
      </trkpt>
      <trkpt lat="46.25013" lon="6.54737">
        <ele>1074.89</ele>
        <time>2019-02-06T15:32:06Z</time>
      </trkpt>
      <trkpt lat="46.25011" lon="6.54721">
        <ele>1074.41</ele>
        <time>2019-02-06T15:32:16Z</time>
      </trkpt>
      <trkpt lat="46.25006" lon="6.54714">
        <ele>1072.97</ele>
        <time>2019-02-06T15:32:22Z</time>
      </trkpt>
      <trkpt lat="46.25001" lon="6.54711">
        <ele>1072.49</ele>
        <time>2019-02-06T15:32:26Z</time>
      </trkpt>
      <trkpt lat="46.24997" lon="6.54707">
        <ele>1072.01</ele>
        <time>2019-02-06T15:32:30Z</time>
      </trkpt>
      <trkpt lat="46.24995" lon="6.54699">
        <ele>1071.05</ele>
        <time>2019-02-06T15:32:35Z</time>
      </trkpt>
      <trkpt lat="46.24991" lon="6.54692">
        <ele>1071.05</ele>
        <time>2019-02-06T15:32:40Z</time>
      </trkpt>
      <trkpt lat="46.2499" lon="6.54688">
        <ele>1070.57</ele>
        <time>2019-02-06T15:32:42Z</time>
      </trkpt>
      <trkpt lat="46.24983" lon="6.54673">
        <ele>1068.64</ele>
        <time>2019-02-06T15:32:54Z</time>
      </trkpt>
      <trkpt lat="46.2498" lon="6.54658">
        <ele>1066.24</ele>
        <time>2019-02-06T15:33:04Z</time>
      </trkpt>
      <trkpt lat="46.24975" lon="6.54644">
        <ele>1064.8</ele>
        <time>2019-02-06T15:33:15Z</time>
      </trkpt>
      <trkpt lat="46.24973" lon="6.54637">
        <ele>1064.32</ele>
        <time>2019-02-06T15:33:21Z</time>
      </trkpt>
      <trkpt lat="46.24976" lon="6.54626">
        <ele>1063.36</ele>
        <time>2019-02-06T15:33:26Z</time>
      </trkpt>
      <trkpt lat="46.24977" lon="6.54616">
        <ele>1061.91</ele>
        <time>2019-02-06T15:33:33Z</time>
      </trkpt>
      <trkpt lat="46.24977" lon="6.546">
        <ele>1060.47</ele>
        <time>2019-02-06T15:33:44Z</time>
      </trkpt>
      <trkpt lat="46.24979" lon="6.54587">
        <ele>1058.55</ele>
        <time>2019-02-06T15:33:55Z</time>
      </trkpt>
      <trkpt lat="46.24978" lon="6.54574">
        <ele>1057.11</ele>
        <time>2019-02-06T15:34:04Z</time>
      </trkpt>
      <trkpt lat="46.24977" lon="6.54562">
        <ele>1055.67</ele>
        <time>2019-02-06T15:34:13Z</time>
      </trkpt>
      <trkpt lat="46.24978" lon="6.54554">
        <ele>1055.18</ele>
        <time>2019-02-06T15:34:18Z</time>
      </trkpt>
      <trkpt lat="46.24978" lon="6.54549">
        <ele>1054.7</ele>
        <time>2019-02-06T15:34:21Z</time>
      </trkpt>
      <trkpt lat="46.24979" lon="6.5454">
        <ele>1053.74</ele>
        <time>2019-02-06T15:34:27Z</time>
      </trkpt>
      <trkpt lat="46.24979" lon="6.54536">
        <ele>1054.7</ele>
        <time>2019-02-06T15:34:29Z</time>
      </trkpt>
      <trkpt lat="46.24979" lon="6.5453">
        <ele>1053.74</ele>
        <time>2019-02-06T15:34:32Z</time>
      </trkpt>
      <trkpt lat="46.24979" lon="6.54528">
        <ele>1053.26</ele>
        <time>2019-02-06T15:34:34Z</time>
      </trkpt>
      <trkpt lat="46.2498" lon="6.54519">
        <ele>1052.78</ele>
        <time>2019-02-06T15:34:39Z</time>
      </trkpt>
      <trkpt lat="46.24979" lon="6.54513">
        <ele>1052.3</ele>
        <time>2019-02-06T15:34:42Z</time>
      </trkpt>
      <trkpt lat="46.24977" lon="6.54505">
        <ele>1051.82</ele>
        <time>2019-02-06T15:34:48Z</time>
      </trkpt>
      <trkpt lat="46.24976" lon="6.545">
        <ele>1051.34</ele>
        <time>2019-02-06T15:34:52Z</time>
      </trkpt>
      <trkpt lat="46.24978" lon="6.54496">
        <ele>1050.86</ele>
        <time>2019-02-06T15:34:55Z</time>
      </trkpt>
      <trkpt lat="46.24978" lon="6.54483">
        <ele>1050.38</ele>
        <time>2019-02-06T15:35:03Z</time>
      </trkpt>
      <trkpt lat="46.2498" lon="6.54479">
        <ele>1049.9</ele>
        <time>2019-02-06T15:35:06Z</time>
      </trkpt>
      <trkpt lat="46.24981" lon="6.54477">
        <ele>1049.9</ele>
        <time>2019-02-06T15:35:08Z</time>
      </trkpt>
      <trkpt lat="46.24984" lon="6.54469">
        <ele>1048.45</ele>
        <time>2019-02-06T15:35:14Z</time>
      </trkpt>
      <trkpt lat="46.24984" lon="6.54467">
        <ele>1048.94</ele>
        <time>2019-02-06T15:35:15Z</time>
      </trkpt>
      <trkpt lat="46.24986" lon="6.5446">
        <ele>1047.49</ele>
        <time>2019-02-06T15:35:20Z</time>
      </trkpt>
      <trkpt lat="46.24988" lon="6.5445">
        <ele>1047.01</ele>
        <time>2019-02-06T15:35:34Z</time>
      </trkpt>
      <trkpt lat="46.24988" lon="6.5445">
        <ele>1046.53</ele>
        <time>2019-02-06T15:35:47Z</time>
      </trkpt>
      <trkpt lat="46.24989" lon="6.54445">
        <ele>1047.01</ele>
        <time>2019-02-06T15:35:50Z</time>
      </trkpt>
      <trkpt lat="46.2499" lon="6.54443">
        <ele>1047.01</ele>
        <time>2019-02-06T15:35:52Z</time>
      </trkpt>
      <trkpt lat="46.24992" lon="6.5444">
        <ele>1047.01</ele>
        <time>2019-02-06T15:35:55Z</time>
      </trkpt>
      <trkpt lat="46.24992" lon="6.54426">
        <ele>1047.01</ele>
        <time>2019-02-06T15:36:07Z</time>
      </trkpt>
      <trkpt lat="46.24992" lon="6.54416">
        <ele>1047.97</ele>
        <time>2019-02-06T15:36:17Z</time>
      </trkpt>
      <trkpt lat="46.24993" lon="6.54415">
        <ele>1047.97</ele>
        <time>2019-02-06T15:36:19Z</time>
      </trkpt>
      <trkpt lat="46.24994" lon="6.54396">
        <ele>1048.45</ele>
        <time>2019-02-06T15:36:31Z</time>
      </trkpt>
      <trkpt lat="46.24995" lon="6.54389">
        <ele>1047.97</ele>
        <time>2019-02-06T15:36:35Z</time>
      </trkpt>
      <trkpt lat="46.24995" lon="6.54378">
        <ele>1049.42</ele>
        <time>2019-02-06T15:36:41Z</time>
      </trkpt>
      <trkpt lat="46.24997" lon="6.54373">
        <ele>1047.49</ele>
        <time>2019-02-06T15:36:44Z</time>
      </trkpt>
      <trkpt lat="46.24999" lon="6.54357">
        <ele>1047.01</ele>
        <time>2019-02-06T15:36:54Z</time>
      </trkpt>
      <trkpt lat="46.25001" lon="6.54354">
        <ele>1047.97</ele>
        <time>2019-02-06T15:36:56Z</time>
      </trkpt>
      <trkpt lat="46.25004" lon="6.54341">
        <ele>1047.01</ele>
        <time>2019-02-06T15:37:05Z</time>
      </trkpt>
      <trkpt lat="46.25005" lon="6.54338">
        <ele>1047.01</ele>
        <time>2019-02-06T15:37:07Z</time>
      </trkpt>
      <trkpt lat="46.25008" lon="6.54328">
        <ele>1047.01</ele>
        <time>2019-02-06T15:37:13Z</time>
      </trkpt>
      <trkpt lat="46.25012" lon="6.54318">
        <ele>1046.53</ele>
        <time>2019-02-06T15:37:19Z</time>
      </trkpt>
      <trkpt lat="46.25015" lon="6.54309">
        <ele>1046.05</ele>
        <time>2019-02-06T15:37:24Z</time>
      </trkpt>
      <trkpt lat="46.25017" lon="6.54305">
        <ele>1046.05</ele>
        <time>2019-02-06T15:37:27Z</time>
      </trkpt>
      <trkpt lat="46.25019" lon="6.54299">
        <ele>1045.57</ele>
        <time>2019-02-06T15:37:33Z</time>
      </trkpt>
      <trkpt lat="46.25021" lon="6.54297">
        <ele>1045.09</ele>
        <time>2019-02-06T15:37:35Z</time>
      </trkpt>
      <trkpt lat="46.25021" lon="6.54294">
        <ele>1045.09</ele>
        <time>2019-02-06T15:37:37Z</time>
      </trkpt>
      <trkpt lat="46.25026" lon="6.54286">
        <ele>1045.09</ele>
        <time>2019-02-06T15:37:48Z</time>
      </trkpt>
      <trkpt lat="46.25026" lon="6.5428">
        <ele>1044.13</ele>
        <time>2019-02-06T15:37:54Z</time>
      </trkpt>
      <trkpt lat="46.25032" lon="6.5427">
        <ele>1042.69</ele>
        <time>2019-02-06T15:38:03Z</time>
      </trkpt>
      <trkpt lat="46.25035" lon="6.54265">
        <ele>1042.69</ele>
        <time>2019-02-06T15:38:07Z</time>
      </trkpt>
      <trkpt lat="46.25038" lon="6.54261">
        <ele>1042.69</ele>
        <time>2019-02-06T15:38:11Z</time>
      </trkpt>
      <trkpt lat="46.25045" lon="6.54246">
        <ele>1041.25</ele>
        <time>2019-02-06T15:38:22Z</time>
      </trkpt>
      <trkpt lat="46.25046" lon="6.54243">
        <ele>1041.25</ele>
        <time>2019-02-06T15:38:25Z</time>
      </trkpt>
      <trkpt lat="46.25049" lon="6.54239">
        <ele>1040.76</ele>
        <time>2019-02-06T15:38:28Z</time>
      </trkpt>
      <trkpt lat="46.25057" lon="6.54224">
        <ele>1039.32</ele>
        <time>2019-02-06T15:38:41Z</time>
      </trkpt>
      <trkpt lat="46.25064" lon="6.54216">
        <ele>1039.8</ele>
        <time>2019-02-06T15:38:52Z</time>
      </trkpt>
      <trkpt lat="46.25072" lon="6.54204">
        <ele>1038.84</ele>
        <time>2019-02-06T15:39:04Z</time>
      </trkpt>
      <trkpt lat="46.25077" lon="6.54195">
        <ele>1038.84</ele>
        <time>2019-02-06T15:39:11Z</time>
      </trkpt>
      <trkpt lat="46.25088" lon="6.54185">
        <ele>1038.36</ele>
        <time>2019-02-06T15:39:24Z</time>
      </trkpt>
      <trkpt lat="46.25096" lon="6.54181">
        <ele>1038.36</ele>
        <time>2019-02-06T15:39:33Z</time>
      </trkpt>
      <trkpt lat="46.25106" lon="6.54176">
        <ele>1038.84</ele>
        <time>2019-02-06T15:39:43Z</time>
      </trkpt>
      <trkpt lat="46.25108" lon="6.54175">
        <ele>1038.84</ele>
        <time>2019-02-06T15:39:45Z</time>
      </trkpt>
      <trkpt lat="46.25118" lon="6.5416">
        <ele>1037.88</ele>
        <time>2019-02-06T15:39:58Z</time>
      </trkpt>
      <trkpt lat="46.25121" lon="6.54158">
        <ele>1037.88</ele>
        <time>2019-02-06T15:40:01Z</time>
      </trkpt>
      <trkpt lat="46.25122" lon="6.54154">
        <ele>1037.4</ele>
        <time>2019-02-06T15:40:04Z</time>
      </trkpt>
      <trkpt lat="46.25124" lon="6.5415">
        <ele>1037.88</ele>
        <time>2019-02-06T15:40:07Z</time>
      </trkpt>
      <trkpt lat="46.25127" lon="6.54148">
        <ele>1037.4</ele>
        <time>2019-02-06T15:40:10Z</time>
      </trkpt>
      <trkpt lat="46.2513" lon="6.54129">
        <ele>1036.44</ele>
        <time>2019-02-06T15:40:22Z</time>
      </trkpt>
      <trkpt lat="46.25133" lon="6.54119">
        <ele>1035.96</ele>
        <time>2019-02-06T15:40:28Z</time>
      </trkpt>
      <trkpt lat="46.25134" lon="6.54114">
        <ele>1036.44</ele>
        <time>2019-02-06T15:40:32Z</time>
      </trkpt>
      <trkpt lat="46.25135" lon="6.54102">
        <ele>1035.96</ele>
        <time>2019-02-06T15:40:40Z</time>
      </trkpt>
      <trkpt lat="46.25137" lon="6.54087">
        <ele>1035.48</ele>
        <time>2019-02-06T15:40:50Z</time>
      </trkpt>
      <trkpt lat="46.25144" lon="6.54065">
        <ele>1034.04</ele>
        <time>2019-02-06T15:41:05Z</time>
      </trkpt>
      <trkpt lat="46.25147" lon="6.54057">
        <ele>1033.55</ele>
        <time>2019-02-06T15:41:10Z</time>
      </trkpt>
      <trkpt lat="46.25157" lon="6.54042">
        <ele>1032.11</ele>
        <time>2019-02-06T15:41:23Z</time>
      </trkpt>
      <trkpt lat="46.25161" lon="6.54039">
        <ele>1032.11</ele>
        <time>2019-02-06T15:41:27Z</time>
      </trkpt>
      <trkpt lat="46.2517" lon="6.54027">
        <ele>1030.67</ele>
        <time>2019-02-06T15:41:39Z</time>
      </trkpt>
      <trkpt lat="46.25174" lon="6.54019">
        <ele>1030.19</ele>
        <time>2019-02-06T15:41:46Z</time>
      </trkpt>
      <trkpt lat="46.25172" lon="6.54005">
        <ele>1028.27</ele>
        <time>2019-02-06T15:41:59Z</time>
      </trkpt>
      <trkpt lat="46.25168" lon="6.53999">
        <ele>1026.83</ele>
        <time>2019-02-06T15:42:08Z</time>
      </trkpt>
      <trkpt lat="46.25157" lon="6.53994">
        <ele>1025.86</ele>
        <time>2019-02-06T15:42:22Z</time>
      </trkpt>
      <trkpt lat="46.25157" lon="6.53995">
        <ele>1025.38</ele>
        <time>2019-02-06T15:42:42Z</time>
      </trkpt>
    </trkseg>
  </trk>
</gpx>